     2.11           OBSERVATION DATA    G (GPS)             RINEX VERSION / TYPE
teqc 2010Oct21 OPUS Account 20111027 18:57:38UTC            PGM / RUN BY / DATE
E 1526                                                      MARKER NAME
3041                                                        MARKER NUMBER
CSMIDDLETON NGS                                             OBSERVER / AGENCY
0220269730 TRIMBLE 5700 NP 1.22 / SP 1.22                   REC # / TYPE / VERS
60041226 TRM41249.00 NONE                                   ANT # / TYPE
  -754898.1672 -5564455.5435  3014428.3381                  APPROX POSITION XYZ
        2.0010        0.0000        0.0000                  ANTENNA: DELTA H/E/N
     1     1                                                WAVELENGTH FACT L1/2
     5    L1    L2    C1    P1    P2                        # / TYPES OF OBSERV
    15                                                      LEAP SECONDS
  2011     8    18    17    14    0.0000000     GPS         TIME OF FIRST OBS
                                                            END OF HEADER
 11  8 18 17 14  0.0000000  0  8G03G07G08G11G13G19G23G28
    136619.41456     93025.54554  22689641.4224                   22689641.5124
   -219814.94158   -157917.99556  21125479.8364                   21125478.7034
   -285271.27357   -187949.73754  22674114.1564                   22674114.1254
   -287573.23057   -210483.96254  23232830.4304                   23232830.3674
     46956.19558     32671.45456  20684593.8984                   20684592.6254
    -11238.10257    -12346.06856  21212549.0314                   21212546.5784
    151179.19557    100996.64155  22153895.1484                   22153893.0864
   -199763.39557   -154422.47554  23431520.1884                   23431519.0904
 11  8 18 17 14 30.0000000  0 10G03G06G07G08G10G11G13G19G23G28
    189232.23047    134022.46444  22699652.7424                   22699653.7464
     65820.07014                  24725596.188
   -307484.97348   -226232.30546  21108796.9064                   21108795.4574
   -399419.81647   -276896.61944  22652392.5634                   22652391.9104
     11603.78556      3025.80053  24745921.1414                   24745922.4574
   -404753.71146   -301793.35044  23210530.8444                   23210531.8244
     64339.48848     46216.82846  20687901.6414                   20687900.5784
    -16537.76647    -16475.70746  21211540.6024                   21211537.8484
    209030.82447    146075.76045  22164903.8134                   22164901.9924
   -291095.57047   -225590.41144  23414140.7584                   23414139.3754
 11  8 18 17 15  0.0000000  0 10G03G06G07G08G10G11G13G19G23G28
    241258.14546    174562.06244  22709553.1334                   22709553.8794
    122433.91055     81515.17553  24736371.4454                   24736373.6724
   -395880.44548   -295111.90346  21091975.7034                   21091973.9184
   -514466.10547   -366543.07144  22630499.9694                   22630499.0234
     20897.53946     10267.63243  24747689.6334                   24747691.5634
   -522686.14147   -393688.74044  23188089.7814                   23188089.4184
     81352.04348     59473.31546  20691139.1174                   20691138.1524
    -22152.65247    -20850.95946  21210471.9844                   21210469.3134
    266277.52747    190683.48445  22175797.4384                   22175795.7544
   -383114.80147   -297293.70344  23396629.9534                   23396629.0554
 11  8 18 17 15 30.0000000  0 10G03G06G07G08G10G11G13G19G23G28
    292724.54347    214665.69444  22719347.0704                   22719346.9924
    178341.31346    125079.33443  24747010.5164                   24747012.1524
   -484969.21547   -364531.72146  21075022.5554                   21075021.0554
   -630378.24247   -456864.15644  22608442.5554                   22608441.6414
     29508.77346     16977.60543  24749327.6884                   24749329.5704
   -641337.35946   -486144.24144  23165511.5004                   23165510.6454
     98022.35248     72463.12546  20694311.5004                   20694310.1564
    -28053.50848    -25449.05646  21209349.3134                   21209346.4534
    322946.43047    234840.98145  22186581.5084                   22186579.3204
   -475790.83247   -369508.77544  23378993.8674                   23378994.1724
 11  8 18 17 16  0.0000000  0 10G03G06G07G08G10G11G13G19G23G28
    343648.62946    254346.69944  22729036.9384                   22729038.6764
    233559.43046    168106.38543  24757517.4454                   24757520.1094
   -574729.73848   -434474.98846  21057942.1884                   21057940.2734
   -747135.35247   -547843.71844  22586224.5554                   22586224.1414
     37454.87546     23169.36343  24750840.1564                   24750841.8954
   -760684.74247   -579142.21744  23142800.7504                   23142800.3364
    114368.08248     85200.01446  20697422.1254                   20697420.7384
    -34222.16447    -30255.81046  21208175.2584                   21208172.6804
    379054.64547    278561.58445  22197258.7344                   22197256.2664
   -569105.00447   -442221.09944  23361237.6254                   23361236.4494
 11  8 18 17 16 30.0000000  0 10G03G06G07G08G10G11G13G19G23G28
    394071.41847    293637.07044  22738632.9694                   22738633.0944
    288130.10245    210628.88043  24767901.8674                   24767904.3874
   -665115.59048   -504905.51746  21040742.2584                   21040740.4964
   -864691.94147   -639446.28144  22563853.8594                   22563853.8284
     44777.12146     28874.94243  24752233.0084                   24752234.8714
   -880680.29347   -672645.21044  23119966.1024                   23119966.1644
    130431.72748     97717.10446  20700478.8914                   20700477.4964
    -40616.02747    -35238.07046  21206958.6414                   21206955.9264
    434643.66447    321877.60645  22207837.0554                   22207834.4384
   -663013.43047   -515396.49544  23343366.9614                   23343366.6334
 11  8 18 17 17  0.0000000  0 10G03G06G07G08G10G11G13G19G23G28
    444039.94546    332573.53843  22748141.2894                   22748141.2774
    342100.84045    252683.85343  24778172.3754                   24778173.9264
   -756075.77048   -575783.57546  21023432.8594                   21023430.9924
   -982997.08247   -731632.08544  22541341.4144                   22541341.0084
     51522.87546     34131.28443  24753516.9454                   24753518.6524
  -1001271.28946   -766612.18044  23097017.6954                   23097018.3714
    146261.46148    110051.90646  20703490.9614                   20703489.7074
    -47186.66447    -40358.08146  21205708.2664                   21205705.5084
    489760.62547    364825.79045  22218325.7424                   22218322.9144
   -757466.47347   -588996.26244  23325393.0164                   23325392.3524
 11  8 18 17 17 30.0000000  0 10G03G06G07G08G10G11G13G19G23G28
    493595.81347    371188.36244  22757571.5164                   22757571.8594
    395513.33246    294303.97343  24788336.6484                   24788338.1094
   -847564.59848   -647073.57246  21006023.3834                   21006021.7894
  -1102005.17647   -824365.66044  22518695.0004                   22518694.2464
     57733.52346     38970.64743  24754698.7034                   24754700.0784
  -1122410.78147   -861006.57643  23073965.8674                   23073966.1054
    161899.33248    122237.21746  20706466.7274                   20706465.5904
    -53891.46147    -45582.61946  21204432.3594                   21204429.9064
    544447.02347    407438.49545  22228732.1564                   22228729.8594
   -852420.69147   -662986.56944  23307323.8524                   23307323.5864
 11  8 18 17 18  0.0000000  0 10G03G06G07G08G10G11G13G19G23G28
    542773.80147    409508.86444  22766930.2344                   22766930.5044
    448403.25046    335516.73343  24798401.0164                   24798403.4964
   -939541.22748   -718743.66146  20988520.3524                   20988519.1724
  -1221676.60947   -917616.10944  22495922.2504                   22495921.7034
     63444.26246     43420.54043  24755785.3594                   24755786.7894
  -1244057.42247   -955796.10944  23050816.8914                   23050816.6334
    177381.43048    134301.15446  20709413.3284                   20709411.7704
    -60693.53947    -50882.96446  21203138.1644                   21203135.3594
    598738.09847    449743.15445  22239063.4924                   22239061.2344
   -947838.55547   -737338.16744  23289167.0314                   23289165.8404
 11  8 18 17 18 30.0000000  0 10G03G06G07G08G10G11G13G19G23G28
    591605.48446    447559.49643  22776221.4304                   22776221.3094
    500802.50845    376347.27342  24808373.0864                   24808374.3094
  -1031969.78548   -790765.89046  20970931.8134                   20970930.2034
  -1341976.19147  -1011356.03644  22473030.0704                   22473028.7584
     68686.52746     47505.37043  24756783.4384                   24756784.1094
  -1366173.78147  -1050951.67344  23027579.2424                   23027578.4774
    192740.10948    146268.90846  20712335.6484                   20712334.5944
    -67560.73447    -56234.06746  21201831.6024                   21201828.9924
    652665.04347    491764.04645  22249325.3054                   22249323.2734
  -1043686.43747   -812024.82044  23270927.3524                   23270925.9224
 11  8 18 17 19  0.0000000  0 10G03G06G07G08G10G11G13G19G23G28
    640114.25447    485358.46044  22785453.8364                   22785454.1094
    552734.48445    416813.64842  24818255.0394                   24818257.7704
  -1124823.24648   -863119.23446  20953262.7584                   20953261.2034
  -1462876.64147  -1105564.17244  22450022.7114                   22450022.4574
     73483.38346     51243.24143  24757695.8204                   24757697.5904
  -1488731.18747  -1146450.89944  23004257.5634                   23004255.9494
    207999.37948    158159.22446  20715239.6644                   20715238.3094
    -74468.70747    -61616.92146  21200516.7424                   21200514.4454
    706250.89547    533519.15945  22259522.7034                   22259520.2734
  -1139938.98047   -887026.78644  23252610.6094                   23252610.4734
 11  8 18 17 19 30.0000000  0 10G03G06G07G08G10G11G13G19G23G28
    688324.08246    522924.52643  22794626.3284                   22794627.4534
    604223.93446    456935.28942  24828053.7114                   24828055.6134
  -1218072.44547   -935780.95046  20935517.9694                   20935516.5394
  -1584350.23047  -1200218.87645  22426907.6564                   22426907.9964
     77859.49246     54653.06643  24758529.0234                   24758529.9064
  -1611699.06646  -1242270.01344  22980857.1334                   22980856.3834
    223184.46948    169991.71446  20718129.4384                   20718128.0274
    -81391.69547    -67011.48246  21199199.5784                   21199196.8054
    759520.21147    575027.63245  22269659.3204                   22269656.7934
  -1236569.57047   -962323.34344  23234223.2504                   23234222.0434
 11  8 18 17 20  0.0000000  0  9G03G07G08G10G11G13G19G23G28
    736253.39146    560271.94643  22803747.5634                   22803747.8284
  -1311693.81248  -1008732.65846  20917702.2894                   20917700.3914
  -1706373.28547  -1295301.75545  22403686.9224                   22403687.0514
     81833.30946     57749.46942  24759285.3134                   24759286.3014
  -1735053.02346  -1338389.92944  22957383.0704                   22957383.3594
    238314.48048    181781.29946  20721008.6024                   20721006.9964
    -88309.98047    -72402.36246  21197882.9454                   21197880.1644
    812491.34847    616303.77745  22279739.6804                   22279737.2854
  -1333557.49647  -1037898.36544  23215767.1564                   23215765.7384
 11  8 18 17 20 30.0000000  0  9G03G07G08G10G11G13G19G23G28
    783913.97746    597409.97344  22812816.5634                   22812819.0824
  -1405671.42648  -1081961.97546  20899818.8984                   20899817.4184
  -1828930.03547  -1390800.49745  22380365.2974                   22380365.3094
     85416.75846     60541.73042  24759967.1884                   24759968.6174
  -1858775.70746  -1434797.17744  22933840.1484                   22933840.1644
    253402.19548    193537.91646  20723879.4774                   20723878.5314
    -95210.71147    -77779.60046  21196570.3834                   21196567.2624
    865176.13347    657356.75945  22289765.0474                   22289762.7814
  -1430888.58247  -1113740.76244  23197244.7034                   23197244.1054
 11  8 18 17 21  0.0000000  0  9G03G07G08G10G11G13G19G23G28
    831326.21146    634354.37043  22821839.8134                   22821840.6564
  -1499980.33247  -1155449.42546  20881872.7274                   20881870.7464
  -1951996.43047  -1486696.35845  22356946.8524                   22356946.2894
     88630.19945     63045.60942  24760578.2194                   24760579.5824
  -1982840.85247  -1531471.28344  22910231.4064                   22910231.5314
    268468.44548    205277.81946  20726746.6484                   20726745.3364
   -102072.93747    -83126.81546  21195264.4224                   21195261.5514
    917594.73847    698202.33645  22299740.2974                   22299737.7814
  -1528540.75446  -1189833.35744  23178662.2034                   23178662.0274
 11  8 18 17 21 30.0000000  0  9G03G07G08G10G11G13G19G23G28
    878512.51646    671122.95943  22830818.7814                   22830819.6134
  -1594593.04747  -1229173.62246  20863868.4694                   20863866.7074
  -2075545.35547  -1582968.23445  22333436.1954                   22333436.0354
     91496.51245     65279.09042  24761123.8984                   24761124.2384
  -2107220.03946  -1628390.08444  22886562.7344                   22886562.5004
    283536.79348    217019.35246  20729614.0394                   20729612.7544
   -108872.48447    -88425.19246  21193970.2274                   21193967.4884
    969770.01647    738858.31044  22309668.8834                   22309666.5204
  -1626489.00446  -1266156.63944  23160023.3444                   23160023.0354
 11  8 18 17 22  0.0000000  0  9G03G07G08G10G11G13G19G23G28
    925481.03546    707721.62843  22839757.0474                   22839758.6054
  -1689497.61347  -1303125.24046  20845808.7114                   20845806.9144
  -2199565.14547  -1679607.00745  22309835.6564                   22309835.9224
     94023.35246     67247.95342  24761605.4064                   24761606.1024
  -2231899.46946  -1725542.81544  22862836.6174                   22862836.5984
    298615.85948    228769.22946  20732483.1484                   20732482.0824
   -115600.68747    -93667.96646  21192690.0084                   21192687.4064
   1021709.56647    779330.61144  22319552.8134                   22319550.4964
  -1724723.10547  -1342702.67644  23141329.6024                   23141329.4844
 11  8 18 17 22 30.0000000  0  9G03G07G08G10G11G13G19G23G28
    972244.20347    744160.37744  22848656.2504                   22848656.4494
  -1784676.02747  -1377290.23146  20827696.6884                   20827694.9384
  -2324038.34447  -1776599.08144  22286149.7274                   22286149.3284
     96223.69546     68962.53942  24762023.5704                   24762023.8674
  -2356859.89546  -1822914.50144  22839057.5864                   22839057.1954
    313719.23448    240538.04946  20735357.7344                   20735356.3134
   -122243.28147    -98844.02546  21191425.7814                   21191423.2854
   1073425.91447    819628.96545  22329394.3674                   22329391.9964
  -1823228.71547  -1419460.27044  23122585.4614                   23122584.4024
 11  8 18 17 23  0.0000000  0  9G03G07G08G10G11G13G19G23G28
   1018803.00446    780439.97443  22857515.2114                   22857514.9144
  -1880122.65647  -1451664.23946  20809533.8284                   20809532.3674
  -2448959.87947  -1873940.51844  22262377.5784                   22262377.5004
     98098.58645     70423.37942  24762379.7734                   24762381.3674
  -2482094.64847  -1920499.99344  22815226.6174                   22815226.2194
    328848.48048    252327.03146  20738236.7034                   20738235.6024
   -128798.32847   -103951.88746  21190178.7274                   21190175.8204
   1124920.28547    859754.35044  22339193.1804                   22339190.3244
  -1922001.74247  -1496426.23644  23103789.1724                   23103788.8594
 11  8 18 17 23 30.0000000  0  9G03G07G08G10G11G13G19G23G28
   1065165.74646    816566.69144  22866338.5634                   22866339.4264
  -1975825.31247  -1526237.74246  20791322.2734                   20791320.5944
  -2574317.70347  -1971621.91745  22238522.7344                   22238522.4654
     99655.52045     71636.52742  24762675.9924                   24762677.5234
  -2607590.44547  -2018288.82444  22791345.2974                   22791345.0904
    344011.94948    264142.69246  20741122.0474                   20741121.1094
   -135257.34847   -108984.91646  21188949.5554                   21188946.9144
   1176200.31647    899712.74045  22348951.5084                   22348948.9344
  -2021032.66447  -1573593.15244  23084943.9534                   23084943.2774
 11  8 18 17 24  0.0000000  0 10G03G24G07G08G10G11G13G19G23G28
   1111336.94146    852544.11543  22875124.7734                   22875125.6954
   -144927.50456    -91767.96853  24255405.6884                   24255409.5084
  -2071774.20747  -1601003.12446  20773063.9534                   20773062.1644
  -2700102.55147  -2069636.04144  22214586.2894                   22214586.4654
    100899.72345     72606.02042  24762912.9384                   24762915.1724
  -2733336.12147  -2116272.45344  22767416.7274                   22767416.7464
    359215.05148    275989.23546  20744015.2814                   20744014.2274
   -141614.13347   -113938.28146  21187739.8834                   21187737.2234
   1227271.06347    939508.01544  22358670.2274                   22358667.8284
  -2120314.28947  -1650955.46244  23066051.8284                   23066050.8984
 11  8 18 17 24 30.0000000  0 10G03G24G07G08G10G11G13G19G23G28
   1157317.49646    888373.09643  22883873.7274                   22883873.2154
   -271438.88346   -190348.02143  24231330.6024                   24231335.4264
  -2167963.23048  -1675955.61246  20754759.7664                   20754757.9494
  -2826309.37147  -2167978.98144  22190570.5634                   22190570.0394
    101832.60945     73332.85942  24763090.2894                   24763093.0204
  -2859324.48447  -2214445.13144  22743441.1804                   22743441.6484
    374460.45748    287868.73946  20746916.6174                   20746915.2074
   -147866.42247   -118810.20946  21186549.8444                   21186547.5234
   1278133.73847    979141.19344  22368348.7424                   22368346.7704
  -2219843.04747  -1728510.26644  23047111.5944                   23047111.2894
 11  8 18 17 25  0.0000000  0 10G03G24G07G08G10G11G13G19G23G28
   1203098.37546    924046.45044  22892587.1094                   22892587.4964
   -398469.97346   -289333.22043  24207157.9844                   24207161.5084
  -2264397.69547  -1751099.36246  20736408.6254                   20736407.1294
  -2952943.26647  -2266654.74445  22166472.5864                   22166471.7274
    102444.75846     73809.84042  24763208.0704                   24763209.0354
  -2985559.33647  -2312809.88444  22719419.9614                   22719419.3754
    389738.89548    299773.98046  20749823.5394                   20749822.5514
   -154022.83647   -123607.44546  21185378.6644                   21185375.9494
   1328778.62147   1018604.65144  22377986.5164                   22377984.7234
  -2319626.38347  -1806263.52344  23028123.9304                   23028123.5704
 11  8 18 17 25 30.0000000  0 10G03G24G07G08G10G11G13G19G23G28
   2824098.90646   2187163.59943  23201051.4454                   23201054.0164
   1049410.05146    838885.12243  24482680.2034                   24482683.9804
   -785648.72747   -598827.42846  21017805.2194                   21017803.6954
  -1504574.66447  -1138055.82645  22442087.9924                   22442088.1684
   1678157.12546   1301637.60242  25063056.3984                   25063056.7234
  -1536609.65246  -1183758.15944  22995145.7424                   22995144.9804
   1980471.24648   1539305.65446  21052530.4224                   21052529.1564
   1415338.56347   1099271.53246  21484017.9064                   21484015.2274
   2954625.08647   2285497.90044  22687374.4844                   22687373.0044
   -844238.09447   -656610.27744  23308880.7344                   23308879.7234
 11  8 18 17 26  0.0000000  0  9G03G24G07G08G11G13G19G23G28
   2869488.54546   2222532.02743  23209690.3984                   23209689.7624
    921364.63346    739109.69343  24458313.1564                   24458316.7774
   -882551.51647   -674336.10146  20999365.2814                   20999363.7034
  -1632041.03947  -1237380.24144  22417832.3134                   22417831.7704
  -1663311.24247  -1282486.63444  22971035.9844                   22971034.5904
   1995825.69148   1551270.11946  21055452.0944                   21055450.6724
   1409384.96147   1094632.35046  21482884.9694                   21482882.2194
   3004842.88347   2324628.55344  22696930.8674                   22696928.8954
   -944516.00447   -734748.85544  23289798.8054                   23289797.7234
 11  8 18 17 26 30.0000000  0  9G03G24G07G08G11G13G19G23G28
   2914693.05146   2257756.30943  23218291.8914                   23218293.7584
    792831.01646    638953.69343  24433854.6724                   24433858.4184
   -979670.15647   -750012.97146  20980884.1334                   20980882.8054
  -1759906.72747  -1337015.82844  22393500.1724                   22393499.4574
  -1790226.63346  -1381381.69044  22946884.0394                   22946884.0984
   2011229.85248   1563273.32646  21058383.6644                   21058382.2734
   1403544.75447   1090081.49746  21481773.5634                   21481770.9614
   3054857.70747   2363601.05244  22706448.5234                   22706446.5704
  -1045027.23047   -813069.27544  23270671.6254                   23270671.2274
 11  8 18 17 27  0.0000000  0  9G03G24G07G08G11G13G19G23G28
   2959723.20346   2292844.58243  23226860.7894                   23226862.9694
    663825.62546    538430.21243  24409305.3284                   24409309.4414
  -1076990.19147   -825846.75946  20962364.8834                   20962363.1484
  -1888156.57047  -1436950.74244  22369094.5554                   22369094.4734
  -1917339.37946  -1480430.54344  22922695.2504                   22922694.8284
   2026694.93448   1575324.00346  21061326.2344                   21061325.2154
   1397829.57047   1085628.09946  21480686.3754                   21480683.6094
   3104679.96547   2402423.47244  22715929.2974                   22715927.9144
  -1145758.92247   -891561.49244  23251502.7274                   23251502.1604
 11  8 18 17 27 30.0000000  0  9G03G24G07G08G11G13G19G23G28
   3004587.73846   2327803.90843  23235399.1484                   23235398.8954
    534362.82046    437550.18843  24384669.6804                   24384673.6024
  -1174497.62148   -901826.58046  20943809.9064                   20943808.0434
  -2016777.96547  -1537175.18045  22344618.8444                   22344618.7384
  -2044634.71547  -1579621.66844  22898471.6644                   22898471.4184
   2042230.26248   1587429.42345  21064282.4924                   21064281.4414
   1392249.07047   1081279.62246  21479624.4614                   21479621.8524
   3154318.57847   2441102.84644  22725375.7344                   22725373.7544
  -1246700.12947   -970216.94344  23232294.3984                   23232294.0274
 11  8 18 17 28  0.0000000  0  9G03G24G07G08G11G13G19G23G28
   3049289.29746   2362636.25943  23243903.6954                   23243905.0824
    404450.54346    336320.03942  24359947.7194                   24359951.2154
  -1272185.46547   -977946.96846  20925220.3674                   20925218.8914
  -2145763.84047  -1637683.63644  22320074.1094                   22320072.9804
  -2172104.19547  -1678948.50144  22874215.5004                   22874214.4224
   2057838.32848   1599591.51645  21067252.5314                   21067251.5084
   1386806.49647   1077038.63146  21478588.5314                   21478585.8984
   3203775.94147   2479640.93344  22734786.7584                   22734785.1254
  -1347846.23447  -1049032.06344  23213047.1094                   23213046.1684
 11  8 18 17 28 30.0000000  0  9G03G24G07G08G11G13G19G23G28
   3093834.50446   2397346.67643  23252382.4614                   23252382.4534
    274101.16046    234749.20342  24335143.2114                   24335146.7894
  -1370042.16447  -1054198.94146  20906599.0394                   20906597.7384
  -2275102.98447  -1738467.35645  22295461.2344                   22295460.6844
  -2299735.34846  -1778401.31544  22849927.7894                   22849926.8204
   2073526.86347   1611816.31046  21070238.1024                   21070236.8484
   1381509.43447   1072911.03946  21477580.6724                   21477578.2304
   3253058.77047   2518043.01944  22744165.3134                   22744163.5664
  -1449188.54747  -1128000.09944  23193761.4774                   23193761.7704
 11  8 18 17 29  0.0000000  0  9G03G24G07G08G11G13G19G23G28
   3138220.58246   2431933.19142  23260827.4924                   23260828.1134
    143317.66046    132840.14842  24310255.6414                   24310259.1884
  -1468065.76248  -1130580.96746  20887945.5784                   20887943.9614
  -2404793.64547  -1839525.00745  22270782.4144                   22270781.0274
  -2427525.03947  -1877977.66644  22825609.4774                   22825610.2504
   2089293.76248   1624102.16645  21073238.3134                   21073237.5164
   1376356.18847   1068895.48445  21476599.6024                   21476597.3134
   3302164.23047   2556306.94744  22753509.7194                   22753507.5204
  -1550727.88347  -1207121.63844  23174439.6644                   23174439.3524
 11  8 18 17 29 30.0000000  0  9G03G24G07G08G11G13G19G23G28
   3182449.58246   2466397.25442  23269245.0394                   23269244.9654
     12107.34846     30598.51243  24285287.1804                   24285291.0474
  -1566250.04747  -1207088.19146  20869261.8444                   20869259.9534
  -2534829.92647  -1940851.95045  22246036.8834                   22246036.2034
  -2555465.16047  -1977671.20644  22801263.8834                   22801263.9614
   2105141.20748   1636450.79145  21076254.0944                   21076252.8404
   1371349.02347   1064993.78545  21475647.1564                   21475644.3984
   3351094.05147   2594433.97744  22762820.6804                   22762818.7114
  -1652459.61747  -1286393.09044  23155081.2894                   23155080.5204
 11  8 18 17 30  0.0000000  0  9G03G24G07G08G11G13G19G23G28
   3226524.63346   2500741.39343  23277632.6334                   23277633.2074
   -119520.86746    -71968.89443  24260238.9144                   24260241.8674
  -1664586.71948  -1283714.18446  20850548.8834                   20850547.2194
  -2665204.41047  -2042442.45145  22221227.1094                   22221226.6214
  -2683546.94147  -2077475.15344  22776890.5474                   22776890.8054
   2121072.69147   1648864.90045  21079285.8984                   21079284.6484
   1366491.92647   1061209.00446  21474723.1804                   21474720.4024
   3399851.20747   2632426.42344  22772099.3524                   22772097.4804
  -1754379.05147  -1365810.79544  23135686.3594                   23135685.8794
 11  8 18 17 30 30.0000000  0  9G03G24G07G08G11G13G19G23G28
   3270446.72746   2534966.26843  23285989.7194                   23285990.8284
   -251560.17245   -174856.45342  24235112.3754                   24235115.3094
  -1763069.95348  -1360454.36446  20831807.9844                   20831806.9224
  -2795911.35247  -2144292.00645  22196354.9774                   22196354.3834
  -2811763.43447  -2177384.08344  22752492.1254                   22752491.2704
   2137089.88747   1661345.78845  21082333.7274                   21082332.7854
   1361786.99647   1057542.79345  21473827.6954                   21473825.1724
   3448436.74247   2670285.20044  22781344.7194                   22781343.0124
  -1856482.84047  -1445372.20244  23116257.1174                   23116255.9184
 11  8 18 17 31  0.0000000  0  9G03G24G07G08G11G13G19G23G28
   3314215.27347   2569071.57243  23294319.7274                   23294319.6604
   -384005.69546   -278060.62142  24209908.4774                   24209912.4064
  -1861696.09047  -1437305.89946  20813040.1884                   20813038.7114
  -2926947.06647  -2246397.74345  22171419.6024                   22171418.7424
  -2940109.32847  -2277393.84344  22728068.7584                   22728067.4224
   2153192.41847   1673893.19545  21085398.2034                   21085396.8984
   1357234.05947   1053995.04046  21472961.6724                   21472958.7734
   3496850.01647   2708009.74244  22790557.7894                   22790555.5904
  -1958769.52347  -1525076.08244  23096792.1954                   23096791.9804
 11  8 18 17 31 30.0000000  0  9G03G24G07G08G11G13G19G23G28
   3357838.97747   2603063.98644  23302620.8284                   23302622.5084
   -516842.93745   -381570.03542  24184629.8204                   24184634.0044
  -1960451.56247  -1514258.21446  20794247.3674                   20794245.8834
  -3058298.17647  -2348749.23345  22146424.2424                   22146423.6484
  -3068570.14147  -2377493.10344  22703623.4384                   22703622.7154
   2169389.37548   1686514.14646  21088480.5164                   21088479.0864
   1352842.68447   1050573.14345  21472125.6884                   21472122.9804
   3545099.46547   2745606.60344  22799738.9144                   22799737.3284
  -2061228.12147  -1604913.92844  23077294.9454                   23077293.9804
 11  8 18 17 32  0.0000000  0  9G03G24G07G08G11G13G19G23G28
   3401320.68046   2636945.71043  23310894.5784                   23310896.3794
   -650063.79745   -485378.36243  24159278.8054                   24159282.6764
  -2059328.75447  -1591305.38746  20775431.9304                   20775430.5434
  -3189958.06647  -2451341.33845  22121370.0474                   22121369.6524
  -3197137.25447  -2477675.23144  22679157.8054                   22679157.1764
   2185684.15647   1699211.35345  21091581.2344                   21091580.5274
   1348615.93447   1047279.54746  21471321.4384                   21471318.8094
   3593188.10547   2783078.17244  22808890.1414                   22808888.3874
  -2163854.02047  -1684882.11344  23057766.1954                   23057765.6524
 11  8 18 17 32 30.0000000  0  9G03G24G07G08G11G13G19G23G28
   3444661.18447   2670717.47844  23319142.8594                   23319143.5164
   -783661.52345   -589480.38742  24133856.0164                   24133859.7974
  -2158322.02347  -1668443.00546  20756594.4454                   20756592.5824
  -3321921.21147  -2554169.74345  22096258.6644                   22096258.3674
  -3325803.77047  -2577934.82344  22654673.0864                   22654672.8164
   2202077.87147   1711985.64345  21094700.5084                   21094699.6724
   1344555.65247   1044115.67045  21470548.6254                   21470545.9774
   3641116.67647   2820424.99844  22818010.9534                   22818009.4264
  -2266644.49646  -1764978.55044  23038205.2424                   23038204.7304
 11  8 18 17 33  0.0000000  0  9G03G24G07G08G11G13G19G23G28
   3487870.83246   2704387.24543  23327364.6564                   23327366.5084
   -917619.80545   -693863.28942  24108363.9384                   24108368.3834
  -2257416.59847  -1745659.54646  20737737.0554                   20737735.5704
  -3454172.49647  -2657222.67545  22071091.6564                   22071091.2154
  -3454553.44547  -2678259.16844  22630172.9454                   22630172.1414
   2218581.37547   1724845.47245  21097841.2194                   21097840.0124
   1340673.19147   1041090.35746  21469810.2734                   21469807.2894
   3688895.24247   2857654.92044  22827103.1094                   22827101.4224
  -2369586.61347  -1845193.19344  23018616.3754                   23018615.4774
 11  8 18 17 33 30.0000000  0  9G03G24G07G08G11G13G19G23G28
   3530954.50846   2737958.73743  23335563.2344                   23335565.6484
  -1051928.54346   -798519.32143  24082806.6094                   24082810.3834
  -2356602.84848  -1822947.53746  20718862.7974                   20718861.0514
  -3586703.24647  -2760493.37845  22045872.0634                   22045871.3954
  -3583375.93047  -2778640.31044  22605658.6484                   22605658.1174
   2235199.62147   1737794.71745  21101003.9924                   21101002.6024
   1336973.44147   1038207.40745  21469106.0784                   21469103.4224
   3736528.45347   2894771.60744  22836167.0474                   22836165.5124
  -2472673.87947  -1925520.86544  22998999.1884                   22998998.7624
 11  8 18 17 34  0.0000000  0  9G03G24G07G08G11G13G19G23G28
   3573919.59046   2771437.99243  23343739.3754                   23343741.1294
  -1186574.71946   -903438.33243  24057184.5004                   24057188.3634
  -2455868.83247  -1900297.64846  20699972.8754                   20699971.2464
  -3719501.59847  -2863972.57845  22020601.2734                   22020600.6334
  -3712258.07047  -2879067.90144  22581132.9774                   22581132.1174
   2251940.13747   1750839.24045  21104189.6724                   21104188.9024
   1333464.29347   1035472.96645  21468438.4534                   21468435.4224
   3784023.46547   2931780.57444  22845205.1724                   22845204.0984
  -2575896.93747  -2005954.38144  22979356.8914                   22979355.9344
 11  8 18 17 34 30.0000000  0  9G03G24G07G08G11G13G19G23G28
   3616773.45346   2804830.52843  23351893.9844                   23351895.5944
  -1321545.12546  -1008609.95443  24031499.9694                   24031503.2774
  -2555202.04747  -1977700.15446  20681070.3594                   20681068.7814
  -3852555.37547  -2967650.82345  21995281.8444                   21995281.3834
  -3841186.12147  -2979531.27444  22556598.8674                   22556597.8524
   2268811.02348   1763985.33645  21107399.7274                   21107399.1024
   1330154.17647   1032893.60745  21467807.9924                   21467805.4574
   3831388.11347   2968687.96744  22854218.6644                   22854217.0004
  -2679246.30547  -2086486.34444  22959690.0084                   22959689.3204
 11  8 18 17 35  0.0000000  0  9G03G24G07G08G11G13G19G23G28
   3659514.59046   2838135.21543  23360027.8204                   23360029.5354
  -1456835.54746  -1114030.96343  24005755.5704                   24005759.1214
  -2654599.78947  -2055152.93546  20662155.5704                   20662153.9574
  -3985861.91047  -3071526.03945  21969914.7424                   21969914.0594
  -3970156.16447  -3080027.37644  22532056.8204                   22532056.3164
   2285810.88748   1777231.95845  21110634.9844                   21110633.9654
   1327041.83647   1030468.37045  21467215.8524                   21467213.2774
   3878620.32847   3005492.20844  22863206.5944                   22863204.8244
  -2782721.30547  -2167116.17644  22939999.4224                   22939997.9384
 11  8 18 17 35 30.0000000  0  9G03G24G07G08G11G13G19G23G28
   3702134.55946   2871345.50943  23368138.2504                   23368139.9964
  -1592449.13346  -1219703.80343  23979948.8674                   23979952.0904
  -2754065.69547  -2132658.84246  20643227.9534                   20643226.4384
  -4119425.36347  -3175601.42845  21944497.8284                   21944497.2934
  -4099170.93047  -3180558.30944  22507505.8364                   22507505.4654
   2302931.15247   1790572.37645  21113892.6954                   21113891.5824
   1324119.34447   1028191.07345  21466660.1254                   21466657.3674
   3925711.28147   3042186.34144  22872168.3134                   22872166.0354
  -2886328.71947  -2247849.18144  22920283.3284                   22920282.6684
 11  8 18 17 36  0.0000000  0  9G03G24G07G08G11G13G19G23G28
   3744623.23846   2904453.50842  23376223.1334                   23376224.5634
  -1728390.13746  -1325631.72643  23954079.2974                   23954083.8834
  -2853604.95747  -2210221.90046  20624285.7814                   20624284.7854
  -4253251.34447  -3279881.40645  21919031.3834                   21919031.4454
  -4228234.63347  -3281127.37944  22482945.5784                   22482944.5234
   2320162.08647   1803999.03845  21117171.9694                   21117170.7304
   1321377.03947   1026054.17145  21466138.1564                   21466135.6604
   3972650.99647   3078762.59344  22881100.0784                   22881099.0234
  -2990076.49247  -2328691.56444  22900541.3754                   22900540.5004
 11  8 18 17 36 30.0000000  0  9G03G24G07G08G11G13G19G23G28
   3786978.96146   2937457.89943  23384283.7504                   23384285.3754
  -1864654.23446  -1431811.50743  23928149.6094                   23928153.0864
  -2953214.40647  -2287839.66246  20605331.1804                   20605329.5354
  -4387336.35547  -3384363.21245  21893516.0474                   21893515.7074
  -4357342.68047  -3381731.04444  22458377.3204                   22458376.7584
   2337502.61747   1817511.10145  21120471.8054                   21120470.4494
   1318813.99647   1024056.95045  21465650.0554                   21465648.0864
   4019438.03947   3115219.93044  22890003.5944                   22890002.0864
  -3093964.10947  -2409642.93644  22880771.4774                   22880770.5594
 11  8 18 17 37  0.0000000  0  9G03G24G07G08G11G13G19G23G28
   3829197.63746   2970355.45843  23392317.3594                   23392319.2624
  -2001240.48446  -1538242.15843  23902157.8054                   23902161.3014
  -3052894.20748  -2365512.21746  20586362.5314                   20586361.0474
  -4521680.84047  -3489047.21045  21867951.2194                   21867950.9494
  -4486494.16847  -3482368.54044  22433801.3204                   22433799.9144
   2354948.20347   1831105.04345  21123791.3984                   21123790.2814
   1316426.26247   1022196.35545  21465195.9384                   21465193.2814
   4066067.38747   3151554.37544  22898877.0234                   22898875.4844
  -3197994.34047  -2490705.43744  22860975.2894                   22860974.4224
 11  8 18 17 37 30.0000000  0  9G03G24G07G08G11G13G19G23G28
   3871275.30546   3003143.17543  23400325.1484                   23400326.5824
  -2138146.96546  -1644922.44843  23876105.6024                   23876108.6524
  -3152643.32847  -2443238.81646  20567380.7034                   20567379.3094
  -4656284.43447  -3593933.09745  21842337.2274                   21842337.0394
  -4615687.02347  -3583038.26944  22409216.0864                   22409215.8594
   2372495.25447   1844778.02945  21127130.4304                   21127129.3324
   1314210.19547   1020469.50546  21464774.2974                   21464772.1524
   4112535.25447   3187762.99944  22907719.6644                   22907718.1094
  -3302168.96547  -2571880.43344  22841151.7424                   22841150.7384
 11  8 18 17 38  0.0000000  0  9G03G24G07G08G11G13G19G23G28
   3913205.58146   3035816.04743  23408304.0234                   23408305.7894
  -2275374.02046  -1751852.54243  23849992.5394                   23849995.8404
  -3252463.11747  -2521020.46446  20548386.4384                   20548384.4144
  -4791148.73847  -3699022.13945  21816673.4454                   21816672.9454
  -4744921.76647  -3683740.61244  22384624.1724                   22384623.0784
   2390137.94547   1858525.52645  21130487.8444                   21130486.8984
   1312160.31347   1018872.17645  21464384.5234                   21464381.4064
   4158835.29346   3223840.81944  22916530.1804                   22916528.6334
  -3406492.12147  -2653171.17644  22821299.5864                   22821299.1764
 11  8 18 17 38 30.0000000  0  9G03G24G07G08G11G13G19G23G28
   3954992.88346   3068377.42343  23416255.7114                   23416258.2894
  -2412911.95746  -1859024.83243  23823819.1954                   23823822.6954
  -3352345.04347  -2598850.53646  20529378.9774                   20529377.4534
  -4926265.07447  -3804307.56845  21790961.5234                   21790961.1174
  -4874188.20347  -3784467.68344  22360024.8364                   22360024.3834
   2407880.41047   1872350.78945  21133863.9064                   21133863.1724
   1310281.32047   1017407.99645  21464026.5474                   21464024.2384
   4204971.43447   3259790.93044  22925309.7584                   22925308.2234
  -3510957.68447  -2734572.86844  22801420.0314                   22801419.2584
 11  8 18 17 39  0.0000000  0  9G03G24G07G08G11G13G19G23G28
   5572054.67646   4328425.52443  23723973.4384                   23723974.5434
   -975331.57846   -738832.34543  24097381.7114                   24097384.2974
  -1876862.00847  -1449123.49846  20810154.1484                   20810152.5904
  -3486205.09847  -2682182.89945  22064995.5864                   22064994.9384
  -3428057.52047  -2657612.57644  22635214.6804                   22635213.9694
   4001141.12547   3113852.60545  21437051.3984                   21437050.4144
   2883992.30547   2243676.26845  21763493.9304                   21763491.2344
   5826360.99247   4523211.25844  23233849.4924                   23233848.6914
  -2040140.88347  -1588481.83744  23081307.2424                   23081306.2734
 11  8 18 17 39 30.0000000  0  9G03G24G07G08G11G13G19G23G28
   5613554.37546   4360762.94743  23731869.6334                   23731870.5594
  -1113475.62946   -846476.90943  24071093.3674                   24071096.9574
  -1976855.18447  -1527040.25646  20791126.4534                   20791124.9064
  -3621813.22347  -2787851.54645  22039190.0474                   22039189.3634
  -3557372.13347  -2758377.20145  22610607.0004                   22610606.7154
   4019081.99247   3127832.44245  21440465.2344                   21440464.3754
   2882454.57847   2242478.00345  21763201.4924                   21763199.2344
   5872167.48046   4558904.49044  23242566.7734                   23242565.6914
  -2144887.14847  -1670102.26944  23061375.2584                   23061374.0824
 11  8 18 17 40  0.0000000  0  9G03G24G07G08G11G13G19G23G28
   5654914.65846   4392991.56243  23739740.3284                   23739741.6684
  -1251910.23046   -954348.00343  24044749.6414                   24044753.5354
  -2076893.24647  -1604991.98946  20772089.6884                   20772087.9414
  -3757656.34047  -2893703.29045  22013340.4384                   22013339.9614
  -3686698.15247  -2859150.67644  22585997.1564                   22585996.7584
   4037126.29747   3141892.91645  21443899.1564                   21443898.3834
   2881091.62147   2241415.93345  21762942.3754                   21762939.8244
   5917812.90247   4594472.23644  23251253.0234                   23251251.7194
  -2249766.73447  -1751826.58944  23041416.7424                   23041416.1024
 11  8 18 17 40 30.0000000  0  9G03G24G07G08G11G13G19G23G28
   5696137.63346   4425113.35543  23747585.3054                   23747586.4884
  -1390627.32446  -1062439.16543  24018353.4304                   24018356.3484
  -2176968.99247  -1682973.08246  20753045.4694                   20753044.1254
  -3893727.61347  -2999732.84745  21987446.7734                   21987446.3324
  -3816027.43447  -2959926.69544  22561386.3524                   22561385.8524
   4055276.45747   3156035.86545  21447352.9694                   21447351.9734
   2879906.70347   2240492.59645  21762716.9694                   21762714.1254
   5963299.40246   4629916.12644  23259908.6564                   23259907.4344
  -2354775.34047  -1833651.46544  23021434.1724                   23021433.4574
 11  8 18 17 41  0.0000000  0  9G03G24G07G08G11G13G19G23G28
   5737221.43046   4457126.67743  23755403.4614                   23755404.6294
  -1529622.95746  -1170747.28142  23991902.7424                   23991906.8014
  -2277079.27747  -1760981.09946  20733995.4614                   20733993.6644
  -4030024.25447  -3105938.01945  21961510.3134                   21961509.5634
  -3945355.84447  -3060702.02944  22536775.2894                   22536775.3094
   4073530.89547   3170260.05045  21450826.8834                   21450825.8874
   2878898.32447   2239706.82545  21762525.3834                   21762522.1174
   6008625.39146   4665234.94843  23268533.5634                   23268532.7664
  -2459912.73447  -1915576.67444  23001427.4534                   23001426.7704
 11  8 18 17 41 30.0000000  0  9G03G24G07G08G11G13G19G23G28
   5778164.66845   4489030.33743  23763192.7664                   23763196.1334
  -1668893.05146  -1279269.30343  23965401.8134                   23965404.0234
  -2377220.96947  -1839013.58946  20714939.0474                   20714937.4884
  -4166543.48447  -3212316.60345  21935531.6024                   21935531.3834
  -4074679.31647  -3161473.52044  22512165.7584                   22512166.0474
   4091887.95347   3184564.21345  21454320.0784                   21454318.9414
   2878064.97747   2239057.44545  21762366.8524                   21762364.0984
   6053788.87546   4700427.12344  23277128.3754                   23277127.2274
  -2565178.66047  -1997602.03944  22981395.9384                   22981395.6094
 11  8 18 17 42  0.0000000  0  9G03G24G07G08G11G13G19G23G28
   5818966.00446   4520823.46443  23770958.7814                   23770960.7664
  -1808433.36346  -1388002.04543  23938847.1094                   23938849.9774
  -2477391.28147  -1917068.38346  20695877.1564                   20695875.7814
  -4303282.39847  -3318866.40145  21909511.2344                   21909510.4104
  -4203993.91447  -3262238.09144  22487558.2734                   22487557.7934
   4110346.12147   3198947.16445  21457832.5944                   21457831.9064
   2877405.37947   2238543.45445  21762240.6024                   21762238.3914
   6098787.98847   4735491.23943  23285692.1644                   23285689.9884
  -2670572.87547  -2079727.39344  22961340.1174                   22961339.2114
 11  8 18 17 42 30.0000000  0  9G03G24G07G08G11G13G19G23G28
   5859630.32446   4552509.84843  23778695.1884                   23778698.5664
  -1948232.88346  -1496936.63143  23912244.3444                   23912247.6094
  -2577580.46547  -1995137.87346  20676811.8284                   20676810.4064
  -4440231.07847  -3425579.65445  21883450.9844                   21883449.7234
  -4333288.95347  -3362987.43744  22462954.2194                   22462953.6954
   4128910.55147   3213412.89745  21461365.1804                   21461364.1054
   2876925.14847   2238169.23145  21762149.8204                   21762147.1174
   6143627.89147   4770431.31343  23294224.2424                   23294223.2424
  -2776088.25047  -2161947.10944  22941261.0394                   22941260.0234
 11  8 18 17 43  0.0000000  0  9G03G24G07G08G11G13G19G23G28
   5900155.74646   4584087.93443  23786409.0004                   23786410.7274
  -2088288.04746  -1606070.43043  23885592.6804                   23885595.4454
  -2677785.84847  -2073219.99646  20657743.2034                   20657741.9344
  -4577387.37547  -3532454.65545  21857350.6254                   21857350.0704
  -4462560.81247  -3463718.70544  22438355.0474                   22438354.3444
   4147579.10247   3227959.78045  21464918.0634                   21464916.9964
   2876622.47747   2237933.35445  21762092.1094                   21762089.2304
   6188306.23447   4805245.48644  23302726.5084                   23302724.8914
  -2881725.00047  -2244261.47044  22921159.3134                   22921158.6024
 11  8 18 17 43 30.0000000  0  9G03G24G07G08G11G13G19G23G28
   5940542.25446   4615557.87743  23794094.1484                   23794095.2624
  -2228593.49646  -1715399.31143  23858893.2974                   23858896.3954
  -2778002.77047  -2151311.10146  20638672.9614                   20638671.3554
  -4714746.73847  -3639487.94545  21831211.8204                   21831211.5124
  -4591803.58247  -3564427.33044  22413760.5234                   22413759.7854
   4166351.59047   3242587.64245  21468490.4534                   21468489.3244
   2876497.35247   2237835.84445  21762067.7504                   21762065.3674
   6232822.87547   4839933.62644  23311198.1414                   23311196.6564
  -2987481.65647  -2326669.22244  22901034.3754                   22901033.5314
 11  8 18 17 44  0.0000000  0  9G03G24G07G08G11G13G19G23G28
   5980790.97346   4646920.39743  23801753.3834                   23801755.2814
  -2369142.22746  -1824917.71043  23832147.4844                   23832151.0904
  -2878225.44947  -2229406.69746  20619601.0864                   20619599.8054
  -4852303.30547  -3746674.86845  21805035.8444                   21805035.2154
  -4721010.50047  -3665108.01244  22389173.2814                   22389171.7194
   4185229.34447   3257297.53345  21472082.6094                   21472081.4804
   2876551.25447   2237877.80645  21762078.0554                   21762075.7704
   6277178.57446   4874496.37544  23319638.4924                   23319638.0664
  -3093354.95747  -2409167.87544  22880887.0704                   22880886.0744
 11  8 18 17 44 30.0000000  0  9G03G24G07G08G11G13G19G23G28
   6020907.49246   4678179.90143  23809387.0704                   23809389.5704
  -2509922.96546  -1934616.87543  23805358.2344                   23805361.4454
  -2978443.46147  -2307498.65246  20600530.3984                   20600528.6524
  -4990046.77747  -3854007.42045  21778824.4064                   21778823.2034
  -4850170.31647  -3765751.97744  22364595.1334                   22364594.0124
   4204217.92247   3272093.78345  21475695.7894                   21475695.2114
   2876790.09047   2238063.88745  21762123.3754                   21762120.7074
   6321378.68047   4908937.87444  23328050.1484                   23328049.6024
  -3199337.46547  -2491751.63144  22860719.7734                   22860718.3754
 11  8 18 17 45  0.0000000  0  9G03G24G07G08G11G13G19G23G28
   6060890.14146   4709335.16943  23816995.9924                   23816997.6954
  -2650931.75846  -2044493.77243  23778525.0864                   23778527.8324
  -3078654.39147  -2385585.09146  20581460.9224                   20581459.0514
  -5127974.70747  -3961483.72645  21752577.2194                   21752576.7114
  -4979279.45747  -3866356.48844  22340026.6954                   22340025.4774
   4223315.56647   3286975.02445  21479330.2034                   21479329.4454
   2877212.11347   2238392.69345  21762204.3914                   21762201.6564
   6365421.27347   4943256.59744  23336431.2814                   23336429.9144
  -3305428.99247  -2574420.32444  22840530.8134                   22840529.9494
 11  8 18 17 45 30.0000000  0  9G03G24G07G08G11G13G19G23G28
   6100742.08246   4740388.62843  23824579.5634                   23824581.0634
  -2792159.85947  -2154541.55043  23751649.4694                   23751653.2814
  -3178850.23047  -2463659.77846  20562394.3444                   20562392.4144
  -5266079.22347  -4069097.61945  21726296.7424                   21726296.5044
  -5108329.02047  -3966914.55444  22315469.3914                   22315468.2194
   4242525.06647   3301943.42245  21482985.7504                   21482984.5984
   2877820.58647   2238866.81645  21762320.1024                   21762316.9654
   6409309.19146   4977454.84343  23344782.6564                   23344782.1684
  -3411624.72747  -2657170.23244  22820322.7194                   22820321.2274
 11  8 18 17 46  0.0000000  0  9G03G24G07G08G11G13G19G23G28
   6140466.43846   4771342.53143  23832138.4774                   23832141.0084
  -2933598.47346  -2264753.41443  23724735.4384                   23724738.4344
  -3279023.16447  -2541716.61046  20543331.8674                   20543330.1684
  -5404352.77347  -4176843.21845  21699983.9844                   21699984.0314
  -5237310.12547  -4067419.29845  22290924.7734                   22290924.3204
   4261849.75847   3317001.57145  21486663.2034                   21486662.5044
   2878619.06347   2239488.97745  21762471.8984                   21762469.6804
   6453045.91847   5011535.19844  23353105.8284                   23353104.5434
  -3517919.75047  -2739997.48144  22800095.3834                   22800094.2504
 11  8 18 17 46 30.0000000  0  9G03G24G07G08G11G13G19G23G28
   6180066.20246   4802199.32043  23839674.6484                   23839676.4884
  -3075239.02346  -2375122.56443  23697781.6954                   23697785.3834
  -3379165.86747  -2619749.87546  20524275.2974                   20524273.9494
  -5542787.69547  -4284714.56745  21673641.0704                   21673640.5554
  -5366214.62147  -4167864.30644  22266395.0864                   22266394.2664
   4281292.19547   3332151.46045  21490362.7194                   21490362.0944
   2879610.05947   2240261.14545  21762660.4064                   21762657.7854
   6496633.59046   5045499.50043  23361400.6644                   23361399.5744
  -3624309.52347  -2822898.61544  22779849.9454                   22779849.1214
 11  8 18 17 47  0.0000000  0  9G03G24G07G08G11G13G19G23G28
   6219540.68046   4832958.69942  23847185.9144                   23847188.3134
  -3217076.26646  -2485645.02143  23670790.9064                   23670794.1764
  -3479274.18447  -2697756.35646  20505225.1724                   20505223.4924
  -5681379.98447  -4392708.53545  21647267.6174                   21647267.3244
  -5495037.37947  -4268245.63944  22241880.6414                   22241880.0594
   4300851.74247   3347392.61745  21494085.0554                   21494084.1884
   2880793.63747   2241183.37545  21762885.8674                   21762883.2304
   6540071.91446   5079347.39043  23369666.3914                   23369664.8524
  -3730792.23447  -2905872.09744  22759586.7034                   22759585.7154
 11  8 18 17 47 30.0000000  0  9G03G24G07G08G11G13G19G23G28
   6258894.79746   4863624.19942  23854674.7424                   23854676.6604
  -3359100.03146  -2596312.77543  23643764.2194                   23643767.5594
  -3579338.85947  -2775728.82746  20486183.4774                   20486181.9964
  -5820120.79347  -4500818.23345  21620866.3754                   21620865.5354
  -5623768.48047  -4368555.56944  22217384.3524                   22217383.4574
   4320532.28947   3362728.05145  21497830.1094                   21497829.3524
   2882174.47747   2242259.31945  21763148.1334                   21763145.7464
   6583364.89146   5113082.05543  23377904.6484                   23377903.4614
  -3837361.86347  -2988913.32044  22739307.6414                   22739306.7194
 11  8 18 17 48  0.0000000  0  9G03G24G07G08G11G13G19G23G28
   6298134.51646   4894200.44443  23862142.3284                   23862144.1844
  -3501298.66446  -2707116.81543  23616705.3984                   23616707.1884
  -3679349.49247  -2853659.18746  20467152.2734                   20467150.4494
  -5958999.40247  -4609035.31345  21594438.4064                   21594437.8754
  -5752396.19547  -4468784.93044  22192907.3134                   22192906.3484
   4340340.50447   3378162.96645  21501599.6094                   21501598.9414
   2883758.34047   2243493.47945  21763449.9454                   21763447.3484
   6626518.06346   5146707.67343  23386115.6644                   23386115.2584
  -3944010.80147  -3072016.37744  22719013.1644                   22719011.9224
 11  8 18 17 48 30.0000000  0  9G03G24G07G08G11G13G19G23G28
   6337254.97346   4924683.84643  23869587.2894                   23869588.8674
  -3643671.31246  -2818056.44843  23589612.6174                   23589615.0474
  -3779306.44947  -2931547.73546  20448131.1564                   20448129.3594
  -6098015.76647  -4717359.74245  21567984.3594                   21567983.5434
  -5880919.97347  -4568933.27844  22168449.5784                   22168449.5124
   4360270.84847   3393693.04445  21505392.5474                   21505391.4344
   2885540.48047   2244882.11445  21763789.2894                   21763786.6644
   6669526.53146   5180220.62244  23394301.3444                   23394299.5944
  -4050742.18747  -3155183.64644  22698702.0634                   22698701.6564
 11  8 18 17 49  0.0000000  0  9G03G24G07G08G11G13G19G23G28
   6376264.62146   4955080.93643  23877010.0944                   23877011.8204
  -3786203.89546  -2929120.67743  23562489.4924                   23562491.9804
  -3879196.76647  -3009384.35446  20429122.5164                   20429120.6524
  -6237156.93447  -4825781.41845  21541507.0634                   21541506.3134
  -6009325.79746  -4668989.72844  22144014.4774                   22144014.3634
   4380331.96147   3409325.02345  21509209.9774                   21509208.8164
   2887529.34447   2246431.85145  21764167.3204                   21764164.5664
   6712398.40647   5213627.07843  23402460.3204                   23402458.5984
  -4157545.44147  -3238406.92944  22678378.6484                   22678377.2974
 11  8 18 17 49 30.0000000  0  9G03G24G07G08G11G13G19G23G28
   6415163.41446   4985391.59743  23884412.3984                   23884412.9414
  -3928891.06646  -3040305.44543  23535336.4774                   23535338.9224
  -3979015.64847  -3087165.28746  20410127.6414                   20410125.8984
  -6376418.81247  -4934297.14645  21515005.8754                   21515005.1884
  -6137608.46947  -4768950.22045  22119603.1884                   22119602.6804
   4400523.07047   3425058.30645  21513052.1954                   21513051.5864
   2889725.05547   2248142.75845  21764585.4844                   21764582.7234
   6755133.41047   5246926.92943  23410592.3834                   23410590.6374
  -4264419.05947  -3321685.05244  22658040.7274                   22658040.2074
 11  8 18 17 50  0.0000000  0  9G03G24G07G08G11G13G19G23G28
   6453946.27046   5015611.96843  23891792.3444                   23891793.7774
  -4071731.95346  -3151609.92043  23508154.8204                   23508157.3914
  -4078763.97747  -3164891.25746  20391146.2664                   20391144.5234
  -6515801.48447  -5042907.00745  21488482.5394                   21488481.9384
  -6265767.12547  -4868814.04645  22095215.2424                   22095214.8324
   4420839.23447   3440889.01945  21516918.2424                   21516917.0904
   2892122.55147   2250010.90145  21765041.7664                   21765038.7074
   6797726.31647   5280116.05043  23418697.2344                   23418695.8714
  -4371366.74647  -3405020.87944  22637689.7274                   22637688.5084
 11  8 18 17 50 30.0000000  0  9G03G24G07G08G11G13G19G23G28
   8068040.31346   6273347.53443  24198944.5474                   24198946.1994
  -2639287.41446  -2035419.29743  23780739.2734                   23780742.6884
  -2603005.10947  -2014949.29446  20671973.7584                   20671972.0044
  -5079867.53547  -3923997.39045  21761731.4614                   21761731.0594
  -4818363.77746  -3740967.23944  22370647.7344                   22370647.1374
   6016707.82447   4684422.94045  21820601.9064                   21820600.8444
   4470149.93847   3479642.58545  22065330.7274                   22065327.9654
   8415604.12146   6540799.92243  23726569.3204                   23726568.2664
  -2902954.21947  -2260803.30244  22917118.8134                   22917117.7854
 11  8 18 17 51  0.0000000  0  9G03G24G07G08G11G13G19G23G28
   8106606.65646   6303399.05942  24206282.6644                   24206285.5784
  -2782403.76246  -2146938.48543  23753506.2034                   23753508.4614
  -2702583.70347  -2092543.00246  20653024.1644                   20653023.0004
  -5219463.40647  -4032773.37545  21735167.2814                   21735166.7814
  -4946243.79347  -3840613.96744  22346312.1954                   22346312.1334
   6037287.76247   4700459.20245  21824518.1254                   21824517.5084
   4472965.35547   3481836.38145  22065866.1024                   22065863.9104
   8457927.05546   6573778.62643  23734623.0164                   23734621.4454
  -3010029.22347  -2344238.35244  22896743.0634                   22896742.0394
 11  8 18 17 51 30.0000000  0  9G03G24G07G08G11G13G19G23G28
   8145065.18046   6333366.67642  24213601.5084                   24213603.5354
  -2925648.71546  -2258557.82043  23726247.0784                   23726250.0634
  -2802069.27047  -2170064.22846  20634092.9224                   20634091.4694
  -5359158.34847  -4141626.56845  21708583.7974                   21708583.4184
  -5073975.52047  -3940145.10545  22322005.8754                   22322005.5744
   6057999.89847   4716598.46745  21828459.3364                   21828458.8284
   4475990.71547   3484193.76745  22066441.8444                   22066439.2664
   8500115.12946   6606652.30343  23742650.6564                   23742649.5904
  -3117164.68747  -2427720.49444  22876356.1334                   22876355.0984
 11  8 18 17 52  0.0000000  0  9G03G24G07G08G11G13G19G23G28
   8183414.17246   6363248.96142  24220899.1954                   24220900.3794
  -3069018.92247  -2370274.77943  23698965.0474                   23698967.6054
  -2901460.43447  -2247511.89546  20615179.4384                   20615178.0474
  -5498950.04347  -4250555.14045  21681982.6644                   21681982.2344
  -5201555.77747  -4039558.25944  22297728.3364                   22297727.7234
   6078841.88347   4732838.92545  21832425.6094                   21832424.7774
   4479223.46547   3486712.75045  22067057.3444                   22067054.5394
   8542165.95746   6639419.04743  23750653.0554                   23750652.9024
  -3224361.23447  -2511250.26044  22855957.1884                   22855956.2974
 11  8 18 17 52 30.0000000  0  9G03G24G07G08G11G13G19G23G28
   8221655.22346   6393047.14542  24228176.5554                   24228177.3954
  -3212506.52747  -2482083.19343  23671659.8054                   23671662.5354
  -3000750.27747  -2324880.60746  20596285.3364                   20596283.9734
  -5638831.71147  -4359553.81545  21655364.2734                   21655363.4924
  -5328977.18047  -4138847.65245  22273481.1564                   22273480.0084
   6099815.32047   4749181.79645  21836417.0314                   21836415.9184
   4482665.72347   3489394.99645  22067711.9384                   22067709.4534
   8584081.19146   6672080.05944  23758630.3914                   23758629.9494
  -3331614.94547  -2594824.55144  22835547.3284                   22835546.1254
 11  8 18 17 53  0.0000000  0  8G24G07G08G11G13G19G23G28
  -3356106.60546  -2593979.28243  23644332.7504                   23644336.4964
  -3099934.82847  -2402167.25746  20577410.9224                   20577409.5474
  -5778799.35547  -4468619.49145  21628729.2584                   21628728.5434
  -5456235.32447  -4238009.80345  22249264.3204                   22249263.0044
   6120919.11747   4765626.26545  21840432.8984                   21840432.0594
   4486316.86347   3492240.02145  22068406.8284                   22068404.3164
   8625860.08646   6704634.83944  23766579.9454                   23766580.0824
  -3438924.76647  -2678442.58244  22815127.0474                   22815125.9844
 11  8 18 17 53 30.0000000  0  8G24G07G08G11G13G19G23G28
  -3499808.05946  -2705954.33043  23616987.4304                   23616990.6374
  -3199004.34047  -2479364.29646  20558558.6724                   20558557.0514
  -5918843.01247  -4577744.41145  21602079.8834                   21602079.3594
  -5583319.04747  -4337036.04745  22225080.9384                   22225080.3914
   6142158.54347   4782176.41245  21844474.7734                   21844474.1254
   4490182.10247   3495251.84945  22069142.5784                   22069140.0664
   8667507.86346   6737087.47544  23774506.2194                   23774505.1254
  -3546283.63347  -2762098.81144  22794697.5864                   22794696.5514
 11  8 18 17 54  0.0000000  0  8G24G07G08G11G13G19G23G28
  -3643595.20346  -2817996.18743  23589625.6024                   23589628.9924
  -3297944.38747  -2556460.43246  20539730.8834                   20539729.7424
  -6058947.85247  -4686916.98745  21575418.5784                   21575418.0164
  -5710212.79347  -4435914.26845  22200934.3754                   22200932.5554
   6163543.27047   4798839.75845  21848544.0234                   21848542.9454
   4494271.23847   3498438.16545  22069920.9384                   22069918.1914
   8709034.25046   6769445.42143  23782407.4614                   23782407.6954
  -3653679.96147  -2845784.22544  22774260.3984                   22774259.6334
 11  8 18 17 54 30.0000000  0  8G24G07G08G11G13G19G23G28
  -3787453.24246  -2930093.24944  23562250.6724                   23562253.9694
  -3396740.91447  -2633444.73446  20520930.8284                   20520929.2114
  -6199100.31247  -4796126.65245  21548748.4384                   21548747.8834
  -5836902.58647  -4534633.54044  22176825.4844                   22176824.5664
   6185082.11347   4815623.22445  21852642.8054                   21852641.8094
   4498593.39547   3501806.04245  22070743.5634                   22070740.7584
   8750448.01646   6801715.66643  23790288.2504                   23790288.5744
  -3761103.20747  -2929490.62044  22753818.2194                   22753817.6054
 11  8 18 17 55  0.0000000  0  8G24G07G08G11G13G19G23G28
  -3931376.32446  -3042241.04944  23534862.7344                   23534866.3094
  -3495389.45347  -2710313.73646  20502158.4384                   20502156.7234
  -6339295.30147  -4905369.49145  21522070.2664                   21522069.7544
  -5963382.66447  -4633189.44345  22152757.1804                   22152756.3134
   6206775.00047   4832526.72445  21856770.6564                   21856769.9264
   4503148.79347   3505355.66545  22071610.1254                   22071607.3914
   8791749.26246   6833898.20143  23798148.3204                   23798147.6414
  -3868550.92247  -3013216.09644  22733371.8524                   22733370.7584
 11  8 18 17 55 30.0000000  0  8G24G07G08G11G13G19G23G28
  -4075362.95746  -3154438.29944  23507463.3204                   23507466.6374
  -3593889.71947  -2787067.19146  20483414.7664                   20483413.0514
  -6479532.39147  -5014645.14545  21495383.9774                   21495383.0704
  -6089651.95347  -4731581.06544  22128728.8984                   22128727.9024
   6228617.24247   4849546.58345  21860927.6954                   21860926.4654
   4507933.02347   3509083.60545  22072520.4304                   22072517.9534
   8832933.46146   6865989.56543  23805985.7194                   23805985.6994
  -3976025.72747  -3096962.67044  22712920.0234                   22712918.8714
 11  8 18 17 56  0.0000000  0  8G24G07G08G11G13G19G23G28
  -4219412.68746  -3266684.79843  23480050.9924                   23480053.8794
  -3692242.71547  -2863705.88946  20464698.5704                   20464696.9844
  -6619812.32847  -5123954.15645  21468689.2894                   21468689.1724
  -6215710.24647  -4829808.26645  22104740.9694                   22104739.8594
   6250603.20347   4866678.43145  21865110.9384                   21865110.8014
   4512940.71147   3512985.66245  22073473.8134                   22073470.8634
   8873995.18447   6897985.61343  23813799.9384                   23813798.4654
  -4083531.16847  -3180733.09544  22692462.6024                   22692460.9774
 11  8 18 17 56 30.0000000  0  8G24G07G08G11G13G19G23G28
  -4363523.85546  -3378979.05843  23452627.4384                   23452630.7504
  -3790447.74247  -2940229.27946  20446010.9064                   20446009.2704
  -6760134.57047  -5233296.15645  21441987.3834                   21441986.3324
  -6341556.35947  -4927870.15744  22080792.9774                   22080792.3014
   6272728.48047   4883918.84245  21869322.0004                   21869320.9224
   4518167.89547   3517058.74145  22074467.9924                   22074465.4964
   8914930.14147   6929882.82444  23821590.4924                   23821589.5314
  -4191069.82847  -3264529.46444  22671998.0394                   22671997.1174
 11  8 18 17 57  0.0000000  0  8G24G07G08G11G13G19G23G28
  -4507693.78946  -3491319.16243  23425193.2424                   23425195.6134
  -3888503.15647  -3016636.08246  20427351.4924                   20427350.0314
  -6900497.05547  -5342669.48545  21415277.0164                   21415276.5164
  -6467187.52747  -5025764.54344  22056885.9304                   22056884.9574
   6294989.91447   4901265.36445  21873557.6644                   21873557.3054
   4523611.30147   3521300.33745  22075504.0004                   22075501.2854
   8955735.03946   6961678.61243  23829355.0554                   23829353.6954
  -4298642.71947  -3348352.46144  22651528.0314                   22651527.0904
 11  8 18 17 57 30.0000000  0  8G24G07G08G11G13G19G23G28
  -4651917.75047  -3603701.37343  23397748.5394                   23397750.9534
  -3986405.37547  -3092923.54146  20408721.2194                   20408720.0554
  -7040896.21547  -5452071.40745  21388560.1564                   21388559.6094
  -6592599.73447  -5123488.32245  22033021.2034                   22033020.0784
   6317386.14147   4918716.86445  21877819.3674                   21877819.0354
   4529269.71147   3525709.45845  22076580.6484                   22076578.4144
   8996408.85246   6993372.35243  23837094.8444                   23837094.2544
  -4406249.48047  -3432201.88244  22631050.9924                   22631049.9694
 11  8 18 17 58  0.0000000  0  8G24G07G08G11G13G19G23G28
  -4796191.05146  -3716122.03943  23370293.7664                   23370296.3054
  -4084150.91047  -3169088.89346  20390120.8524                   20390119.5354
  -7181328.01247  -5561498.76045  21361836.8134                   21361836.1914
  -6717789.08647  -5221038.43345  22009198.2664                   22009197.5394
   6339916.09047   4936272.63045  21882107.2734                   21882106.4614
   4535142.48447   3530285.60845  22077698.5784                   22077695.4264
   9036950.58646   7024962.97943  23844808.8834                   23844810.2894
  -4513889.12547  -3516076.89744  22610567.9844                   22610566.9024
 11  8 18 17 58 30.0000000  0  9G17G24G07G08G11G13G19G23G28
   4520526.66056   3552376.20153  24547854.3524                   24547857.2114
  -4940513.86747  -3828581.30643  23342829.7894                   23342832.5004
  -4181741.21148  -3245133.29446  20371550.0004                   20371548.8954
  -7321793.82047  -5670952.62545  21335107.0164                   21335106.2304
  -6842755.62947  -5318414.94345  21985417.7894                   21985417.0474
   6362573.05147   4953927.33745  21886418.0784                   21886417.5394
   4541223.44547   3535023.97445  22078855.7504                   22078852.6644
   9077353.86346   7056445.86342  23852498.2424                   23852496.8794
  -4621565.82047  -3599980.80844  22590077.6884                   22590076.7384
 11  8 18 17 59  0.0000000  0  9G17G24G07G08G11G13G19G23G28
   4341842.39146   3413141.76843  24513852.6024                   24513854.0314
  -5084888.59447  -3941080.98043  23315356.1254                   23315358.5004
  -4279180.34847  -3321059.88946  20353007.8984                   20353006.1174
  -7462297.30947  -5780435.84045  21308370.1484                   21308368.9734
  -6967502.67647  -5415620.36845  21961679.4224                   21961678.4614
   6385348.46147   4971674.33144  21890752.1954                   21890751.8284
   4547503.61747   3539917.61245  22080051.1024                   22080048.0554
   9117610.15646   7087814.00743  23860158.3364                   23860159.1884
  -4729286.22747  -3683918.74644  22569579.1024                   22569577.9924
 11  8 18 17 59 30.0000000  0  9G17G24G07G08G11G13G19G23G28
   4163068.55946   3273837.45843  24479832.8594                   24479833.8364
  -5229323.41846  -4053627.46143  23287871.5554                   23287873.7464
  -4376477.35247  -3396875.73146  20334493.0474                   20334491.6174
  -7602847.30147  -5889955.28145  21281623.9924                   21281623.2584
  -7092038.62947  -5512661.34545  21937981.0164                   21937980.0474
   6408228.34447   4989502.72445  21895106.6804                   21895106.0634
   4553969.73847   3544956.11145  22081281.2274                   22081278.6684
   9157705.57446   7119056.93743  23867789.9614                   23867789.7974
  -4837062.44147  -3767900.19744  22549069.9304                   22549068.8984
 11  8 18 18  0  0.0000000  0  9G17G24G07G08G11G13G19G23G28
   3984209.82846   3134467.08242  24445797.8674                   24445798.5594
  -5373813.25446  -4166216.82943  23260375.0004                   23260377.4574
  -4473628.11748  -3472577.63846  20316006.1884                   20316004.2304
  -7743439.57847  -5999507.67545  21254870.2034                   21254869.5984
  -7216358.70747  -5609534.12045  21914323.6644                   21914323.3364
   6431212.00447   5007411.99245  21899480.3444                   21899479.9534
   4560621.01247   3550138.87945  22082546.9064                   22082543.9304
   9197639.57446   7150174.24642  23875388.0474                   23875387.8484
  -4944893.15647  -3851924.13344  22528550.4844                   22528549.3524
 11  8 18 18  0 30.0000000  0  9G17G24G07G08G11G13G19G23G28
   3805276.41846   2995038.55942  24411747.4614                   24411748.6374
  -5518346.18746  -4278839.80543  23232871.7894                   23232872.4534
  -4570622.34847  -3548157.56146  20297548.9304                   20297547.0274
  -7884063.19947  -6109084.51445  21228110.2734                   21228109.8444
  -7340451.89847  -5706230.07745  21890709.8754                   21890708.8244
   6454304.54747   5025406.11745  21903874.6954                   21903874.4654
   4567463.05147   3555470.30345  22083848.8134                   22083846.7814
   9237418.01246   7181170.15543  23882958.5004                   23882958.7504
  -5052770.81647  -3935984.62244  22508022.5084                   22508020.8834
 11  8 18 18  1  0.0000000  0  9G17G24G07G08G11G13G19G23G28
   5201702.34846   4083162.70743  24677479.2894                   24677479.0824
  -4087488.63746  -3163885.78343  23505154.5634                   23505156.1954
  -3092029.45748  -2396007.25746  20578915.5704                   20578914.2194
  -6449285.64147  -4991076.00645  21501139.6564                   21501138.6294
  -5888885.70747  -4575139.50745  22166933.5784                   22166932.1334
   8052928.09047   6271086.73245  22208082.3594                   22208082.2424
   6149918.30547   4788552.26045  22384980.3284                   22384977.7774
  10852461.94146   8439645.68243  24190290.8284                   24190291.3554
  -3585267.04347  -2792475.17144  22787278.7974                   22787277.8754
 11  8 18 18  1 30.0000000  0  9G17G24G07G08G11G13G19G23G28
   5022643.31646   3943636.28643  24643404.9844                   24643405.7894
  -4232081.51646  -3276555.51643  23477639.8364                   23477641.5514
  -3188688.16448  -2471325.73646  20560521.6724                   20560520.4884
  -6589948.52747  -5100683.43745  21474372.3594                   21474371.7584
  -6012500.01647  -4671462.32945  22143410.4774                   22143409.3284
   8076246.84447   6289257.09844  22212520.3524                   22212519.9024
   6157150.76247   4794187.89545  22386356.1644                   22386354.4734
  10891937.71946   8470405.78942  24197803.7584                   24197802.6054
  -3693224.30147  -2876597.70744  22766735.1884                   22766733.6334
 11  8 18 18  2  0.0000000  0  9G17G24G07G08G11G13G19G23G28
   4843532.29346   3804069.26543  24609321.1254                   24609322.4924
  -4376692.17246  -3389239.02543  23450121.3984                   23450123.2034
  -3285168.85947  -2546505.50746  20542162.3364                   20542160.8874
  -6730620.47347  -5210297.93545  21447603.6094                   21447602.9224
  -6135863.43447  -4767589.63945  22119934.9304                   22119933.7344
   8099681.69947   6307517.95744  22216979.8984                   22216979.8244
   6164581.70747   4799978.21045  22387770.4064                   22387767.9694
  10931265.50446   8501050.51144  24205287.7734                   24205288.1684
  -3801215.20747  -2960746.45844  22746185.2274                   22746184.0594
 11  8 18 18  2 30.0000000  0  9G17G24G07G08G11G13G19G23G28
   4664377.19946   3664468.00543  24575229.0704                   24575230.5084
  -4521311.57446  -3501929.34443  23422601.0314                   23422603.6214
  -3381463.34848  -2621540.18346  20523838.1954                   20523836.3554
  -6871292.94947  -5319912.83545  21420834.2894                   21420833.1214
  -6258967.44547  -4863514.85045  22096509.0004                   22096508.0354
   8123235.78147   6325871.72145  22221462.2274                   22221461.7344
   6172214.80547   4805926.03445  22389223.2194                   22389220.6724
  10970448.54345   8531582.32543  24212743.2424                   24212745.0944
  -3909234.72747  -3044917.49844  22725629.8594                   22725628.4384
 11  8 18 18  3  0.0000000  0  9G17G24G07G08G11G13G19G23G28
   4485184.10546   3524837.09443  24541129.6094                   24541131.1414
  -4665932.99646  -3614621.23643  23395080.1484                   23395082.9454
  -3477566.42648  -2696425.70246  20505550.1564                   20505548.7424
  -7011960.50047  -5429523.89345  21394066.4454                   21394065.9654
  -6381805.94147  -4959233.13245  22073133.6334                   22073132.6214
   8146909.40247   6344318.64645  22225967.3204                   22225966.6374
   6180050.66047   4812031.86645  22390714.2894                   22390712.0664
  11009487.54747   8562002.11444  24220173.4534                   24220173.5394
  -4017279.93447  -3129108.54744  22705069.7734                   22705068.1564
 11  8 18 18  3 30.0000000  0  9G17G24G07G08G11G13G19G23G28
   4305953.93446   3385177.25343  24507023.7034                   24507024.8674
  -4810554.48846  -3727313.20643  23367559.4694                   23367561.6454
  -3573477.12148  -2771161.32446  20487298.8914                   20487297.6374
  -7152621.79747  -5539130.09245  21367299.0864                   21367298.5314
  -6504377.46147  -5054743.39645  22049809.0864                   22049807.8594
   8170698.64147   6362855.63744  22230493.8594                   22230493.4844
   6188085.16847   4818292.48745  22392243.3834                   22392240.6804
  11048378.60946   8592306.57444  24227574.3594                   24227575.0554
  -4125353.05547  -3213321.36145  22684503.6724                   22684502.5864
 11  8 18 18  4  0.0000000  0  9G17G24G07G08G11G13G19G23G28
   4126687.89546   3245489.50943  24472909.7664                   24472911.8754
  -4955173.30947  -3840003.10943  23340039.9694                   23340041.1994
  -3669194.07848  -2845745.96646  20469084.7814                   20469083.3554
  -7293274.85547  -5648729.87145  21340534.0554                   21340533.1214
  -6626679.71547  -5150043.82045  22026536.0234                   22026534.5274
   8194600.19547   6381480.14044  22235042.3984                   22235041.9384
   6196315.10947   4824705.38445  22393808.9224                   22393806.8714
  11087119.05146   8622493.51044  24234946.6024                   24234947.8984
  -4233455.45747  -3297556.97344  22663932.7664                   22663931.5824
 11  8 18 18  4 30.0000000  0  9G17G24G07G08G11G13G19G23G28
   3947393.84846   3105779.92944  24438791.5634                   24438793.5514
  -5099780.96547  -3952684.31944  23312521.8444                   23312523.5164
  -3764710.13347  -2920174.05846  20450908.3204                   20450907.0004
  -7433912.33247  -5758317.50645  21313771.2814                   21313770.3954
  -6748704.91847  -5245128.38445  22003314.8364                   22003313.9184
   8218616.27347   6400193.87144  22239612.2814                   22239612.0704
   6204743.42247   4831272.85445  22395413.4694                   22395410.4884
  11125711.22747   8652565.05743  24242290.3674                   24242291.6454
  -4341582.60247  -3381811.87344  22643356.5864                   22643355.1724
 11  8 18 18  5  0.0000000  0  9G17G24G07G08G11G13G19G23G28
   3768078.91046   2966054.05944  24404668.1254                   24404670.5824
  -5244369.13747  -4065350.35344  23285007.1804                   23285009.1414
  -3860018.54348  -2994440.35946  20432772.1024                   20432770.3054
  -7574526.85947  -5867887.25545  21287013.5084                   21287012.6644
  -6870445.61747  -5339991.25845  21980148.7114                   21980147.2854
   8242748.88747   6418998.44344  22244204.8134                   22244204.5704
   6213372.28147   4837996.59045  22397054.8444                   22397053.0004
  11164157.27346   8682522.91842  24249606.2194                   24249606.6524
  -4449730.03547  -3466082.58244  22622777.0394                   22622775.8794
 11  8 18 18  5 30.0000000  0  9G17G24G07G08G11G13G19G23G28
   3588752.52346   2826319.27743  24370543.8444                   24370545.4964
  -5388927.03547  -4177992.75244  23257499.2894                   23257501.1804
  -3955109.71148  -3068537.37046  20414676.9614                   20414675.1604
  -7715108.48447  -5977431.37845  21260261.8204                   21260260.9024
  -6991891.47747  -5434624.36445  21957038.0394                   21957036.6524
   8267002.74647   6437897.47344  22248820.2974                   22248819.7194
   6222206.40647   4844880.29445  22398736.3204                   22398734.4844
  11202462.45346   8712370.71142  24256896.6414                   24256896.1524
  -4557891.35247  -3550364.09944  22602194.0784                   22602192.9964
 11  8 18 18  6  0.0000000  0  9G17G24G07G08G11G13G19G23G28
   3409415.17646   2686575.92843  24336417.4454                   24336418.8054
  -5533453.85547  -4290610.93644  23229996.3134                   23229998.7854
  -4049983.84847  -3142465.27946  20396622.5864                   20396621.1254
  -7855656.63747  -6086949.40045  21233516.3054                   21233515.4614
  -7113042.05547  -5529027.41045  21933983.8674                   21933982.8914
   8291372.91047   6456887.14844  22253457.7344                   22253457.6994
   6231241.03547   4851920.19945  22400455.7114                   22400453.9494
  11240621.75845   8742104.93442  24264157.6334                   24264158.1724
  -4666069.66847  -3634658.86244  22581608.7344                   22581608.1644
 11  8 18 18  6 30.0000000  0  9G17G24G07G08G11G13G19G23G28
   3230072.80546   2546828.69743  24302289.5784                   24302290.7304
  -5677942.30947  -4403199.21844  23202500.7584                   23202503.8674
  -4144635.25847  -3216219.63046  20378611.2734                   20378609.9734
  -7996165.18047  -6196436.57045  21206777.7664                   21206777.4694
  -7233890.98447  -5623195.38645  21910987.3594                   21910986.0124
   8315860.07047   6475967.96544  22258117.3834                   22258117.2734
   6240477.43047   4859117.34845  22402213.0234                   22402211.2934
                                  24271390.211
  -4774261.71147  -3718964.33044  22561020.7584                   22561019.1334
 11  8 18 18  7  0.0000000  0  9G17G24G07G08G11G13G19G23G28
   3050725.10546   2407077.34243  24268160.2504                   24268161.8874
  -5822391.66047  -4515757.04044  23175013.0394                   23175015.2544
  -4239064.41048  -3289800.78946  20360641.8134                   20360640.6254
  -8136634.67647  -6305893.30045  21180047.7664                   21180046.7384
  -7354438.32447  -5717128.36045  21888048.0084                   21888046.9844
   8340458.77047   6495135.69444  22262798.3524                   22262798.2504
   6249910.41847   4866467.70745  22404008.3754                   22404006.2624
  11316502.36756   8801233.06453  24278598.0474                   24278600.3444
  -4882470.46947  -3803282.83045  22540428.3674                   22540427.6524
 11  8 18 18  7 30.0000000  0  9G17G24G07G08G11G13G19G23G28
   2871379.96946   2267327.85243  24234032.3834                   24234033.1724
  -5966793.31646  -4628277.72343  23147533.8594                   23147536.1994
  -4333263.71148  -3363202.85746  20342716.5784                   20342714.9844
  -8277057.03147  -6415313.31545  21153326.0314                   21153325.3594
  -7474675.96147  -5810819.99145  21865167.3284                   21865166.1684
   8365171.79347   6514392.51644  22267501.3674                   22267500.9454
   6259542.60247   4873973.24845  22405841.1334                   22405839.4104
  11354221.06646   8830623.91943  24285776.4614                   24285777.6564
  -4990691.60247  -3887610.97644  22519835.0314                   22519834.1414
 11  8 18 18  8  0.0000000  0  9G17G24G07G08G11G13G19G23G28
   2692035.59046   2127579.16443  24199904.6024                   24199905.5634
  -6111147.82846  -4740761.68843  23120064.5314                   23120065.6884
  -4427235.37948  -3436427.54946  20324834.1414                   20324832.9104
  -8417433.68747  -6524697.71045  21126613.1804                   21126612.8014
  -7594605.01247  -5904271.19745  21842346.0474                   21842344.3984
   8389992.27747   6533733.07244  22272224.7974                   22272224.4264
   6269367.49647   4881628.96045  22407710.7584                   22407708.5594
  11391786.79346   8859895.58643  24292924.2194                   24292925.8714
  -5098929.74647  -3971952.35944  22499238.2034                   22499236.9734
 11  8 18 18  8 30.0000000  0  9G17G24G07G08G11G13G19G23G28
   2512695.27746   1987833.50843  24165776.1484                   24165778.1334
  -6255450.80946  -4853205.51643  23092604.5394                   23092605.9264
  -4520976.28948  -3509472.42646  20306995.8914                   20306994.3634
  -8557761.25447  -6634043.86545  21099909.8834                   21099909.0084
  -7714221.96947  -5997479.20245  21819582.9384                   21819582.0824
   8414918.51647   6553156.04144  22276968.3054                   22276967.7664
   6279383.76247   4889433.79945  22409616.7114                   22409614.4844
  11429198.08246   8889046.93343  24300044.1804                   24300045.6094
  -5207184.57447  -4056306.74545  22478637.7974                   22478636.6764
 11  8 18 18  9  0.0000000  0  9G17G24G07G08G11G13G19G23G28
   2333364.98446   1848095.73143  24131651.7274                   24131652.5434
  -6399695.27346  -4965603.63343  23065154.6954                   23065157.1914
  -4614480.82847  -3582333.11546  20289202.6724                   20289201.0124
  -8698033.17647  -6743346.64545  21073216.9694                   21073216.3834
  -7833520.55147  -6090439.10245  21796881.4224                   21796880.7814
   8439951.12547   6572661.89244  22281731.7034                   22281731.7304
   6289592.12547   4897388.31645  22411559.4304                   22411557.4224
  11466455.82446   8918078.58743  24307134.3134                   24307135.5984
  -5315453.14547  -4140671.85745  22458035.3674                   22458033.7624
 11  8 18 18  9 30.0000000  0  9G17G24G07G08G11G13G19G23G28
   2154045.40246   1708366.26643  24097528.3444                   24097529.0984
  -6543879.32046  -5077954.74043  23037717.9304                   23037720.1994
  -4707748.13348  -3655008.95246  20271454.3674                   20271452.9774
  -8838248.30947  -6852605.17445  21046535.2114                   21046534.3204
  -7952499.68747  -6183150.09745  21774240.3204                   21774239.1334
   8465085.94947   6592247.40244  22286514.4304                   22286514.3634
   6299988.82447   4905489.59745  22413537.9064                   22413535.9804
  11503556.39546   8946987.78143  24314194.9774                   24314196.4414
  -5423737.19547  -4225049.01444  22437429.2584                   22437427.8054
 11  8 18 18 10  0.0000000  0  9G17G24G07G08G11G13G19G23G28
   1974735.00846   1568643.91643  24063406.6334                   24063407.6724
  -6688003.39846  -5190259.12243  23010291.9454                   23010293.5274
  -4800780.27748  -3727501.54546  20253750.5394                   20253749.5124
  -8978408.33647  -6961820.77845  21019863.6414                   21019862.8444
  -8071160.44147  -6275613.01645  21751659.4304                   21751659.1414
   8490316.39147   6611907.37944  22291315.9454                   22291315.7274
   6310567.62946   4913732.78245  22415551.1094                   22415548.7894
  11540493.51246   8975769.67343  24321223.6804                   24321225.1724
  -5532041.28947  -4309441.77145  22416819.4844                   22416818.1844
 11  8 18 18 10 30.0000000  0  8G17G24G07G08G11G13G19G28
   1795440.28946   1428933.79943  24029287.3834                   24029289.2194
  -6832060.25046  -5302511.12143  22982877.6644                   22982879.5474
  -4893571.27748  -3799806.20846  20236093.5234                   20236091.7464
  -9118506.65247  -7070988.27445  20993203.5004                   20993203.1134
  -8189496.71147  -6367823.07345  21729141.4454                   21729140.4924
   8515643.43047   6631642.66444  22296135.6884                   22296135.8754
   6321329.26246   4922118.45545  22417599.4224                   22417596.8674
  -5640362.64847  -4393848.01645  22396206.9924                   22396205.4414
 11  8 18 18 11  0.0000000  0  8G17G24G07G08G11G13G19G28
   1616168.30146   1289241.43143  23995173.0084                   23995175.1024
  -6976041.57446  -5414704.32143  22955479.5634                   22955480.6054
  -4986114.25848  -3871917.64346  20218483.1024                   20218481.5784
  -9258535.07047  -7180101.33146  20966557.4064                   20966556.1644
  -8307500.66847  -6459774.20345  21706686.0084                   21706685.2974
   8541069.52047   6651455.09044  22300974.2344                   22300973.8954
   6332276.57446   4930648.77945  22419682.2114                   22419680.5864
  -5748696.81247  -4478264.23245  22375591.7664                   22375590.3284
 11  8 18 18 11 30.0000000  0  8G17G24G07G08G11G13G19G28
   3012349.56346   2377174.92343  24260857.3984                   24260859.3244
  -5544517.08647  -4299230.64143  23227890.1094                   23227891.0004
  -3502982.07448  -2716230.22046  20500713.7344                   20500712.4104
  -7823064.69547  -6061552.96745  21239717.8524                   21239717.2584
  -6849743.86747  -5323859.79145  21984087.6954                   21984087.0904
  10142012.81647   7898943.28044  22605623.1094                   22605623.2974
   7918828.73047   6166923.12845  22721592.7814                   22721591.2194
  -4281618.60947  -3335086.39045  22654767.1724                   22654766.0124
 11  8 18 18 12  0.0000000  0  8G17G24G07G08G11G13G19G28
   2833150.30946   2237539.19343  24226757.7584                   24226759.0204
  -5688317.15247  -4411282.56644  23200525.8364                   23200527.8954
  -3595003.07448  -2787934.89346  20483202.9224                   20483201.0784
  -7962926.62947  -6170536.28845  21213102.9924                   21213102.4304
  -6967055.70747  -5415271.59645  21961764.3594                   21961763.3794
  10167648.16447   7918918.79744  22610502.1024                   22610501.6564
   7930159.40247   6175752.18244  22723749.5864                   22723747.2384
  -4389959.94547  -3419508.18145  22634150.3984                   22634149.1334
 11  8 18 18 12 30.0000000  0  8G17G24G07G08G11G13G19G28
   2654000.48046   2097941.97344  24192665.7424                   24192667.7664
  -5832011.88747  -4523252.41844  23173181.3524                   23173184.1094
  -3686750.44948  -2859426.35546  20465743.8444                   20465742.4454
  -8102691.62547  -6279444.06345  21186506.9144                   21186506.0434
  -7084007.97747  -5506403.22745  21939509.0784                   21939508.0434
  10193393.54347   7938980.03144  22615400.9534                   22615401.3094
   7941687.59847   6184735.15544  22725942.8984                   22725940.9734
  -4498296.32447  -3503926.12845  22613534.7114                   22613533.3874
 11  8 18 18 13  0.0000000  0  8G17G24G07G08G11G13G19G28
   2474893.94946   1958378.52344  24158582.8364                   24158584.7584
  -5975606.06247  -4635143.88244  23145856.0164                   23145858.7504
  -3778230.16448  -2930709.26546  20448335.9694                   20448334.5944
  -8242365.32447  -6388280.70545  21159927.7584                   21159926.8834
  -7200606.30547  -5597259.05845  21917321.1564                   21917320.3754
  10219238.02047   7959118.47944  22620319.2504                   22620318.9844
   7953402.63347   6193863.69444  22728172.0474                   22728170.5984
  -4606636.77047  -3588347.23544  22592918.1644                   22592917.0084
 11  8 18 18 13 30.0000000  0  9G17G24G07G08G26G11G13G19G28
   2295837.38346   1818854.00344  24124509.8284                   24124511.3954
  -6119092.30546  -4746951.25344  23118551.6644                   23118553.9264
  -3869436.46148  -3001779.10446  20430979.8674                   20430978.6844
  -8381940.75447  -6497040.75546  21133367.5164                   21133366.7344
   7688545.65615                  24323092.594
  -7316844.12547  -5687833.97045  21895201.7974                   21895200.7464
  10245182.85547   7979335.16444  22625256.6484                   22625256.3284
   7965306.13747   6203139.11844  22730438.0864                   22730435.8404
  -4714977.32447  -3672768.43445  22572301.8284                   22572300.4494
 11  8 18 18 14  0.0000000  0  9G17G24G07G08G26G11G13G19G28
   2116814.67246   1679355.84043  24090442.6174                   24090443.8914
  -6262485.54747  -4858686.16744  23091264.7274                   23091266.2894
  -3960385.29748  -3072648.33246  20413672.7344                   20413671.3404
  -8521433.97747  -6605736.75946  21106822.8594                   21106821.9774
   7522444.309 6                  24291483.992
  -7432737.35547  -5778140.36945  21873148.0704                   21873146.9804
  10271206.69547   7999613.37244  22630208.4224                   22630208.7344
   7977377.16447   6212545.06744  22732734.9144                   22732732.2344
  -4823337.21147  -3757204.66745  22551681.4304                   22551680.1994
 11  8 18 18 14 30.0000000  0  9G17G24G07G08G26G11G13G19G28
   1937822.60546   1539881.55643  24056382.0944                   24056382.8984
  -6405788.04347  -4970350.44243  23063995.4614                   23063997.1214
  -4051080.58248  -3143319.99746  20396414.1334                   20396412.7274
  -8660847.71947  -6714370.83246  21080293.0164                   21080292.4774
   7356591.68045   5755758.61352  24259922.9924                   24259925.1414
  -7548289.04747  -5868180.65045  21851158.7424                   21851158.4224
  10297301.65247   8019946.99944  22635174.4614                   22635174.4064
   7989607.46946   6222075.12544  22735062.0234                   22735060.3404
  -4931722.49647  -3841660.72145  22531056.5634                   22531055.1994
 11  8 18 18 15  0.0000000  0  9G17G24G07G08G26G11G13G19G28
   1758855.16046   1400426.51943  24022325.5634                   24022326.2584
  -6549004.68447  -5081947.76844  23036742.6884                   23036744.3984
  -4141528.53948  -3213798.94046  20379202.4224                   20379201.0664
  -8800187.52347  -6822947.28046  21053777.6254                   21053776.7464
   7190982.60246   5626712.57442  24228409.3054                   24228410.6644
  -7663505.08247  -5957959.36345  21829233.8984                   21829233.4534
  10323456.54747   8040327.34344  22640151.9144                   22640151.7384
   8001986.23046   6231720.86244  22737418.0634                   22737415.7384
  -5040142.35247  -3926143.71245  22510424.8284                   22510423.4654
 11  8 18 18 15 30.0000000  0  9G17G24G07G08G26G11G13G19G28
   1579912.75446   1260990.95543  23988273.1484                   23988275.0234
  -6692133.79747  -5193476.84044  23009505.8134                   23009508.2624
  -4231728.89148  -3284084.94546  20362038.0394                   20362036.7234
  -8939452.50447  -6931465.43745  21027276.3754                   21027275.8524
   7025618.33246   5497857.35443  24196942.6644                   24196942.8404
  -7778384.76247  -6047475.97545  21807373.1254                   21807371.9414
  10349666.88347   8060750.90144  22645139.4304                   22645139.2234
   8014509.43846   6241479.16644  22739800.8524                   22739798.6954
  -5148598.73047  -4010655.15645  22489786.1954                   22489785.1844
 11  8 18 18 16  0.0000000  0  9G17G24G07G08G26G11G13G19G28
   1401006.85946   1121583.80343  23954228.8914                   23954229.7234
  -6835163.12946  -5304928.18144  22982287.3594                   22982290.3554
  -4321670.94947  -3354169.67146  20344922.6254                   20344921.2664
  -9078631.21947  -7039916.36246  21000791.5234                   21000790.8164
   6860510.74246   5369202.18043  24165522.9614                   24165524.3164
  -7892916.43447  -6136721.42545  21785578.3524                   21785577.8524
  10375938.76247   8081222.37644  22650139.1254                   22650138.7974
   8027183.43447   6251354.97044  22742212.9694                   22742210.5944
  -5257083.50447  -4095188.72945  22469142.5784                   22469141.0864
 11  8 18 18 16 30.0000000  0  9G17G24G07G08G26G11G13G19G28
   1222143.40646    982209.75743  23920192.0234                   23920192.8524
  -6978085.83246  -5416296.39344  22955089.6024                   22955092.6684
  -4411349.02047  -3424048.69746  20327857.3674                   20327856.0044
  -9217717.22347  -7148295.05746  20974324.4064                   20974323.5434
   6695666.36746   5240752.03443  24134154.1954                   24134155.3164
  -8007094.30947  -6225691.19545  21763850.9844                   21763850.1214
  10402272.84847   8101742.34244  22655150.2114                   22655150.4344
   8040009.03147   6261348.88845  22744653.1334                   22744651.3874
  -5365593.71547  -4179742.11545  22448493.5944                   22448492.2114
 11  8 18 18 17  0.0000000  0  9G17G24G07G08G26G11G13G19G28
   1043326.11746    842871.69944  23886164.4844                   23886165.4024
  -7120896.83646  -5527577.61143  22927913.4924                   22927916.5744
  -4500759.50848  -3493719.22646  20310843.3834                   20310841.4924
  -9356706.38747  -7256598.27645  20947875.3754                   20947875.0594
   6531090.34046   5112511.01743  24102836.0634                   24102837.5514
  -8120914.34047  -6314382.09845  21742191.5164                   21742190.6334
  10428668.09047   8122309.96744  22660173.1024                   22660173.1374
   8052985.28947   6271460.22244  22747122.5394                   22747120.4304
  -5474128.08647  -4264314.34545  22427840.3984                   22427838.1214
 11  8 18 18 17 30.0000000  0  9G17G24G07G08G26G11G13G19G28
    864557.73046    703571.76443  23852145.9694                   23852147.1024
  -7263591.79347  -5638768.42843  22900760.5554                   22900761.1094
  -4589899.84848  -3563179.23446  20293880.0704                   20293879.2114
  -9495595.06247  -7364823.21846  20921445.7734                   20921445.0314
   6366786.24646   4984481.90043  24071570.4774                   24071571.4184
  -8234373.64147  -6402791.94245  21720601.0784                   21720600.3484
  10455122.50847   8142923.65644  22665207.5554                   22665206.9734
   8066110.69546   6281687.72944  22749620.2974                   22749618.4924
  -5582686.97347  -4348905.66345  22407181.9614                   22407180.9144
 11  8 18 18 18  0.0000000  0  9G17G24G07G08G26G11G13G19G28
    685843.23446    564313.78243  23818136.8364                   23818138.7934
  -7406165.35547  -5749864.67643  22873629.5084                   22873630.4224
  -4678765.96548  -3632425.58646  20276969.7114                   20276968.0634
  -9634378.53547  -7472966.19146  20895036.0394                   20895035.5744
   6202759.09846   4856668.59443  24040357.1094                   24040357.8714
  -8347467.38347  -6490916.92545  21699079.8984                   21699079.0744
  10481635.25447   8163582.86644  22670252.3834                   22670253.1334
   8079384.64147   6292030.98944  22752146.9534                   22752144.2544
  -5691268.74247  -4433514.83445  22386519.2664                   22386518.0784
 11  8 18 18 18 30.0000000  0  9G17G24G07G08G26G11G13G19G28
    507192.03546    425105.10644  23784141.2664                   23784142.1724
  -7548606.87946  -5860857.97544  22846523.1414                   22846525.4384
  -4767348.39547  -3701450.85846  20260113.1094                   20260111.7504
  -9773046.21947  -7581018.92346  20868648.8284                   20868647.9614
   6039019.37946   4729079.24643  24009197.5004                   24009199.6174
  -8460186.18747  -6578749.74145  21677630.9454                   21677629.2154
  10508211.42647   8184291.44344  22675309.6954                   22675309.6484
   8092812.11747   6302493.91045  22754702.6024                   22754699.9614
  -5799866.29347  -4518136.28345  22365854.0164                   22365852.8524
 11  8 18 18 19  0.0000000  0  9G17G24G07G08G26G11G13G19G28
    328607.60246    285948.48544  23750157.1484                   23750158.8094
  -7690911.69947  -5971744.73744  22819443.2664                   22819445.7814
  -4855644.31648  -3770252.88246  20243310.6024                   20243309.3554
  -9911594.62947  -7688978.70646  20842283.2974                   20842283.0234
   5875571.48446   4601717.37943  23978094.6174                   23978096.3094
  -8572526.21947  -6666287.42145  21656252.5634                   21656251.3674
  10534849.10247   8205047.98344  22680378.8984                   22680379.2234
   8106391.79747   6313075.41644  22757285.7814                   22757283.6174
  -5908479.03547  -4602769.55545  22345185.8754                   22345184.3674
 11  8 18 18 19 30.0000000  0  9G17G24G07G08G26G11G13G19G28
    150096.40646    146848.95043  23716187.8444                   23716188.8204
  -7833072.32047  -6082519.16944  22792391.8674                   22792394.0944
  -4943647.12947  -3838826.50146  20226564.4774                   20226562.9924
 -10050016.63747  -7796840.00646  20815942.9844                   20815942.0944
   5712422.54346   4474588.45643  23947048.6094                   23947049.8204
  -8684480.84847  -6753524.78445  21634948.7734                   21634947.4734
  10561549.88347   8225853.66344  22685459.8674                   22685459.7624
   8120125.44947   6323776.89445  22759899.4454                   22759897.4104
  -6017103.28147  -4687411.79145  22324515.6254                   22324513.8484
 11  8 18 18 20  0.0000000  0  9G17G24G07G08G26G11G13G19G28
    -28331.97346      7813.93244  23682233.9924                   23682235.2274
  -7975077.84047  -6193172.75744  22765369.4224                   22765370.3714
  -5031347.94147  -3907164.80646  20209875.2814                   20209874.1454
 -10188302.14847  -7904594.96145  20789628.3984                   20789627.3754
   5549583.13746   4347700.60242  23916061.7814                   23916061.8364
  -8796040.63747  -6840454.49645  21613719.5704                   21613718.3714
  10588318.04747   8246711.88244  22690554.1094                   22690553.9384
   8134017.92246   6334602.15744  22762542.6334                   22762540.6764
  -6125732.16047  -4772057.65745  22303843.9844                   22303842.2774
 11  8 18 18 20 30.0000000  0  9G17G24G07G08G26G11G13G19G28
   -206677.97346   -131156.87544  23648295.5004                   23648297.1564
  -8116927.87147  -6303705.18844  22738375.6884                   22738375.8484
  -5118747.70748  -3975268.52546  20193244.0314                   20193242.5744
 -10326451.62948  -8012243.88346  20763339.2734                   20763338.5394
   5387053.09846   4221053.89542  23885132.9144                   23885133.8634
  -8907206.08247  -6927076.87745  21592565.4064                   21592564.0124
  10615148.12547   8267618.29344  22695659.2974                   22695659.9654
   8148063.63347   6345546.82644  22765216.2194                   22765213.6564
  -6234369.59047  -4856710.19645  22283171.1644                   22283169.7384
 11  8 18 18 21  0.0000000  0  9G17G24G07G08G26G11G13G19G28
   -384936.31246   -270059.45243  23614374.5164                   23614375.0984
  -8258616.04346  -6414111.60243  22711412.5004                   22711412.6724
  -5205841.45747  -4043133.79246  20176670.3284                   20176669.1024
 -10464458.91448  -8119782.03246  20737077.1484                   20737076.1024
   5224838.14145   4094652.71542  23854262.8594                   23854265.4184
  -9017972.14847  -7013388.08145  21571487.5084                   21571485.6954
  10642040.52047   8288573.30644  22700777.1644                   22700777.3634
   8162263.30547   6356611.43244  22767918.0704                   22767916.3054
  -6343012.74647  -4941367.18744  22262497.0084                   22262495.1334
 11  8 18 18 21 30.0000000  0  9G17G24G07G08G26G11G13G19G28
   1012321.68846    818713.11943  23880263.6884                   23880264.7664
  -6824713.54346  -5296784.88644  22984275.6884                   22984277.3134
  -3717203.96548  -2883156.52846  20459948.7814                   20459947.2274
  -9026896.15647  -6999603.24146  21010636.3444                   21010635.3364
   6638367.65645   5196104.44142  24123249.8284                   24123250.8874
  -7552911.96147  -5871782.73745  21850279.4304                   21850277.9064
  12244412.18047   9537174.48944  23005698.5314                   23005698.9884
   9752034.20347   7595393.88344  23070441.9064                   23070439.6844
  -4876238.23846  -3798425.97245  22541614.4304                   22541613.2464
 11  8 18 18 22  0.0000000  0  9G17G24G07G08G26G11G13G19G28
    834251.02046    679956.82944  23846377.8204                   23846379.5634
  -6966062.14547  -5406926.57944  22957377.8444                   22957380.4224
  -3803674.30947  -2950536.03046  20443494.1724                   20443492.9024
  -9164604.94947  -7106908.79246  20984431.2194                   20984430.4344
   6476798.41446   5070206.31642  24092504.4144                   24092504.3794
  -7662866.09047  -5957461.25945  21829355.8444                   21829354.3874
  12271426.66847   9558224.64744  23010839.3674                   23010839.6994
   9766539.95747   7606697.01144  23073201.3674                   23073200.1724
  -4984888.93447  -3883088.85945  22520938.9614                   22520937.5904
 11  8 18 18 22 30.0000000  0  9G17G24G07G08G26G11G13G19G28
    656276.21146    541275.26344  23812510.8524                   23812511.9384
  -7107237.07047  -5516932.99444  22930513.7114                   22930515.5314
  -3889831.43747  -3017671.45846  20427099.1484                   20427097.4494
  -9302161.65647  -7214095.81246  20958254.8674                   20958254.1414
   6315555.34446   4944562.46542  24061820.6024                   24061821.3134
  -7772412.11347  -6042821.79745  21808510.1094                   21808508.3834
  12298496.93847   9579318.24344  23015990.7274                   23015990.8874
   9781194.10547   7618115.75844  23075991.0634                   23075988.7704
  -5093545.43046  -3967756.23045  22500262.4224                   22500260.9224
 11  8 18 18 23  0.0000000  0  9G17G24G07G08G26G11G13G19G28
    478404.01246    402673.59944  23778662.1484                   23778664.1524
  -7248230.94147  -5626798.28544  22903683.1174                   22903684.8284
  -3975669.16048  -3084558.00446  20410764.9304                   20410763.3164
  -9439559.37547  -7321158.95346  20932109.2664                   20932108.5394
   6154645.39846   4819178.14542  24031199.7894                   24031201.4184
  -7881544.03147  -6127859.64345  21787742.5704                   21787741.0394
  12325624.33247   9600456.34743  23021152.5864                   23021153.5904
   9795998.03947   7629651.26844  23078807.3364                   23078805.1604
  -5202204.19147  -4052425.38945  22479585.3204                   22479583.6484
 11  8 18 18 23 30.0000000  0  9G17G24G07G08G26G11G13G19G28
    300635.89546    264153.06444  23744834.4694                   23744835.3834
  -7389041.11346  -5736520.43143  22876886.9774                   22876888.9844
  -4061186.31247  -3151194.76346  20394491.0634                   20394489.6954
  -9576795.66447  -7428096.31846  20905994.0704                   20905992.9964
   5994071.08646   4694055.39842  24000643.8984                   24000645.3594
  -7990260.16447  -6212573.47945  21767054.4844                   21767053.5434
  12352805.62547   9621636.47244  23026325.1334                   23026325.7114
   9810948.50847   7641300.92844  23081653.0164                   23081650.9264
  -5310865.98847  -4137096.91845  22458907.4144                   22458906.2774
 11  8 18 18 24  0.0000000  0  9G17G24G07G08G26G11G13G19G28
    122978.18846    125718.59244  23711026.8834                   23711028.2274
  -7529660.34046  -5846093.80743  22850128.0314                   22850129.2234
  -4146377.39547  -3217577.42346  20378279.6564                   20378278.5864
  -9713863.89147  -7534902.71246  20879910.8594                   20879909.8284
   5833838.96146   4569199.28443  23970152.9144                   23970153.6054
  -8098554.67647  -6296958.80345  21746446.5864                   21746445.3444
  12380041.71547   9642859.27243  23031508.2974                   23031508.4024
   9826047.02747   7653065.98344  23084525.8364                   23084523.7664
  -5419528.00447  -4221768.60945  22438229.9844                   22438228.2504
 11  8 18 18 24 30.0000000  0  9G17G24G07G08G26G11G13G19G28
    -54567.89147    -12628.91344  23677241.2734                   23677242.0044
  -7670085.48847  -5955516.01744  22823406.3524                   22823407.8794
  -4231240.88348  -3283704.84746  20362131.2344                   20362129.3634
  -9850762.08648  -7641576.61846  20853859.9694                   20853858.6684
   5673951.81646   4444611.98743  23939727.4924                   23939726.9224
  -8206425.69547  -6381014.10745  21725919.5084                   21725918.7234
  12407329.61747   9664122.44443  23036700.5164                   23036701.3524
   9841290.92247   7664944.28444  23087426.4304                   23087423.9884
  -5528190.85946  -4306440.92845  22417552.0004                   22417550.5314
 11  8 18 18 25  0.0000000  0  9G17G24G07G08G26G11G13G19G28
   -231998.82847   -150886.71144  23643477.0394                   23643478.3164
  -7810312.66447  -6064783.91444  22796722.6254                   22796724.4184
  -4315774.14148  -3349574.92846  20346044.7894                   20346043.6054
  -9987486.41047  -7748115.05546  20827842.2114                   20827841.1484
   5514413.14846   4320296.12243  23909368.5234                   23909368.2464
  -8313870.14147  -6464737.04145  21705473.4774                   21705472.5904
  12434667.38347   9685424.47443  23041903.2114                   23041903.9534
   9856678.40646   7676934.49044  23090354.6484                   23090353.4654
  -5636854.43047  -4391113.83445  22396874.3674                   22396872.5314
 11  8 18 18 25 30.0000000  0  9G17G24G07G08G26G11G13G19G28
   -409313.09447   -289053.59944  23609735.0004                   23609735.9924
  -7950339.29746  -6173895.48844  22770075.7274                   22770078.5354
  -4399975.88747  -3415186.68846  20330021.7034                   20330020.5124
 -10124034.55547  -7854516.18546  20801857.4454                   20801856.7544
   5355225.04746   4196253.53443  23879074.8134                   23879076.2734
  -8420886.39847  -6548126.30245  21685109.2504                   21685107.8794
  12462051.54747   9706762.67244  23047114.2504                   23047114.9654
   9872206.21546   7689034.00744  23093309.5314                   23093307.9024
  -5745519.53547  -4475787.92445  22376195.7894                   22376194.2114
 11  8 18 18 26  0.0000000  0  9G17G24G07G08G26G11G13G19G28
   -586511.14547   -427129.91944  23576015.9224                   23576016.4534
  -8090164.03146  -6282849.71744  22743467.2274                   22743471.0784
  -4483846.96547  -3480540.78946  20314061.6254                   20314060.2034
 -10260406.14148  -7960779.74146  20775907.0864                   20775906.5474
   5196388.53946   4072484.89443  23848850.6884                   23848852.1684
  -8527475.03947  -6631182.36445  21664825.4144                   21664824.8674
  12489477.19547   9728133.18744  23052333.7664                   23052333.9344
   9887869.60246   7701239.19944  23096289.9064                   23096288.7544
  -5854189.40647  -4560465.73545  22355516.6334                   22355515.0354
 11  8 18 18 26 30.0000000  0  9G17G24G07G08G26G11G13G19G28
   -763584.28547   -565108.94044  23542320.1174                   23542320.2974
  -8229777.68746  -6391639.53044  22716900.0784                   22716901.8364
  -4567379.42248  -3545631.01446  20298165.8444                   20298164.5864
 -10396592.46148  -8066898.94846  20749991.7274                   20749990.8054
   5037912.16846   3948996.87243  23818693.3444                   23818694.3834
  -8633628.26647  -6713899.13445  21644625.2664                   21644624.3914
  12516947.46147   9749538.43144  23057561.0234                   23057562.1254
   9903672.37147   7713552.99644  23099297.5004                   23099295.9144
  -5962858.50847  -4645142.94045  22334837.3134                   22334835.8524
 11  8 18 18 27  0.0000000  0  9G17G24G07G08G26G11G13G19G28
   -940535.23047   -702992.69844  23508646.3134                   23508647.9614
  -8369181.72347  -6500266.11544  22690373.6024                   22690372.8444
  -4650576.07848  -3610459.58946  20282334.1644                   20282332.7704
 -10532595.25847  -8172875.14546  20724110.8674                   20724110.1214
   4879794.08646   3825788.08743  23788604.0234                   23788604.8554
  -8739348.26647  -6796278.34145  21624507.5314                   21624506.7974
  12544455.06347   9770972.80243  23062795.9064                   23062796.3674
   9919607.25446   7725969.70044  23102330.4534                   23102328.6484
  -6071531.86347  -4729823.45745  22314157.8594                   22314156.5594
 11  8 18 18 27 30.0000000  0  9G17G24G07G08G26G11G13G19G28
  -1117361.20346   -840779.10344  23474997.7734                   23474998.7814
  -8508372.21147  -6608726.24144  22663885.8984                   22663886.0664
  -4733434.92247  -3675024.94446  20266566.7814                   20266565.3164
 -10668411.30547  -8278705.83646  20698266.3834                   20698265.3284
   4722037.88746   3702861.23143  23758583.5784                   23758584.4964
  -8844632.78147  -6878318.20045  21604472.5864                   21604471.8524
  12571997.75047   9792434.51844  23068037.3594                   23068037.7034
   9935672.35547   7738487.91244  23105386.6644                   23105385.9264
  -6180209.56247  -4814507.37845  22293476.6414                   22293475.4964
 11  8 18 18 28  0.0000000  0  9G17G24G07G08G26G11G13G19G28
  -1294055.10947   -978462.57944  23441374.4224                   23441375.1884
  -8647340.91047  -6717013.50244  22637441.0704                   22637443.1764
  -4815949.12948  -3739321.72046  20250864.5784                   20250863.8364
 -10804032.53947  -8384384.70346  20672458.5554                   20672457.8094
   4564651.24246   3580222.37843  23728633.8914                   23728634.8054
  -8949474.52347  -6960013.04245  21584521.7344                   21584521.0274
  12599577.89847   9813925.41044  23073285.9614                   23073286.1844
   9951870.47746   7751109.77744  23108469.7344                   23108468.2464
  -6288887.11347  -4899191.17545  22272796.2114                   22272794.7194
 11  8 18 18 28 30.0000000  0  9G17G24G07G08G26G11G13G19G28
  -1470617.60946  -1116043.68544  23407774.9774                   23407776.0124
  -8786087.35946  -6825127.53844  22611037.5314                   22611040.4384
  -4898119.82047  -3803350.85446  20235228.2504                   20235226.8554
 -10939459.32447  -8489912.07246  20646687.4694                   20646686.5824
   4407634.20746   3457871.59443  23698754.3134                   23698755.4694
  -9053874.62947  -7041363.75445  21564654.9924                   21564654.1094
  12627189.76647   9835441.00144  23078540.1254                   23078540.4774
   9968195.79346   7763830.71944  23111575.9144                   23111574.6524
  -6397567.96947  -4983877.56045  22252114.8674                   22252113.7734
 11  8 18 18 29  0.0000000  0  9G17G24G07G08G26G11G13G19G28
  -1647050.89546  -1253524.09644  23374201.1484                   23374202.1094
  -8924612.74247  -6933069.31944  22584677.4924                   22584679.9494
  -4979949.44148  -3867114.18946  20219656.3914                   20219655.1374
 -11074692.87547  -8595288.84646  20620953.4224                   20620952.3954
   4250985.39146   3335807.62443  23668945.2034                   23668946.4774
  -9157835.86347  -7122372.47745  21544872.0944                   21544871.3244
  12654826.48847   9856975.95544  23083799.0944                   23083799.5664
   9984641.42646   7776645.47244  23114704.9694                   23114704.1564
  -6506256.87147  -5068570.19345  22231432.3204                   22231430.7624
 11  8 18 18 29 30.0000000  0  9G17G24G07G08G26G11G13G19G28
  -1823349.20346  -1390899.32744  23340652.4844                   23340653.8094
  -9062909.76647  -7040833.20444  22558360.8134                   22558362.1804
  -5061432.61347  -3930607.58446  20204150.6564                   20204149.4454
 -11209727.11748  -8700510.33346  20595257.2424                   20595256.4734
   4094710.98446   3214035.45443  23639206.3204                   23639208.5784
  -9261352.07447  -7203034.44545  21525173.6484                   21525172.8204
  12682488.93847   9878531.01743  23089063.5164                   23089064.0234
  10001209.30946   7789555.42444  23117858.1884                   23117857.5084
  -6614950.34847  -5153266.41545  22210748.7114                   22210746.9024
 11  8 18 18 30  0.0000000  0  9G17G24G07G08G26G11G13G19G28
  -1999504.66847  -1528163.24444  23307130.8674                   23307132.3874
  -9200970.25447  -7148412.78944  22532089.5864                   22532088.7234
  -5142562.86747  -3993825.98046  20188712.2194                   20188710.9574
 -11344553.87948  -8805570.13846  20569600.7274                   20569599.5514
   3938819.19946   3092561.38742  23609542.3834                   23609541.9264
  -9364415.84447  -7283343.84045  21505560.9924                   21505560.0514
  12710179.75447   9900108.09143  23094332.9774                   23094333.5864
  10017901.98046   7802562.66844  23121035.1724                   23121032.5234
  -6723644.03147  -5237962.77245  22190064.6954                   22190063.3874
 11  8 18 18 30 30.0000000  0  9G17G24G07G08G26G11G13G19G28
  -2175511.64146  -1665311.42744  23273637.8204                   23273638.8134
  -9338786.92646  -7255802.38144  22505862.7034                   22505863.1884
  -5223334.19147  -4056764.69346  20173342.0554                   20173340.4574
 -11479165.96948  -8910462.65346  20543984.6484                   20543983.8094
   3783316.49646   2971390.52343  23579951.1484                   23579950.7464
  -9467022.07447  -7363296.72545  21486035.7974                   21486034.6024
  12737900.10947   9921708.25043  23099607.4384                   23099608.1564
  10034721.16046   7815668.44944  23124236.4224                   23124234.4884
  -6832334.32047  -5322656.51145  22169381.3984                   22169379.6524
 11  8 18 18 31  0.0000000  0  9G17G24G07G08G26G11G13G19G28
   -775942.55547   -574738.04544  23539967.3914                   23539968.1214
  -7900932.89846  -6135396.57144  22779476.5784                   22779478.6454
  -3728322.91848  -2891820.86246  20457833.1884                   20457831.7154
 -10038136.51648  -7787582.55546  20818203.8054                   20818202.6804
   5203630.43446   4078128.69543  23850228.2194                   23850228.5554
  -7993746.01247  -6215289.39245  21766390.8364                   21766389.9614
  14341066.03147  11170928.29443  23404679.9064                   23404681.2504
  11627082.64146   9056469.55144  23427251.9924                   23427250.1994
  -5365598.26247  -4179745.30845  22448492.0944                   22448491.0664
 11  8 18 18 31 30.0000000  0  9G17G24G07G08G26G11G13G19G28
   -951647.66447   -711651.02744  23506532.0864                   23506532.3794
  -8038254.87947  -6242400.62744  22753345.5864                   22753347.9884
  -3808373.94948  -2954198.28246  20442600.2424                   20442598.4304
 -10172313.34847  -7892135.91746  20792670.6884                   20792669.4304
   5048912.08646   3957569.08443  23820785.0314                   23820785.4384
  -8095433.50847  -6294526.37945  21747040.1884                   21747039.0984
  14368835.36747  11192566.62243  23409964.8364                   23409965.3324
  11644144.69946   9069764.63044  23430499.1024                   23430497.9344
  -5474285.37547  -4264436.53545  22427809.7664                   22427808.3754
 11  8 18 18 32  0.0000000  0  9G17G24G07G08G26G11G13G19G28
  -1127199.28547   -848444.41944  23473125.4304                   23473126.1484
  -8175324.66847  -6349208.18044  22727262.7974                   22727264.6524
  -3888062.37147  -3016293.18146  20427435.8134                   20427434.1214
 -10306268.44548  -7996516.50546  20767179.4454                   20767178.5394
   4894589.79746   3837317.98543  23791419.2194                   23791418.6484
  -8196658.75447  -6373403.18645  21727777.8524                   21727776.5594
  14396624.68847  11214220.46543  23415252.8914                   23415253.7304
  11661324.57446   9083151.44844  23433768.3754                   23433767.0784
  -5582971.57047  -4349127.07345  22407127.1954                   22407126.6764
 11  8 18 18 32 30.0000000  0  9G17G24G07G08G26G11G13G19G28
  -1302595.02347   -985116.35644  23439748.4924                   23439749.7114
  -8312138.91047  -6455816.61244  22701227.7274                   22701228.5204
  -3967386.22747  -3078103.98546  20412341.0864                   20412339.4884
 -10439998.46548  -8100721.70846  20741731.6414                   20741730.8014
   4740666.80946   3717378.00043  23762127.7114                   23762128.9534
  -8297419.78947  -6451918.26645  21708603.3674                   21708602.2154
  14424431.88347  11235888.25843  23420544.6094                   23420545.5314
  11678620.35246   9096628.60644  23437059.1024                   23437057.2074
  -5691657.39847  -4433817.31745  22386445.3984                   22386443.8054
 11  8 18 18 33  0.0000000  0  9G17G24G07G08G26G11G13G19G28
  -1477829.75847  -1121662.80844  23406402.3284                   23406402.8674
  -8448691.63746  -6562221.29444  22675241.5314                   22675242.9774
  -4046341.43747  -3139627.52846  20397316.0084                   20397314.7624
 -10573498.20748  -8204747.48346  20716327.5234                   20716326.4104
   4587148.39846   3597753.29443  23732915.0314                   23732915.8244
  -8397712.64847  -6530068.51045  21689518.8364                   21689517.7384
  14452256.73847  11257569.82843  23425839.2814                   23425840.6804
  11696031.89546   9110196.02544  23440373.5784                   23440371.5824
  -5800340.54347  -4518505.47245  22365763.5004                   22365762.1254
 11  8 18 18 33 30.0000000  0  9G17G24G07G08G26G11G13G19G28
  -1652904.65247  -1258084.76044  23373086.4924                   23373087.3444
  -8584982.76247  -6668422.07644  22649305.3914                   22649307.0744
  -4124929.68048  -3200865.13646  20382361.5704                   20382359.8094
 -10706767.52748  -8308593.69546  20690966.9534                   20690966.3984
   4434033.94546   3478443.39043  23703777.3444                   23703778.6604
  -8497538.45347  -6607854.83345  21670522.0314                   21670521.3524
  14480093.50847  11279260.66743  23431136.7034                   23431137.9224
  11713553.73446   9123849.31544  23443706.4224                   23443705.8484
  -5909024.73447  -4603194.43545  22345081.5474                   22345080.1254
 11  8 18 18 34  0.0000000  0  9G17G24G07G08G26G11G13G19G28
  -1827820.81647  -1394382.96844  23339801.0474                   23339801.9884
  -8721012.21947  -6774419.00944  22623421.2504                   22623422.0314
  -4203152.51647  -3261818.00446  20367475.9534                   20367474.5864
 -10839807.40648  -8412261.12946  20665650.3914                   20665649.6374
   4281323.10546   3359447.89943  23674718.2504                   23674718.7034
  -8596898.80947  -6685278.46845  21651614.6414                   21651613.8754
  14507936.49647  11300956.40843  23436434.9064                   23436435.9144
  11731180.28646   9137584.14744  23447061.5944                   23447059.6254
  -6017713.41847  -4687886.89945  22324399.0944                   22324397.5664
 11  8 18 18 34 30.0000000  0  9G17G24G07G08G26G11G13G19G28
  -2002577.64147  -1530557.07444  23306546.1094                   23306546.6134
  -8856778.28547  -6880210.68444  22597586.2814                   22597587.5204
  -4281009.85248  -3322486.06946  20352660.3834                   20352658.8484
 -10972616.46548  -8515748.70446  20640377.8984                   20640377.0664
   4129016.58646   3240767.55043  23645735.3444                   23645735.2624
  -8695793.50047  -6762339.24445  21632795.8054                   21632794.3054
  14535781.38746  11322653.53343  23441733.9844                   23441735.1684
  11748907.39546   9151397.43844  23450434.3914                   23450432.9654
  -6126408.75447  -4772584.56745  22303714.8204                   22303713.2464
 11  8 18 18 35  0.0000000  0  9G17G24G07G08G26G11G13G19G28
  -2177174.71947  -1666606.65944  23273321.1644                   23273322.0044
  -8992279.58647  -6985796.05744  22571801.4534                   22571802.6024
  -4358501.88348  -3382869.47746  20337914.2504                   20337912.5864
 -11105193.19548  -8619055.23346  20615149.6414                   20615148.4304
   3977115.91646   3122403.46543  23616829.6094                   23616829.7034
  -8794222.40247  -6839037.08345  21614065.3834                   21614064.0904
  14563623.95347  11344348.85543  23447032.8054                   23447033.5944
  11766731.67246   9165286.48544  23453827.4844                   23453824.2894
  -6235112.45347  -4857288.73845  22283029.1954                   22283028.0274
 11  8 18 18 35 30.0000000  0  9G17G24G07G08G26G11G13G19G28
  -2351607.47347  -1802528.22744  23240127.2894                   23240128.4104
  -9127510.71947  -7091170.87944  22546066.1564                   22546068.6724
  -4435624.44547  -3442964.98946  20323238.4774                   20323236.7664
 -11237532.59848  -8722176.83846  20589966.0704                   20589965.2194
   3825625.67646   3004359.09843  23588002.0394                   23588002.0354
  -8892181.77047  -6915369.06045  21595424.0084                   21595422.9344
  14591463.67647  11366041.97144  23452330.3204                   23452331.4494
  11784652.79346   9179250.98244  23457236.6564                   23457234.9734
  -6343823.22747  -4941998.43545  22262342.2424                   22262341.0664
 11  8 18 18 36  0.0000000  0  9G17G24G07G08G26G11G13G19G28
  -2525876.02046  -1938321.81244  23206964.9614                   23206966.0864
  -9262470.53147  -7196334.29644  22520384.0234                   22520385.2774
  -4512378.38347  -3502773.26746  20308632.5234                   20308630.7664
 -11369634.30548  -8825113.22546  20564827.9224                   20564826.7734
   3674546.50446   2886635.12043  23559252.1334                   23559252.6564
  -8989671.95747  -6991335.41645  21576872.2034                   21576870.7704
  14619295.77746  11387729.19243  23457627.1334                   23457628.2814
  11802666.39146   9193287.46344  23460665.0164                   23460663.5474
  -6452543.11747  -5026715.20645  22241653.4384                   22241652.3244
 11  8 18 18 36 30.0000000  0  9G17G24G07G08G26G11G13G19G28
  -2699975.75447  -2073983.88344  23173835.4774                   23173836.1954
  -9397153.14547  -7301281.74044  22494755.9064                   22494755.4574
  -4588759.33647  -3562290.89746  20294097.6094                   20294096.0554
 -11501492.31648  -8927859.71946  20539736.2504                   20539735.2154
   3523883.82446   2769235.72943  23530582.5234                   23530583.0234
  -9086688.50447  -7066932.72845  21558410.4534                   21558409.3324
  14647120.86346  11409410.84843  23462922.4694                   23462923.0204
  11820772.51646   9207396.11644  23464110.0944                   23464108.0354
  -6561269.97347  -5111437.41845  22220963.3674                   22220961.8714
 11  8 18 18 37  0.0000000  0  9G17G24G07G08G26G11G13G19G28
  -2873902.17246  -2209510.87444  23140738.1564                   23140738.7304
  -9531553.19947  -7406009.02144  22469180.0164                   22469180.4534
  -4664763.68047  -3621515.07646  20279634.6024                   20279632.9264
 -11633101.21948  -9030412.10846  20514691.8364                   20514690.8244
   3373642.32846   2652164.50943  23501992.1644                   23501993.0164
  -9183227.59048  -7142157.97345  21540040.2734                   21540038.4534
  14674938.14546  11431086.52343  23468215.1724                   23468216.6214
  11838971.44146   9221576.98244  23467573.7894                   23467571.9024
  -6670001.79347  -5196163.51245  22200272.5634                   22200270.6804
 11  8 18 18 37 30.0000000  0  9G17G24G07G08G26G11G13G19G28
  -3047650.19947  -2344898.89444  23107674.5634                   23107675.0904
  -9665664.40647  -7510511.23144  22443659.7274                   22443660.7464
  -4740386.71947  -3680442.13046  20265243.8444                   20265242.6094
 -11764455.08248  -9132765.75846  20489695.9454                   20489694.9144
   3223827.82846   2535425.96843  23473483.4224                   23473483.7854
  -9279284.53547  -7217007.52845  21521760.9304                   21521759.5044
  14702748.06646  11452756.37143  23473507.2504                   23473508.9224
  11857264.00046   9235830.85344  23471054.6954                   23471053.4734
  -6778735.94947  -5280891.41745  22179581.0164                   22179579.5904
 11  8 18 18 38  0.0000000  0  9G17G24G07G08G26G11G13G19G28
  -3221214.35547  -2480143.60044  23074646.6174                   23074647.2774
  -9799480.35946  -7614783.32044  22418194.8674                   22418197.0474
  -4815623.53147  -3739068.23546  20250926.5944                   20250925.2464
 -11895548.37948  -9234916.37246  20464749.7734                   20464748.8984
   3074445.82446   2419024.51243  23445056.6174                   23445057.2894
  -9374854.79748  -7291477.85645  21503574.5704                   21503573.0274
  14730551.30946  11474421.06643  23478798.6094                   23478800.0984
  11875650.90646   9250158.20543  23474554.2584                   23474552.1454
  -6887469.64147  -5365618.96645  22158889.6724                   22158888.4144
 11  8 18 18 38 30.0000000  0  9G17G24G07G08G26G11G13G19G28
  -3394592.30147  -2615243.22744  23041653.8524                   23041654.5634
  -9932997.48047  -7718822.55544  22392786.7664                   22392789.1914
  -4890472.69948  -3797392.28346  20236683.3594                   20236682.0744
 -12026377.68748  -9336861.28346  20439853.8444                   20439852.6524
   2925499.37146   2302962.41543  23416713.2034                   23416714.4104
  -9469936.46947  -7365567.44445  21485481.3834                   21485480.0274
  14758345.62146  11496078.82943  23484087.8054                   23484089.1954
  11894130.10546   9264557.49844  23478070.4614                   23478068.8404
  -6996203.10947  -5450346.34045  22138198.5554                   22138197.3204
 11  8 18 18 39  0.0000000  0  9G17G24G07G08G26G11G13G19G28
  -3567778.90647  -2750193.74444  23008697.8914                   23008698.1374
 -10066209.65247  -7822624.18144  22367437.7424                   22367438.8794
  -4964929.27748  -3855410.39446  20222514.9064                   20222513.4224
 -12156936.92248  -9438595.75046  20415009.4064                   20415008.3054
   2776994.09046   2187244.09243  23388452.9774                   23388454.5234
  -9564524.62947  -7439272.48845  21467481.1884                   21467480.4304
  14786131.46546  11517729.86743  23489375.2034                   23489376.5704
  11912702.69946   9279029.53644  23481604.2814                   23481603.9064
  -7104933.46547  -5535071.26945  22117507.5314                   22117506.3284
 11  8 18 18 39 30.0000000  0  9G17G24G07G08G26G11G13G19G28
  -3740773.77347  -2884994.85644  22975777.9144                   22975778.3524
 -10199115.55547  -7926187.19644  22342147.3984                   22342147.4654
  -5038993.55948  -3913122.83946  20208421.0944                   20208419.3324
 -12287224.80948  -9540118.76846  20390216.3134                   20390215.1644
   2628931.11746   2071870.45543  23360277.4614                   23360278.2344
  -9658619.38747  -7512593.05345  21449576.0084                   21449574.5274
  14813904.71546  11539371.27043  23494660.2894                   23494661.3674
  11931364.73446   9293571.32844  23485156.4064                   23485153.4844
  -7213662.30947  -5619795.04345  22096817.3754                   22096816.4344
 11  8 18 18 40  0.0000000  0  9G17G24G07G08G26G11G13G19G28
  -3913573.83647  -3019644.20044  22942894.8984                   22942895.8594
 -10331710.84447  -8029508.18244  22316915.0554                   22316915.5824
  -5112663.02348  -3970527.62046  20194402.1094                   20194400.5784
 -12417237.48448  -9641427.32546  20365475.6334                   20365474.3714
   2481313.57046   1956843.82243  23332186.7424                   23332187.7774
  -9752218.39547  -7585527.31545  21431764.7194                   21431763.2464
  14841664.04747  11561001.68743  23499943.6724                   23499944.8364
  11950114.94547   9308181.82944  23488724.1884                   23488722.6134
  -7322389.05947  -5704517.19845  22076127.3134                   22076126.0474
 11  8 18 18 40 30.0000000  0  9G17G24G07G08G26G11G13G19G28
  -2510752.13747  -1926536.30844  23209842.5394                   23209843.3324
  -8888568.70347  -6904981.80644  22591535.6644                   22591536.7774
  -3610514.85247  -2800022.56446  20480251.4614                   20480249.8714
 -10971548.20348  -8514916.19146  20640581.0634                   20640580.3134
   3909568.37946   3069769.69143  23603974.6954                   23603975.3634
  -8269897.90247  -6430472.38645  21713840.8284                   21713839.4184
  16444824.98846  12810217.86443  23805015.2114                   23805016.5664
  13544369.73447  10550458.23544  23792101.4454                   23792099.0124
  -5855691.53547  -4561635.98045  22355230.4924                   22355229.0554
 11  8 18 18 41  0.0000000  0  9G17G24G07G08G26G11G13G19G28
  -2683147.85246  -2060870.54444  23177036.6804                   23177037.2934
  -9020525.11747  -7007804.90244  22566424.3594                   22566426.6914
  -3683381.86348  -2856802.06746  20466385.0084                   20466383.9344
 -11100992.87548  -8615782.17846  20615948.3594                   20615947.6414
   3762858.10546   2955450.07643  23576056.8594                   23576057.5744
  -8362492.52347  -6502624.01945  21696220.4844                   21696218.7774
  16472556.87546  12831826.91043  23810292.1484                   23810294.3364
  13563298.21946  10565207.70043  23795702.2584                   23795699.2894
  -5964407.21947  -4646349.48845  22334542.4924                   22334541.1844
 11  8 18 18 41 30.0000000  0  9G17G24G07G08G26G11G13G19G28
  -2855338.00847  -2195044.62344  23144270.5234                   23144270.7424
  -9152156.91047  -7110375.04544  22541376.2274                   22541377.8794
  -3755845.35947  -2913267.14346  20452595.9844                   20452594.4344
 -11230148.80148  -8716423.14746  20591371.0004                   20591370.2344
   3616605.66846   2841487.19043  23548225.2034                   23548226.2974
  -8454582.60547  -6574382.49845  21678696.3984                   21678695.1054
  16500271.76247  12853422.76843  23815566.9454                   23815568.3484
  13582313.00446  10580024.31843  23799321.4534                   23799319.3954
  -6073117.14547  -4731058.50945  22313855.5474                   22313854.2734
 11  8 18 18 42  0.0000000  0  9G17G24G07G08G26G11G13G19G28
  -3027312.26246  -2329050.44844  23111544.3444                   23111544.9614
  -9283452.69147  -7212683.39144  22516391.5084                   22516393.4024
  -3827895.43047  -2969410.06246  20438885.4454                   20438884.0704
 -11359004.88348  -8816830.48546  20566850.6414                   20566849.5084
   3470821.62546   2727889.26243  23520484.1174                   23520484.7074
  -8546158.30547  -6645740.14945  21661269.9304                   21661268.8014
  16527975.46146  12875009.79843  23820837.9224                   23820839.7074
  13601419.91846  10594912.73843  23802956.7034                   23802954.5164
  -6181813.51647  -4815756.97545  22293171.5784                   22293170.1174
 11  8 18 18 42 30.0000000  0  9G17G24G07G08G26G11G13G19G28
  -3199067.79747  -2462885.88444  23078860.5554                   23078860.7114
  -9414408.78947  -7314727.05244  22491471.7344                   22491472.8714
  -3899529.84047  -3025229.08846  20425253.6484                   20425252.0434
 -11487557.46548  -8917001.32646  20542387.7974                   20542386.8054
   3325509.26246   2614658.87043  23492831.6024                   23492832.5824
  -8637217.57447  -6716695.41545  21643942.2034                   21643940.5704
  16555666.14546  12896586.79243  23826107.6174                   23826109.7464
  13620617.51246  10609871.83443  23806610.5634                   23806607.9414
  -6290495.72747  -4900444.39745  22272489.6804                   22272488.5664
 11  8 18 18 43  0.0000000  0  9G17G24G07G08G26G11G13G19G28
  -3370602.62547  -2596549.32644  23046218.0004                   23046218.8094
  -9545021.98846  -7416503.56244  22466616.3984                   22466617.0864
  -3970747.37947  -3080723.29746  20411701.7504                   20411700.0744
 -11615803.93448  -9016933.63746  20517983.6024                   20517982.2664
   3180670.94546   2501797.83443  23465270.2194                   23465270.2934
  -8727759.28547  -6787247.38445  21626712.4844                   21626710.7304
  16583341.08646  12918151.46343  23831374.4694                   23831375.9064
  13639903.58646  10624899.89944  23810279.8674                   23810279.6644
  -6399164.16047  -4985121.09245  22251810.9064                   22251809.5434
 11  8 18 18 43 30.0000000  0  9G17G24G07G08G26G11G13G19G28
  -3541908.92247  -2730034.66744  23013619.9224                   23013619.9964
  -9675283.59447  -7518006.05845  22441828.6954                   22441829.6054
  -4041541.03547  -3135887.19046  20398229.7584                   20398228.5394
 -11743735.45748  -9116620.53546  20493638.7734                   20493637.7774
   3036314.79346   2389312.60243  23437799.9534                   23437799.8554
  -8817776.15247  -6857390.38245  21609583.0784                   21609581.3094
  16611003.64546  12939706.48443  23836638.1564                   23836640.1954
  13659281.80146  10639999.71143  23813968.1564                   23813966.3204
  -6507813.51247  -5069782.91545  22231135.4454                   22231134.3954
 11  8 18 18 44  0.0000000  0  9G17G24G07G08G26G11G13G19G28
  -3712989.69147  -2863344.33144  22981064.3754                   22981064.5314
  -9805195.38747  -7619235.96844  22417107.0554                   22417108.2814
  -4111914.19148  -3190723.42546  20384838.5234                   20384836.7854
 -11871353.98848  -9216063.54146  20469353.4224                   20469352.7274
   2892438.32046   2277201.04343  23410421.5864                   23410421.6374
  -8907271.72747  -6927127.17345  21592552.2504                   21592550.7344
  16638646.17246  12961245.85743  23841898.2734                   23841900.4924
  13678744.96946  10655165.77544  23817672.0864                   23817670.0514
  -6616448.78547  -5154433.76445  22210463.2974                   22210461.9734
 11  8 18 18 44 30.0000000  0  9G17G24G07G08G26G11G13G19G28
  -3883838.91847  -2996473.51544  22948552.2734                   22948552.9304
  -9934750.43447  -7720187.89444  22392453.9924                   22392455.4304
  -4181861.72748  -3245228.02346  20371527.7274                   20371526.4884
 -11998652.55948  -9315257.22846  20445129.2974                   20445128.5594
   2749047.60946   2165468.04143  23383134.9694                   23383135.7424
  -8996240.88347  -6996453.79845  21575622.2734                   21575620.7274
  16666270.42646  12982771.03643  23847155.7814                   23847157.9494
  13698294.89546  10670399.40644  23821391.6094                   23821391.3524
  -6725066.34047  -5239070.80945  22189793.5784                   22189792.4694
 11  8 18 18 45  0.0000000  0  9G17G24G07G08G26G11G13G19G28
  -4054453.63747  -3129419.95644  22916086.1024                   22916085.8404
 -10063944.74247  -7820858.73644  22367869.0864                   22367870.2154
  -4251381.12948  -3299398.99246  20358298.8914                   20358297.2304
 -12125627.43048  -9414198.69246  20420967.1484                   20420966.1764
   2606146.41446   2054116.47143  23355941.5784                   23355941.7034
  -9084681.29747  -7065368.38745  21558792.5164                   21558791.0434
  16693874.91046  13004280.76143  23852409.0784                   23852411.7274
  13717930.53946  10685699.79343  23825129.0554                   23825126.2304
  -6833665.54747  -5323693.56745  22169128.2894                   22169127.0124
 11  8 18 18 45 30.0000000  0  9G17G24G07G08G26G11G13G19G28
  -4224835.02347  -3262184.62844  22883663.0474                   22883663.8014
 -10192778.30147  -7921248.47344  22343352.3364                   22343353.5704
  -4320474.02348  -3353237.63246  20345150.8284                   20345149.4384
 -12252278.73448  -9512888.01646  20396866.2344                   20396864.8794
   2463733.80946   1943145.66043  23328840.6644                   23328842.2624
  -9172595.02047  -7133872.56645  21542062.9224                   21542061.4924
  16721454.28546  13025770.98943  23857656.7664                   23857658.8594
  13737646.55146  10701062.98743  23828879.9384                   23828878.4064
  -6942249.23047  -5408304.21945  22148465.4144                   22148463.5124
 11  8 18 18 46  0.0000000  0  9G17G24G07G08G26G11G13G19G28
  -4394971.88746  -3394758.74345  22851287.4774                   22851287.5864
 -10321239.06246  -8021347.70344  22318907.0084                   22318907.8094
  -4389130.14548  -3406735.92446  20332085.9844                   20332084.8594
 -12378594.37548  -9611315.78746  20372829.0004                   20372827.9534
   2321821.26246   1832564.47643  23301835.9774                   23301837.1804
  -9259971.26248  -7201957.95645  21525435.9844                   21525434.9884
  16749014.85946  13047246.49943  23862902.1884                   23862903.9414
  13757450.39546  10716494.34043  23832649.0634                   23832647.8244
  -7050808.93447  -5492896.16445  22127807.2114                   22127805.6804
 11  8 18 18 46 30.0000000  0  9G17G24G07G08G26G11G13G19G28
  -4564866.35547  -3527143.98045  22818957.4614                   22818957.9574
 -10449328.41847  -8121157.53344  22294532.3364                   22294533.2384
  -4457352.60547  -3459896.29246  20319103.5704                   20319102.2894
 -12504575.68748  -9709483.03746  20348855.7664                   20348854.4224
   2180406.74246   1722371.36044  23274926.2344                   23274926.7544
  -9346813.25047  -7269627.02545  21508910.6644                   21508909.1954
  16776550.00046  13068702.21543  23868141.3284                   23868143.8524
  13777335.03546  10731988.86743  23836432.6644                   23836430.7384
  -7159349.20747  -5577472.99545  22107152.6644                   22107151.2894
 11  8 18 18 47  0.0000000  0  9G17G24G07G08G26G11G13G19G28
  -4734517.01647  -3659339.24445  22786673.7584                   22786674.0394
 -10577043.46547  -8220675.72444  22270229.1254                   22270230.0944
  -4525140.48447  -3512718.04146  20306204.3754                   20306203.0664
 -12630219.90648  -9807387.62346  20324946.3284                   20324945.3244
   2039492.33646   1612567.96543  23248110.6484                   23248111.2894
  -9433120.23447  -7336879.23945  21492487.1564                   21492485.7344
  16804057.22746  13090136.20643  23873376.0554                   23873378.9384
  13797298.59446  10747544.84743  23840231.5554                   23840229.3324
  -7267870.24647  -5662034.83745  22086501.8204                   22086500.1844
 11  8 18 18 47 30.0000000  0  9G17G24G07G08G26G11G13G19G28
  -4903928.08647  -3791347.81445  22754435.5234                   22754436.3164
 -10704387.41447  -8319904.70744  22245996.1884                   22245997.7974
  -4592498.55948  -3565204.85146  20293386.0394                   20293385.0274
 -12755530.73048  -9905032.41946  20301100.4774                   20301099.6954
   1899074.17246   1503151.28843  23221390.2274                   23221390.8444
  -9518897.26247  -7403718.47345  21476163.5944                   21476162.5234
  16831527.60246  13111541.39343  23878603.8594                   23878606.5784
  13817332.23447  10763155.37644  23844044.8204                   23844043.2194
  -7376378.76647  -5746586.92645  22065853.2584                   22065851.5664
 11  8 18 18 48  0.0000000  0  9G17G24G07G08G26G11G13G19G28
  -5073095.44947  -3923166.48145  22722244.4694                   22722245.1174
 -10831355.22747  -8418840.60944  22221835.2194                   22221836.1844
  -4659423.66448  -3617354.29846  20280650.7584                   20280649.3834
 -12880503.07048 -10002413.46546  20277318.9924                   20277317.9734
   1759156.33646   1394124.45843  23194764.6024                   23194765.6334
  -9604141.19547  -7470142.31645  21459942.7344                   21459941.3484
  16858960.87146  13132917.84643  23883824.2424                   23883827.2504
  13837435.87146  10778820.51043  23847869.9614                   23847868.6454
  -7484873.03947  -5831127.90445  22045207.6884                   22045206.2274
 11  8 18 18 48 30.0000000  0  9G17G24G07G08G26G11G13G19G28
  -5242016.22747  -4054793.00345  22690099.5944                   22690100.2854
 -10957943.02747  -8517480.36544  22197745.5004                   22197747.1884
  -4725913.50047  -3669164.58446  20267998.5864                   20267997.3204
 -13005133.09048 -10099527.76446  20253602.7894                   20253601.6214
   1619742.17246   1285490.03643  23168235.0084                   23168235.2894
  -9688850.16447  -7536149.32145  21443823.1254                   21443821.8524
  16886355.50446  13154263.99242  23889038.2734                   23889039.9924
  13857609.25847  10794539.96844  23851709.7894                   23851708.4024
  -7593351.56247  -5915656.61845  22024564.5704                   22024563.0004
 11  8 18 18 49  0.0000000  0  9G17G24G07G08G26G11G13G19G28
  -5410685.12147  -4186223.23445  22658003.1174                   22658003.8714
 -11084144.44547  -8615819.10344  22173730.0864                   22173731.5824
  -4791963.11347  -3720631.82646  20255429.3984                   20255428.2274
 -13129414.07047 -10196370.08646  20229952.6254                   20229951.8594
   1480837.35246   1177252.60843  23141801.5864                   23141802.6484
  -9773019.12147  -7601735.50145  21427806.2034                   21427804.8594
  16913712.86746  13175581.18043  23894243.5784                   23894246.9614
  13877853.44946  10810314.59244  23855561.4454                   23855561.3134
  -7701811.29747  -6000170.68145  22003925.4304                   22003924.1174
 11  8 18 18 49 30.0000000  0  9G17G24G07G08G26G11G13G19G28
  -5579107.31647  -4317461.28345  22625952.7734                   22625953.6054
 -11209963.71947  -8713860.05344  22149788.0234                   22149789.1254
  -4857578.66847  -3771760.84546  20242943.0784                   20242941.7934
 -13253351.04347 -10292944.34346  20206368.4694                   20206367.3094
   1342436.73846   1069407.98243  23115464.4844                   23115465.4344
  -9856654.84847  -7666906.19945  21411890.4614                   21411889.5904
  16941022.93046  13196861.46443  23899441.1094                   23899443.6214
  13898158.91446  10826136.88143  23859424.8444                   23859423.9494
  -7810260.12947  -6084676.25545  21983288.2504                   21983286.8794
 11  8 18 18 50  0.0000000  0  9G17G24G07G08G26G11G13G19G28
  -4171858.87547  -3220903.98645  22893743.6174                   22893744.0234
  -9759977.62146  -7584000.70344  22425711.4614                   22425712.2304
  -3347340.94147  -2594952.25646  20530331.9144                   20530330.8164
 -11801520.57047  -9161647.87646  20482642.5164                   20482641.3484
   2779963.62546   2189558.85743  23389017.8594                   23389018.1024
  -8364336.76247  -6504060.93045  21695869.1094                   21695868.0394
  18543698.85246  14445699.68442  24204419.4064                   24204421.7814
  15493939.09846  12069601.98344  24163092.8284                   24163090.3914
  -6343277.97347  -4941573.26745  22262445.7274                   22262444.4884
 11  8 18 18 50 30.0000000  0  9G17G24G07G08G26G11G13G19G28
  -4339788.22347  -3351757.97345  22861788.1644                   22861788.7734
  -9885030.59847  -7681444.53044  22401914.5704                   22401915.4064
  -3412091.52347  -2645407.28246  20518010.2974                   20518009.0594
 -11924766.84447  -9257683.92546  20459189.5864                   20459188.3554
   2642571.66446   2082500.22743  23362872.8444                   23362872.8364
  -8446908.56647  -6568402.59145  21680156.6484                   21680154.9534
  18570901.27045  14466896.09842  24209596.4384                   24209599.3634
  15514354.61746  12085510.03643  24166976.4384                   24166976.4144
  -6451711.22347  -5026066.70245  22241811.3054                   22241809.9184
 11  8 18 18 51  0.0000000  0  9G17G24G07G08G26G11G13G19G28
  -4507471.76247  -3482420.41745  22829878.9064                   22829879.4694
 -10009699.29746  -7778588.90444  22378190.2114                   22378191.3834
  -3476411.52347  -2695526.78446  20505770.6414                   20505769.5234
 -12047666.69547  -9353450.03846  20435802.3914                   20435801.8324
   2505683.95346   1975834.52043  23336823.4304                   23336823.6214
  -8528950.28947  -6632331.21545  21664544.2894                   21664543.5664
  18598043.02346  14488045.24143  24214762.4144                   24214764.6954
  15534818.94546  12101456.18143  24170871.8134                   24170870.8714
  -6560140.55947  -5110557.06745  22221177.7894                   22221176.5594
 11  8 18 18 51 30.0000000  0  9G17G24G07G08G26G11G13G19G28
  -4674909.91047  -3612891.65045  22798016.2274                   22798016.3914
 -10133982.97747  -7875433.27944  22354540.6174                   22354541.7624
  -3540301.80947  -2745311.45046  20493612.4614                   20493611.3834
 -12170219.19548  -9448945.49246  20412481.2424                   20412480.9104
   2369300.15246   1869561.47743  23310870.1414                   23310871.9304
  -8610463.01247  -6695847.63345  21649032.9384                   21649031.5434
  18625119.50445  14509143.48143  24219914.7664                   24219918.3554
  15555327.57846  12117436.93343  24174773.3984                   24174771.9384
  -6668567.87547  -5195045.88845  22200544.6954                   22200543.3914
 11  8 18 18 52  0.0000000  0  9G17G24G07G08G26G11G13G19G28
  -4842093.57447  -3743164.57445  22766202.1724                   22766202.7624
 -10257872.04746  -7971970.17444  22330964.8284                   22330965.7074
  -3603754.27047  -2794754.93246  20481538.0704                   20481537.2154
 -12292414.85547  -9544162.87646  20389228.2894                   20389227.4924
   2233429.34046   1763688.14244  23285015.6884                   23285016.4574
  -8691439.69147  -6758946.31945  21633624.0234                   21633622.2734
  18652134.94945  14530194.19942  24225055.5704                   24225058.8054
  15575885.43446  12133455.92743  24178686.8054                   24178685.2504
  -6776986.29347  -5279527.77045  22179914.0474                   22179912.5984
 11  8 18 18 52 30.0000000  0  9G17G24G07G08G26G11G13G19G28
  -5009022.60247  -3873239.10745  22734437.2424                   22734437.0124
 -10381365.25447  -8068198.62244  22307465.2034                   22307465.5164
  -3666769.37947  -2843857.64146  20469546.7664                   20469545.6054
 -12414252.38747  -9639101.22446  20366043.5704                   20366042.3244
   2098072.22346   1658215.06243  23259258.3284                   23259258.4104
  -8771880.22747  -6821627.24645  21618316.1884                   21618315.4224
  18679085.67645  14551194.46943  24230183.5004                   24230188.5274
  15596489.25446  12149510.81543  24182607.6564                   24182605.8794
  -6885397.94147  -5364004.36645  22159283.6414                   22159281.7114
 11  8 18 18 53  0.0000000  0  9G17G24G07G08G26G11G13G19G28
  -5175690.70347  -4003110.30845  22702720.5004                   22702721.4964
 -10504455.52746  -8164113.06544  22284041.6174                   22284042.3524
  -3729341.72747  -2892615.32146  20457639.8284                   20457638.4184
 -12535724.51647  -9733754.80646  20342928.1724                   20342926.9104
   1963234.95746   1553147.12743  23233598.9304                   23233599.3094
  -8851779.53547  -6883886.43945  21603112.2664                   21603110.7774
  18705973.66046  14572145.81543  24235301.7194                   24235304.9224
  15617141.24646  12165603.20643  24186536.5004                   24186535.6644
  -6993798.40647  -5448472.25045  22138655.5164                   22138654.0004
 11  8 18 18 53 30.0000000  0  9G17G24G07G08G26G11G13G19G28
  -5342101.13747  -4132780.72145  22671053.9304                   22671054.3754
 -10627145.08646  -8259715.26544  22260694.6804                   22260694.9304
  -3791475.59847  -2941031.33146  20445816.4304                   20445814.7934
 -12656833.86747  -9828125.74446  20319881.6724                   20319880.9654
   1828914.42647   1448481.80243  23208039.1804                   23208038.9734
  -8931142.30147  -6945727.54345  21588009.4694                   21588008.5124
  18732791.29746  14593042.49443  24240404.3054                   24240407.9224
  15637834.25446  12181727.60943  24190475.6024                   24190473.6684
  -7102193.07847  -5532935.63345  22118029.0164                   22118027.4384
 11  8 18 18 54  0.0000000  0  9G17G24G07G08G26G11G13G19G28
  -5508251.02347  -4262248.11545  22639436.4924                   22639436.6844
 -10749429.52347  -8355001.81044  22237424.8364                   22237425.4734
  -3853168.40647  -2989103.66146  20434076.3444                   20434075.0824
 -12777575.85547  -9922210.41646  20296905.3754                   20296904.3554
   1695113.94947   1344221.72544  23182578.0634                   23182577.3524
  -9009965.93047  -7007148.54445  21573010.1724                   21573008.7894
  18759537.68046  14613883.50543  24245494.9064                   24245497.8794
  15658567.58246  12197883.36043  24194420.9614                   24194419.8244
  -7210580.55147  -5617393.39745  22097403.3054                   22097401.9964
 11  8 18 18 54 30.0000000  0  9G17G24G07G08G26G11G13G19G28
  -5674140.09847  -4391512.28245  22607868.9224                   22607868.8674
 -10871308.14147  -8449972.09644  22214231.7194                   22214232.9344
  -3914420.90647  -3036832.88446  20422420.3674                   20422419.3954
 -12897949.14147 -10016007.77846  20273998.9534                   20273998.3484
   1561833.72347   1240367.04643  23157214.3754                   23157215.9384
  -9088251.50047  -7068150.28445  21558112.5394                   21558111.2894
  18786208.90246  14634665.95143  24250569.9304                   24250573.5164
  15679337.68446  12214067.73343  24198373.4774                   24198371.9734
  -7318962.74247  -5701847.04545  22076778.9064                   22076777.4844
 11  8 18 18 55  0.0000000  0  9G17G24G07G08G26G11G13G19G28
  -5839766.18747  -4520571.49945  22576350.6954                   22576351.4384
 -10992777.58647  -8544623.58444  22191116.6804                   22191118.2934
  -3975231.45347  -3084217.74946  20410848.2734                   20410847.4064
 -13017950.27047 -10109515.16346  20251163.6334                   20251162.9264
   1429076.44146   1136919.85643  23131951.8444                   23131952.8554
  -9165997.50047  -7128731.57645  21543318.3674                   21543317.1564
  18812803.09046  14655388.41243  24255631.9774                   24255634.3014
  15700143.25846  12230279.92743  24202332.7894                   24202330.9734
  -7427339.00847  -5786296.08045  22056155.4844                   22056153.8794
 11  8 18 18 55 30.0000000  0  9G17G24G07G08G26G11G13G19G28
  -6005125.48847  -4649422.85645  22544884.3284                   22544885.1564
 -11113833.23047  -8638952.62344  22168080.8914                   22168081.6454
  -4035597.44547  -3131256.19646  20399361.0164                   20399360.2114
 -13137575.35247 -10202729.50046  20228399.7974                   20228399.0354
   1296845.75846   1033882.99143  23106789.1094                   23106789.7424
  -9243201.78947  -7188890.73845  21528626.7894                   21528625.6094
  18839319.66846  14676050.52243  24260677.8754                   24260680.5474
  15720983.83246  12246519.19143  24206298.0314                   24206297.9264
  -7535707.80947  -5870739.28845  22035533.6884                   22035532.1684
 11  8 18 18 56  0.0000000  0  9G17G24G07G08G26G11G13G19G28
  -6170211.84047  -4778061.51145  22513469.3054                   22513469.6764
 -11234468.22347  -8732953.88044  22145124.1884                   22145125.1094
  -4095513.40647  -3177943.97546  20387959.0864                   20387958.2074
 -13256817.19148 -10295645.23046  20205708.7974                   20205707.5434
   1165147.89846    931261.29343  23081727.5634                   23081728.5314
  -9319859.17247  -7248623.76445  21514039.4144                   21514037.7344
  18865760.71146  14696653.52342  24265709.5634                   24265712.7074
  15741861.88346  12262787.75443  24210271.1724                   24210270.3444
  -7644064.93747  -5955173.41445  22014913.7894                   22014912.5744
 11  8 18 18 56 30.0000000  0  9G17G24G07G08G26G11G13G19G28
  -6335024.55947  -4906486.93745  22482106.7274                   22482106.9344
 -11354680.88747  -8826626.04944  22122249.1094                   22122249.7344
  -4154979.42647  -3224281.14046  20376643.9454                   20376642.4454
 -13375673.83247 -10388260.79846  20183091.2424                   20183090.5044
   1033983.44547    829055.24243  23056768.6644                   23056769.4774
  -9395970.02047  -7307930.90045  21499555.8594                   21499554.8094
  18892122.87546  14717195.20742  24270725.4304                   24270728.3164
  15762774.76646  12279083.50344  24214250.6954                   24214249.4304
  -7752411.61347  -6039599.39745  21994296.2814                   21994295.4734
 11  8 18 18 57  0.0000000  0  9G17G24G07G08G26G11G13G19G28
  -6499565.34847  -5034700.47545  22450795.3674                   22450795.6524
 -11474471.94946  -8919969.71944  22099453.1414                   22099453.7974
  -4213998.44947  -3270270.01146  20365412.3984                   20365411.3404
 -13494145.93447 -10480576.71146  20160546.9614                   20160545.9224
    903351.04346    727263.81444  23031910.1954                   23031910.6054
  -9471537.04747  -7366814.29645  21485175.9064                   21485174.6804
  18918400.34846  14737670.89842  24275726.9924                   24275729.8404
  15783716.73046  12295401.86043  24218235.5004                   24218235.1214
  -7860751.31247  -6124019.92245  21973680.3914                   21973678.4804
 11  8 18 18 57 30.0000000  0  9G17G24G07G08G26G11G13G19G28
  -6663829.37947  -5162698.36645  22419536.9224                   22419537.1524
 -11593835.85947  -9012980.52944  22076739.3674                   22076739.8594
  -4272566.30947  -3315907.32946  20354267.5474                   20354266.3244
 -13612227.66047 -10572588.44546  20138076.3834                   20138075.4844
    773255.27047    625890.54144  23007153.7734                   23007153.8324
  -9546556.58647  -7425271.07145  21470900.2194                   21470898.2934
  18944593.87546  14758081.10242  24280711.1884                   24280712.8754
  15804688.82846  12311743.63643  24222227.0864                   24222226.6764
  -7969081.21547  -6208432.82345  21953065.3754                   21953063.8714
 11  8 18 18 58  0.0000000  0  9G17G24G07G08G26G11G13G19G28
  -6827810.53147  -5290475.83845  22388332.4774                   22388332.8164
 -11712765.07447  -9105652.60444  22054107.7504                   22054108.1844
  -4330677.54347  -3361188.82846  20343209.6334                   20343208.4264
 -13729911.95347 -10664290.47946  20115681.8914                   20115680.9264
    643702.75846    524940.56144  22982500.3754                   22982500.4574
  -9621023.76247  -7483297.44745  21456729.3914                   21456728.4184
  18970706.06646  14778427.97342  24285680.3594                   24285682.7074
  15825693.82446  12328111.10743  24226223.7584                   24226223.6884
  -8077396.41047  -6292834.27145  21932453.6024                   21932452.5434
 11  8 18 18 58 30.0000000  0  9G17G24G07G08G26G11G13G19G28
  -6991502.35547  -5418027.84245  22357183.1334                   22357183.1214
 -11831252.35547  -9197980.32444  22031560.1174                   22031560.7074
  -4388326.48448  -3406110.10146  20332239.5164                   20332237.9494
 -13847191.17648 -10755676.89046  20093364.2974                   20093363.3594
    514699.92646    424418.91843  22957951.8364                   22957952.2704
  -9694932.96947  -7540889.03445  21442665.2344                   21442663.7034
  18996738.99646  14798713.12142  24290634.4064                   24290636.8164
  15846734.57045  12344506.38043  24230226.7504                   24230226.7624
  -8185692.16447  -6377220.56645  21911845.7734                   21911844.5044
 11  8 18 18 59  0.0000000  0  9G17G24G07G08G26G11G13G19G28
  -7154902.85247  -5545352.86045  22326089.0944                   22326089.3094
 -11949295.12546  -9289961.67744  22009097.5234                   22009097.9304
  -4445512.34848  -3450670.54746  20321357.1484                   20321355.9024
 -13964062.25447 -10846745.26346  20071124.7034                   20071123.8674
    386248.36747    324326.83443  22933508.1884                   22933508.7854
  -9768283.68447  -7598045.42745  21428707.2424                   21428705.5944
  19022690.58246  14818934.76642  24295573.9144                   24295576.2774
  15867809.17246  12360928.03143  24234238.0394                   24234237.2074
  -8293968.72747  -6461591.90045  21891241.7504                   21891239.8874
 11  8 18 18 59 30.0000000  0  9G17G24G07G08G26G11G13G19G28
  -5742586.36747  -4444846.45245  22594843.5164                   22594843.3014
 -10491468.43447  -8153992.78544  22286512.2274                   22286512.9614
  -2926813.64847  -2267268.98446  20610355.7894                   20610354.6484
 -12505100.46547  -9709891.91246  20348755.5474                   20348754.7504
   1833772.85547   1452268.05543  23208963.0004                   23208963.4104
  -8265654.27347  -6427165.37245  21714647.6094   21714646.6454   20623976.23845
  16066689.53942                  24600286.5394                   24600291.6884
  17464333.72746  13604973.12443  24538045.6254                   24538046.0984
  -6826803.94947  -5318346.62445  22170433.6724                   22170432.1054
 11  8 18 19  0  0.0000000  0  9G17G24G07G08G26G11G13G19G28
  -5905402.10947  -4571715.80045  22563860.6724                   22563860.8324
 -10608617.60947  -8245277.84644  22264220.0944                   22264220.4734
  -2983073.86347  -2311108.13546  20599649.6954                   20599649.0434
 -12621150.82048  -9800320.75746  20326672.0004                   20326670.9304
   1706426.28547   1353036.96944  23184729.7734                   23184730.0044
  -8337889.55147  -6483452.59645  21700901.8284   21700900.6524   20649755.11346
  16086776.62043                  24605194.5634                   24605197.5704
  17485467.61746  13621440.96643  24542068.4384                   24542067.2114
  -6935045.26247  -5402690.47745  22149836.0704                   22149834.9144
 11  8 18 19  0 30.0000000  0  9G17G24G07G08G26G11G13G19G28
  -6067926.24647  -4698357.94545  22532933.1564                   22532933.7304
 -10725318.93747  -8336213.90544  22242011.8674                   22242012.8834
  -3038873.00447  -2354588.01646  20589031.3914                   20589030.7464
 -12736789.55148  -9890428.87346  20304666.5164                   20304665.7154
   1579631.90247   1254236.19743  23160601.0314                   23160602.1604
  -8409569.47347  -6539307.09445  21687261.8054   21687260.5234   20675441.62546
  16106791.74143                  24610081.9924                   24610085.7584
  17506625.09446  13637927.33943  24546095.4384                   24546093.4104
  -7043271.96547  -5487022.97345  22129241.1254                   22129239.6604
 11  8 18 19  1  0.0000000  0  9G17G24G07G08G26G11G13G19G28
  -6230157.35947  -4824771.72545  22502062.0554                   22502061.9414
 -10841570.10247  -8426799.19744  22219890.2194                   22219890.8324
  -3094210.42247  -2397708.09146  20578501.0944                   20578500.5164
 -12852013.96948  -9980214.12846  20282740.4844                   20282739.3324
   1453390.95347   1155866.67243  23136579.1174                   23136578.5984
  -8480693.48047  -6594728.39545  21673726.9774   21673725.8794   20701033.12946
  16126732.92543                  24614951.9924                   24614956.0124
  17527804.34846  13654430.57743  24550125.0554                   24550124.3634
  -7151484.20347  -5571344.17945  22108648.9454                   22108647.0944
 11  8 18 19  1 30.0000000  0  9G17G24G07G08G26G11G13G19G28
  -6392096.81247  -4950958.27145  22471245.9454                   22471245.7664
 -10957372.01647  -8517034.43744  22197853.5634                   22197854.4144
  -3149088.75047  -2440470.45446  20568058.5474                   20568057.1484
 -12966824.60548 -10069676.96146  20260892.1024                   20260891.3754
   1327701.73846   1057927.03443  23112660.8204                   23112661.1954
  -8551264.77747  -6649719.01145  21660298.1644   21660296.4494   20726523.98046
  16146595.62143                  24619803.4144                   24619808.0554
  17549000.34046  13670946.84343  24554158.4844                   24554158.0234
  -7259685.21547  -5655656.65145  22088059.2894                   22088057.6724
 11  8 18 19  2  0.0000000  0  9G17G24G07G08G26G11G13G19G28
  -6553741.64147  -5076915.23045  22440485.1414                   22440485.8874
 -11072720.98447  -8606916.71844  22175903.4224                   22175904.7234
  -3203506.15247  -2482873.63846  20557703.1334                   20557701.9064
 -13081217.73848 -10158814.46746  20239124.0474                   20239123.4184
   1202567.14147    960419.57843  23088848.1644                   23088848.4494
  -8621281.62547  -6704277.58745  21646974.1254   21646973.0784   20751912.71946
  16166378.64243                  24624634.5634                   24624639.5864
  17570212.32046  13687475.58443  24558195.1884                   24558193.1454
  -7367873.82847  -5739959.47245  22067471.6484                   22067469.9494
 11  8 18 19  2 30.0000000  0  9G17G24G07G08G26G11G13G19G28
  -6715093.56647  -5202643.93945  22409781.3674                   22409781.6134
 -11187617.75047  -8696446.62845  22154039.3834                   22154040.9654
  -3257465.08647  -2524919.57446  20547435.0784                   20547434.4264
 -13195193.64148 -10247626.86646  20217435.2424                   20217434.5204
   1077985.66047    863343.11043  23065141.4304                   23065141.6724
  -8690746.78147  -6758406.28045  21633755.7194   21633754.0554   20777194.85946
  16186078.81843                  24629446.1484                   24629450.1844
  17591435.32846  13704013.10543  24562233.4614                   24562232.3754
  -7476053.24247  -5824255.07645  22046885.6174                   22046884.0664
 11  8 18 19  3  0.0000000  0  9G17G24G07G08G26G11G13G19G28
  -6876159.09047  -5328149.51145  22379131.3834                   22379131.7894
 -11302067.87147  -8785628.51544  22132260.3134                   22132261.4144
  -3310972.75047  -2566613.88146  20537253.1254                   20537251.9384
 -13308757.57447 -10336118.24046  20195824.6954                   20195823.9064
    953950.56647    766692.41743  23041538.4304                   23041538.5004
  -8759667.77047  -6812110.95645  21620640.6954   21620639.0824   20802360.04745
  16205687.73442                  24634234.6644                   24634238.9964
  17612659.50846  13720551.31143  24566272.3984                   24566271.8954
  -7584231.38347  -5908549.73445  22026300.2424                   22026298.4654
 11  8 18 19  3 30.0000000  0  9G17G24G07G08G26G11G13G19G28
  -7036928.77747  -5453424.53045  22348538.0164                   22348538.5354
 -11416061.35247  -8874454.58044  22110568.1174                   22110569.0274
  -3364020.94547  -2607950.16046  20527158.0234                   20527157.2894
 -13421899.97748 -10424281.15346  20174294.6024                   20174293.4844
    830471.09447    670474.65743  23018041.0314                   23018041.4304
  -8828037.19547  -6865385.81145  21607629.8204   21607628.5864   20827413.07846
  16225209.20342                  24639002.2344                   24639007.6954
  17633890.44546  13737094.78943  24570312.6414                   24570311.1804
  -7692401.03547  -5992837.76045  22005716.0474                   22005714.6414
 11  8 18 19  4  0.0000000  0  9G17G24G07G08G26G11G13G19G28
  -7197406.34447  -5578471.91945  22317999.6414                   22318000.2344
 -11529600.93747  -8962926.96745  22088962.2504                   22088963.5664
  -3416614.27347  -2648931.99746  20517149.8674                   20517148.9774
 -13534623.28148 -10512117.50146  20152844.2194                   20152843.0904
    707543.51647    574686.96244  22994648.2504                   22994649.0124
  -8895859.63347  -6918234.47945  21594724.3914   21594722.3204   20852346.63746
  16244637.60942                  24643747.8674                   24643751.8754
  17655121.42645  13753638.47742  24574352.6644                   24574352.3914
  -7800567.12947  -6077123.01445  21985132.7584                   21985131.5784
 11  8 18 19  4 30.0000000  0  8G17G24G07G08G26G11G19G28
  -7357587.96947  -5703288.72645  22287518.1094                   22287518.3404
 -11642681.85547  -9051041.92044  22067443.3444                   22067444.6524
  -3468749.75447  -2689557.06646  20507229.1804                   20507227.9884
 -13646922.21948 -10599623.14746  20131474.3984                   20131473.4694
    585171.76247    479332.34944  22971361.9144                   22971362.6804
  -8963132.62148  -6970654.98645  21581922.1724   21581920.7154
  17676352.94145  13770182.45343  24578393.4694                   24578393.1604
  -7908727.04347  -6161403.45245  21964550.4614                   21964548.7704
 11  8 18 19  5  0.0000000  0  8G17G24G07G08G26G11G19G28
  -7517474.34047  -5827875.46045  22257093.4534                   22257092.8134
 -11755303.75447  -9138799.23645  22046012.4384                   22046012.9104
  -3520428.97347  -2729826.61746  20497394.7194                   20497393.6374
 -13758796.30948 -10686797.76346  20110185.0704                   20110183.9924
    463354.91447    384410.15943  22948180.8134                   22948180.7894
  -9029857.85247  -7022648.64645  21569224.3204   21569223.3014
  17697580.95746  13786723.60743  24582433.0004                   24582432.5984
  -8016883.05547  -6245680.85245  21943969.0394                   21943967.2464
 11  8 18 19  5 30.0000000  0  8G17G24G07G08G26G11G19G28
  -7677052.66847  -5952222.14545  22226726.4614                   22226726.3674
 -11867453.66447  -9226188.74944  22024671.1644                   22024671.9494
  -3571639.91047  -2769731.27246  20487649.5864                   20487648.8094
 -13870232.38748 -10773631.06246  20088980.0554                   20088978.7854
    342105.19146    289929.89043  22925107.6564                   22925108.1174
  -9096024.41447  -7074207.00545  21556633.9924   21556632.1414
  17718814.51246  13803269.20543  24586473.9144                   24586473.0824
  -8125024.30947  -6329946.75045  21923390.4614                   21923388.6524
 11  8 18 19  6  0.0000000  0  8G17G24G07G08G26G11G19G28
  -7836311.18047  -6076319.64745  22196420.2894                   22196420.4144
 -11979118.74247  -9313200.46945  22003421.6884                   22003422.5274
  -3622372.68447  -2809263.33146  20477995.6254                   20477994.7544
 -13981217.54748 -10860113.01646  20067859.7194                   20067858.8244
    221434.44546    195900.71144  22902145.5084                   22902145.8204
  -9161621.91047  -7125321.95445  21544151.2424   21544149.4144
  17740062.25846  13819825.77143  24590517.2974                   24590516.1454
  -8233140.46147  -6414193.10245  21902816.3834                   21902815.1214
 11  8 18 19  6 30.0000000  0  8G17G24G07G08G26G11G19G28
  -7995255.15247  -6200172.04845  22166174.1804                   22166174.4344
 -12090303.43047  -9399837.86544  21982264.0554                   21982265.1684
  -3672633.00447  -2848427.24746  20468431.3594                   20468430.3134
 -14091755.67248 -10946246.60946  20046825.4454                   20046824.2934
    101337.26246    102318.51443  22879291.4304                   22879291.7464
  -9226656.96147  -7175998.59145  21531775.5164   21531773.3874
  17761315.66046  13836386.79343  24594561.5474                   24594560.5164
  -8341238.21547  -6498425.09045  21882246.3444                   21882244.9414
 11  8 18 19  7  0.0000000  0  8G17G24G07G08G26G11G19G28
  -8153882.53547  -6323777.75645  22135988.2424                   22135988.8714
 -12201004.99647  -9486098.80044  21961198.4454                   21961199.1644
  -3722420.00847  -2887222.34546  20458957.3754                   20458956.1994
 -14201843.67648 -11032029.46646  20025876.2504                   20025875.6294
    -18184.52346      9184.64044  22856546.8984                   22856547.5944
  -9291128.64847  -7226236.27545  21519506.9064   21519505.2734
  17782573.67246  13852951.45943  24598607.3134                   24598605.8834
  -8449316.82447  -6582642.19545  21861679.6484                   21861677.9224
 11  8 18 19  7 30.0000000  0  8G17G24G07G08G26G11G19G28
  -8312194.01647  -6447137.31245  22105863.1414                   22105862.7154
 -12311223.49647  -9571983.28844  21940223.8364                   21940225.6684
  -3771734.92247  -2925649.56946  20449573.2974                   20449572.0634
 -14311481.09048 -11117461.21946  20005012.9774                   20005012.0084
   -137131.73046    -83501.51043  22833911.7734                   22833912.5394
  -9355039.09447  -7276036.61045  21507344.4384   21507343.5514
  17803832.26246  13869516.53243  24602652.2424                   24602650.9224
  -8557378.15647  -6666845.83745  21841116.2814                   21841114.6294
 11  8 18 19  8  0.0000000  0  8G17G24G07G08G26G11G19G28
  -8470192.42247  -6570252.90645  22075796.4694                   22075796.6564
 -12420960.61347  -9657492.70045  21919341.7274                   21919343.3554
  -3820581.57847  -2963711.93246  20440278.1414                   20440276.9964
 -14420669.77748 -11202543.32146  19984234.9144                   19984234.3364
   -255507.33247   -175742.20544  22811386.5474                   22811386.2464
  -9418392.45347  -7325402.85245  21495289.0084   21495287.4384
  17825085.71945  13886077.57042  24606695.9384                   24606695.7274
  -8665426.52747  -6751039.34945  21820555.3284                   21820553.6134
 11  8 18 19  8 30.0000000  0  8G17G24G07G08G26G11G19G28
  -7052451.93747  -5465520.00845  22345583.5864                   22345583.5634
 -10954791.69547  -8515023.39545  22198344.9924                   22198345.4884
  -2293539.06247  -1773808.70046  20730864.1724                   20730863.2154
 -12953984.36347 -10059671.57046  20263336.1254                   20263335.2664
   1202112.86347    960065.75344  23088762.0314                   23088761.7854
  -7905767.72347  -6146734.22345  21783131.8284   21783130.3914   19421750.50046
  15130231.91442                  24910532.4304                   24910530.9064
  -7198039.32447  -5607620.76445  22099789.6564                   22099788.1724
 11  8 18 19  9  0.0000000  0  8G17G24G07G08G26G11G19G28
  -7209820.35547  -5588144.71445  22315637.5474                   22315637.4614
 -11063560.62547  -8599778.37844  22177646.6884                   22177647.2304
  -2341449.06647  -1811141.18746  20721747.4694                   20721746.2624
 -13062268.55547 -10144048.85246  20242729.9144                   20242729.2734
   1084883.30947    868718.08243  23066453.6484                   23066453.9884
  -7968007.83647  -6195232.98345  21771287.9064   21771286.7424   19442987.33246
  15146780.09842                  24914572.9614                   24914571.8164
  -7306062.47747  -5691794.62945  22079233.7194                   22079232.3134
 11  8 18 19  9 30.0000000  0  7G17G24G07G08G26G11G28
  -7366879.05147  -5710528.08145  22285749.6884                   22285750.2464
 -11171849.42247  -8684159.24544  22157039.6954                   22157040.2424
  -2388897.41447  -1848113.95346  20712718.2974                   20712717.0824
 -13170104.18047 -10228076.62046  20222209.5784                   20222209.0864
    968221.28546    777812.61444  23044253.8054                   23044254.5784
  -8029698.57847  -6243303.71445  21759548.6564   21759547.2894
  -7414080.29747  -5775964.35745  22058678.2584                   22058676.8674
 11  8 18 19 10  0.0000000  0  7G17G24G07G08G26G11G28
  -7523617.18747  -5832661.64645  22255923.2894                   22255923.8874
 -11279646.71947  -8768157.10944  22136526.5704                   22136526.9844
  -2435874.39847  -1884719.43046  20703779.0314                   20703777.9654
 -13277479.35247 -10311745.59746  20201777.1094                   20201775.9344
    852137.30947    687357.53044  23022163.7034                   23022164.0594
  -8090830.69147  -6290939.11445  21747915.0864   21747914.3634
  -7522083.27347  -5860122.49745  22038126.5314                   22038124.8404
 11  8 18 19 10 30.0000000  0  7G17G24G07G08G26G11G28
  -7680029.39547  -5954541.25345  22226159.1484                   22226159.6134
 -11386946.56247  -8851767.34644  22116108.1724                   22116108.9024
  -2482375.56647  -1920954.13346  20694930.2504                   20694929.0004
 -13384387.73048 -10395050.81846  20181432.5944                   20181432.0984
    736636.35946    597356.80444  23000184.3054                   23000184.4804
  -8151400.59447  -6338136.43645  21736389.4844   21736388.4844
  -7630067.23847  -5944265.85745  22017577.4454                   22017576.1884
 11  8 18 19 11  0.0000000  0  7G17G24G07G08G26G11G28
  -7836104.10947  -6076157.87045  22196459.5164                   22196459.4534
 -11493736.39846  -8934980.18045  22095786.5474                   22095787.7704
  -2528390.27347  -1956809.76946  20686173.8754                   20686172.5594
 -13490816.52747 -10477982.35746  20161180.1644                   20161179.3164
    621729.79747    507819.23743  22978318.6094                   22978319.4024
  -8211397.62147  -6384887.37045  21724972.7584   21724971.7034
  -7738021.58247  -6028386.11545  21997034.7584                   21997033.1174
 11  8 18 19 11 30.0000000  0  7G17G24G07G08G26G11G28
  -7991839.82447  -6197510.33545  22166823.8284                   22166823.9734
 -11600014.09846  -9017793.92744  22075562.4534                   22075563.2074
  -2573918.31247  -1992286.18546  20677510.3444                   20677508.9384
 -13596763.39847 -10560538.36046  20141018.9534                   20141018.4924
    507418.75846    418745.72244  22956565.8834                   22956566.4144
  -8270822.14147  -6431192.18845  21713664.4694   21713663.2854
  -7845946.62947  -6112483.54545  21976496.7194                   21976495.7624
 11  8 18 19 12  0.0000000  0  7G17G24G07G08G26G11G28
  -8147240.04747  -6318601.39045  22137251.8594                   22137251.8954
 -11705782.60547  -9100210.93544  22055436.0474                   22055436.4344
  -2618964.30148  -2027386.97446  20668938.3594                   20668936.7504
 -13702230.64547 -10642720.62946  20120949.2894                   20120948.6054
    393699.48847    330133.27544  22934925.5634                   22934926.0164
  -8329679.22347  -6477054.85045  21702464.5164   21702463.0234
  -7953847.03147  -6196561.77845  21955964.3364                   21955962.6414
 11  8 18 19 12 30.0000000  0  7G17G24G07G08G26G11G28
  -8302309.07847  -6439434.36945  22107743.5084                   22107743.4454
 -11811045.59047  -9182233.98844  22035404.5084                   22035404.9384
  -2663533.36348  -2062116.14046  20660456.8594                   20660455.8984
 -13807221.29347 -10724531.51746  20100970.2034                   20100969.6524
    280567.28147    241978.33044  22913397.1724                   22913398.2464
  -8387974.32847  -6522479.62345  21691371.0314   21691369.7114
  -8061727.88347  -6280624.76045  21935435.2034                   21935433.8134
 11  8 18 19 13  0.0000000  0  7G17G24G07G08G26G11G28
  -8457041.66047  -6560005.17245  22078299.1174                   22078298.8204
 -11915796.97346  -9263858.42745  22015471.2734                   22015471.3794
  -2707621.39847  -2096470.47446  20652067.0944                   20652066.0124
 -13911729.42647 -10805966.43546  20081083.0234                   20081082.4454
    168027.03546    154284.68044  22891981.3914                   22891982.4804
  -8445704.02347  -6567463.79945  21680385.6334   21680384.6254
  -8169585.31247  -6364669.47845  21914910.6254                   21914909.3794
 11  8 18 19 13 30.0000000  0  7G17G24G07G08G26G11G28
  -8611436.32847  -6680312.66145  22048918.7894                   22048918.5274
 -12020034.66847  -9345082.56044  21995635.3754                   21995635.6524
  -2751228.00047  -2130449.66446  20643768.8134                   20643768.4144
 -14015752.39547 -10887023.30846  20061288.0004                   20061287.4304
     56079.80546     67053.08144  22870678.7664                   22870679.0554
  -8502868.11747  -6612007.24345  21669507.6414   21669506.1954
  -8277418.87547  -6448695.63845  21894390.7274                   21894388.9304
 11  8 18 19 14  0.0000000  0  7G17G24G07G08G26G11G28
  -8765495.09847  -6800358.40645  22019602.0164                   22019602.2114
 -12123760.08247  -9425907.53345  21975896.9304                   21975897.1604
  -2794356.49647  -2164056.30946  20635562.1884                   20635561.0554
 -14119291.48847 -10967703.11546  20041585.6024                   20041584.8164
    -55276.85246    -19718.37844  22849488.2734                   22849489.6484
  -8559470.45747  -6656112.99445  21658736.4534   21658735.5274
  -8385232.14547  -6532705.95745  21873874.6094                   21873873.2234
 11  8 18 19 14 30.0000000  0  7G17G24G07G08G26G11G28
  -8919222.81247  -6920146.21745  21990348.4304                   21990348.2464
 -12226977.53547  -9506336.68744  21956255.1334                   21956255.6024
  -2837012.82847  -2197295.03346  20627445.0164                   20627443.8404
 -14222350.25448 -11048008.65146  20021974.1564                   20021973.1134
   -166048.13747   -106033.64344  22828409.5234                   22828409.8984
  -8615517.60947  -6699786.10045  21648070.9614   21648069.9414
  -8493030.97347  -6616705.04145  21853360.8134                   21853359.6844
 11  8 18 19 15  0.0000000  0  7G17G24G07G08G26G11G28
  -9072619.91047  -7039676.37345  21961158.2424                   21961157.9534
 -12329686.78547  -9586369.83544  21936710.8754                   21936710.8954
  -2879198.19147  -2230166.75846  20619417.7584                   20619416.4064
 -14324927.77048 -11127939.18446  20002453.7894                   20002453.4574
   -276234.98447   -191893.49044  22807441.2814                   22807441.5864
  -8671011.55147  -6743028.14045  21637510.8204   21637509.5004
  -8600816.90247  -6700694.05045  21832849.6644                   21832847.9454
 11  8 18 19 15 30.0000000  0  7G17G24G07G08G26G11G28
  -9225682.03547  -7158945.49945  21932031.1954                   21932031.0984
 -12431883.05547  -9666003.25044  21917263.6024                   21917263.3754
  -2920909.43048  -2262669.05846  20611479.9144                   20611479.1804
 -14427019.10548 -11207490.87346  19983026.7034                   19983025.7854
   -385833.65246   -277295.04244  22786586.1484                   22786585.8054
  -8725949.43747  -6785836.88545  21627056.5944   21627055.5004
  -8708586.52347  -6784670.36245  21812341.8444                   21812340.5784
 11  8 18 19 16  0.0000000  0  7G17G24G07G08G26G11G28
  -9378408.20347  -7277952.86145  21902968.6094                   21902968.5744
 -12533564.43447  -9745235.45044  21897914.0554                   21897914.1134
  -2962146.82047  -2294802.12246  20603632.8984                   20603631.9024
 -14528622.13748 -11286662.06946  19963692.3914                   19963691.5744
   -494843.04747   -362237.42244  22765841.5634                   22765842.5904
  -8780331.50047  -6828212.52845  21616708.1174   21616706.8364
  -8816339.98047  -6868634.07045  21791837.4614                   21791835.7504
 11  8 18 19 16 30.0000000  0  7G17G24G07G08G26G11G28
  -9530800.58647  -7396700.13045  21873969.1564                   21873969.2974
 -12634732.65247  -9824067.79844  21878662.4224                   21878662.1054
  -3002913.52347  -2326568.40046  20595875.1254                   20595874.3054
 -14629738.15248 -11365453.77346  19944450.4064                   19944449.4304
   -603266.14847   -446722.96344  22745209.7194                   22745210.0634
  -8834162.05547  -6870158.42745  21606464.5864   21606463.0944
  -8924080.21547  -6952587.48945  21771334.8054                   21771333.5594
 11  8 18 19 17  0.0000000  0  7G17G24G07G08G26G11G28
  -9682856.25047  -7515185.03245  21845033.8284                   21845033.6804
 -12735383.89147  -9902497.32644  21859509.2974                   21859509.2704
  -3043207.75047  -2357966.53546  20588207.1414                   20588206.5904
 -14730362.66048 -11443862.48146  19925302.2114                   19925301.5984
   -711100.27347   -530749.52344  22724688.7194                   22724690.1454
  -8887439.68047  -6911673.47545  21596326.0004   21596324.9104
  -9031805.62547  -7036529.37145  21750835.3594                   21750833.6604
 11  8 18 19 17 30.0000000  0  7G17G24G07G08G26G11G28
  -9834575.78147  -7633407.99445  21816162.9614                   21816162.5394
 -12835518.34847  -9980524.14044  21840454.4534                   21840453.6484
  -3083031.28147  -2388997.89046  20580629.2584                   20580628.0124
 -14830495.47348 -11521888.05146  19906247.4144                   19906247.0984
   -818346.71147   -614318.19644  22704281.0474                   22704281.4924
  -8940166.30547  -6952759.16145  21586292.7344   21586291.1414
  -9139517.78947  -7120460.91445  21730338.2894                   21730337.1214
 11  8 18 19 18  0.0000000  0  7G17G24G07G08G26G11G28
  -8410531.93447  -6523763.38945  22087149.1884                   22087149.1764
 -11359710.07447  -8830543.61144  22121290.9694                   22121290.8014
  -1546962.01647  -1192060.82946  20872933.0234                   20872932.3794
 -13354710.35548 -10371925.62546  20187079.8754                   20187079.7034
    650419.61747    530175.08543  22983777.4924                   22983778.6764
  -7416920.03147  -5765814.03045  21876156.7734   21876155.6294
  -7671791.77747  -5976778.29645  22009637.5004                   22009635.6214
 11  8 18 19 18 30.0000000  0  7G17G24G07G08G26G11G28
  -8561575.82847  -6641459.89345  22058406.4144                   22058406.4454
 -11458806.38347  -8907761.51844  22102433.5864                   22102433.5234
  -1585844.82448  -1222359.16746  20865534.4614                   20865533.5474
 -13453853.85548 -10449180.30446  20168213.5944                   20168212.9774
    544350.15246    447523.56544  22963593.4224                   22963593.8674
  -7468547.01247  -5806042.84045  21866332.7424   21866331.2584
  -7779476.89547  -6060688.77145  21989145.6804                   21989143.9384
 11  8 18 19 19  0.0000000  0  7G17G24G07G08G26G11G28
  -8712283.15647  -6758894.13445  22029727.3594                   22029727.5124
 -11557383.94947  -8984575.14944  22083675.1644                   22083674.7384
  -1624259.80947  -1252292.93846  20858224.4614                   20858223.4454
 -13552502.37147 -10526049.26946  20149441.7584                   20149441.0274
    438867.33247    365329.12944  22943520.5944                   22943521.1254
  -7519627.93747  -5845846.14345  21856612.2114   21856610.6134
  -7887151.57047  -6144591.09945  21968655.8364                   21968654.4494
 11  8 18 19 19 30.0000000  0  7G17G24G07G08G26G11G28
  -8862653.95747  -6876066.13445  22001113.0314                   22001112.6914
 -11655442.19547  -9060984.15545  22065014.9844                   22065015.6334
  -1662207.93447  -1281862.93546  20851003.0474                   20851002.1024
 -13650654.83648 -10602531.72146  20130764.0784                   20130763.1094
    333970.60947    283591.44644  22923559.4454                   22923560.6374
  -7570164.22747  -5885225.10545  21846995.4694   21846993.9304
  -7994815.84847  -6228485.33045  21948167.7584                   21948166.1914
 11  8 18 19 20  0.0000000  0  7G17G24G07G08G26G11G28
  -9012685.39147  -6992973.70145  21972563.0084                   21972562.7034
 -11752977.70347  -9136985.82944  22046454.0474                   22046455.0704
  -1699688.00848  -1311068.21646  20843871.0474                   20843869.9534
 -13748307.21948 -10678624.48346  20112181.6414                   20112180.7424
    229662.23446    202312.15444  22903710.4454                   22903711.1214
  -7620154.77347  -5924178.78645  21837482.4384   21837480.9384
  -8102467.94147  -6312370.05845  21927682.6024                   21927680.9804
 11  8 18 19 20 30.0000000  0  7G17G24G07G08G26G11G28
  -9162372.91847  -7109613.27345  21944079.0554                   21944078.4844
 -11849985.22747  -9212576.07445  22027994.3054                   22027995.0784
  -1736696.60947  -1339906.09846  20836828.9144                   20836827.7974
 -13845453.91848 -10754323.22546  20093694.9774                   20093694.3364
    125946.21547    121494.49744  22883974.3524                   22883974.3244
  -7669596.76247  -5962705.00245  21828073.9384   21828072.5704
  -8210104.29747  -6396242.54445  21907199.7194                   21907198.4494
 11  8 18 19 21  0.0000000  0  7G17G24G07G08G26G11G28
  -9311715.61347  -7225984.18945  21915659.1094                   21915659.5394
 -11946463.39847  -9287753.84745  22009635.0164                   22009636.2584
  -1773233.42247  -1368376.38446  20829875.8984                   20829874.9884
 -13942092.87548 -10829626.30646  20075305.3524                   20075304.6994
     22822.82847     41138.59844  22864349.7734                   22864350.1994
  -7718490.89847  -6000804.34445  21818769.6564   21818768.3794
  -8317724.75847  -6480102.63245  21886720.2584                   21886718.8634
 11  8 18 19 21 30.0000000  0  7G17G24G07G08G26G11G28
  -9460714.30147  -7342087.02545  21887305.6484                   21887305.4064
 -12042413.16047  -9362519.87545  21991375.6804                   21991377.2304
  -1809301.06648  -1396481.06546  20823012.0634                   20823011.2114
 -14038224.69547 -10904534.22346  20057012.0944                   20057011.2384
    -79709.63746    -38756.86044  22844838.7424                   22844840.1524
  -7766840.15247  -6038479.09145  21809568.8984   21809568.0824
  -8425331.24647  -6563951.83045  21866243.5004                   21866242.1914
 11  8 18 19 22  0.0000000  0  7G17G24G07G08G26G11G28
  -9609368.66447  -7457921.56145  21859017.5234                   21859017.6094
 -12137833.34847  -9436873.26145  21973218.8204                   21973219.3484
  -1844900.62148  -1424221.00446  20816238.2504                   20816237.2584
 -14133847.66047 -10979045.63346  20038815.6094                   20038814.8364
   -181651.10547   -118191.78244  22825440.3134                   22825440.9574
  -7814645.35947  -6075729.92545  21800471.6094   21800470.5474
  -8532924.14547  -6647790.45445  21845769.3834                   21845767.7624
 11  8 18 19 22 30.0000000  0  7G17G24G07G08G26G11G28
  -9757675.37947  -7573485.20945  21830795.9614                   21830795.5904
 -12232720.12146  -9510810.97944  21955162.6414                   21955162.6454
  -1880029.44548  -1451594.16046  20809553.4384                   20809552.4104
 -14228957.00847 -11053156.81946  20020716.5634                   20020716.2424
   -282998.96147   -197164.14544  22806154.1334                   22806154.8634
  -7861905.34447  -6112555.87644  21791478.8594   21791477.3954
  -8640500.86747  -6731616.44845  21825298.1724                   21825296.8404
 11  8 18 19 23  0.0000000  0  7G17G24G07G08G26G11G28
  -9905628.66047  -7688773.43345  21802641.4614                   21802641.4264
 -12327067.08247  -9584328.06545  21937208.5314                   21937208.8714
  -1914683.04347  -1478596.99946  20802959.2584                   20802957.7424
 -14323546.35947 -11126862.81446  20002716.8914                   20002716.1914
   -383748.25846   -275670.09144  22786982.1254                   22786983.0594
  -7908615.73047  -6148953.59645  21782589.7814   21782588.4414
  -8748056.41447  -6815425.95345  21804830.8834                   21804829.3634
 11  8 18 19 23 30.0000000  0  7G17G24G07G08G26G11G28
 -10053224.93747  -7803783.50345  21774554.5634                   21774554.5434
 -12420870.43747  -9657421.56345  21919358.3364                   21919359.1024
  -1948859.20748  -1505227.79546  20796455.2274                   20796454.4774
 -14417611.25848 -11200160.13746  19984817.1724                   19984816.4344
   -483895.97747   -353707.31944  22767924.8524                   22767925.5474
  -7954775.11747  -6184921.95345  21773806.2424   21773804.8834
  -8855587.57847  -6899216.45945  21784368.6564                   21784367.0824
 11  8 18 19 24  0.0000000  0  7G17G24G07G08G26G11G28
 -10200466.30147  -7918517.00045  21746535.7194                   21746535.2194
 -12514131.69547  -9730092.67745  21901611.3444                   21901612.1374
  -1982561.34848  -1531489.24646  20790042.3754                   20790041.0744
 -14511153.01247 -11273049.82646  19967016.6564                   19967016.0164
   -583444.77347   -431277.81144  22748981.4224                   22748981.8594
  -8000387.19947  -6220463.83245  21765126.8204   21765125.6994
  -8963097.39547  -6982990.34745  21763910.2424                   21763908.7504
 11  8 18 19 24 30.0000000  0  7G17G24G07G08G26G11G28
 -10347346.81247  -8032969.31745  21718584.9694                   21718584.7504
 -12606844.63347  -9802336.50945  21883968.4384                   21883969.3554
  -2015784.49247  -1557377.43946  20783720.3284                   20783718.8634
 -14604164.29748 -11345526.15646  19949317.1484                   19949316.3404
   -682389.52747   -508377.62144  22730152.5554                   22730153.4574
  -8045447.80947  -6255575.99144  21756551.6564   21756550.3984
  -9070580.42247  -7066743.34645  21743456.8754                   21743455.3204
 11  8 18 19 25  0.0000000  0  7G17G24G07G08G26G11G28
 -10493867.25847  -8147141.07545  21690703.1414                   21690703.1024
 -12699009.66847  -9874153.40345  21866430.2424                   21866431.3204
  -2048530.80547  -1582894.08246  20777488.8054                   20777487.8484
 -14696645.12948 -11417589.14946  19931718.6414                   19931717.8444
   -780731.90247   -585008.04144  22711438.5084                   22711439.5354
  -8089959.55147  -6290260.46844  21748081.6414   21748080.6094
  -9178038.62947  -7150477.00845  21723008.1954                   21723006.5004
 11  8 18 19 25 30.0000000  0  7G17G24G07G08G26G11G28
 -10640024.36747  -8261029.68245  21662889.9694                   21662889.9104
 -12790622.89147  -9945540.29945  21848996.6484                   21848998.2424
  -2080798.25048  -1608037.57746  20771348.2734                   20771347.1374
 -14788591.07448 -11489235.34046  19914221.8914                   19914221.1604
   -878469.05947   -661166.88444  22692840.4144                   22692841.0274
  -8133920.74247  -6324515.92945  21739716.0474   21739714.6844
  -9285469.17648  -7234189.12045  21702565.2424                   21702563.5314
 11  8 18 19 26  0.0000000  0  7G17G24G07G08G26G11G28
 -10785817.11347  -8374634.40645  21635147.0554                   21635146.7114
 -12881683.05547 -10016496.25445  21831668.6094                   21831669.6994
  -2112586.82847  -1632807.94246  20765299.2734                   20765298.2194
 -14880000.33648 -11560463.35546  19896827.7344                   19896826.2274
   -975600.68447   -736853.88344  22674356.1954                   22674356.7974
  -8177332.12947  -6358343.00845  21731455.0394   21731453.8954
  -9392871.48847  -7317879.21745  21682126.8134                   21682125.3284
 11  8 18 19 26 30.0000000  0  7G17G24G07G08G26G11G28
 -10931243.92247  -8487953.96545  21607472.9144                   21607472.7464
 -12972188.62547 -10087020.07545  21814445.9694                   21814447.1054
  -2143896.81647  -1657205.35946  20759341.1884                   20759340.0394
 -14970870.86348 -11631271.56346  19879535.2584                   19879534.2544
  -1072126.60547   -812068.87444  22655988.1334                   22655988.6524
  -8220194.75847  -6391742.43545  21723299.0634   21723297.5864
  -9500244.59848  -7401546.57245  21661694.3444                   21661692.8094
 11  8 18 19 27  0.0000000  0  7G17G24G07G08G26G11G28
  -9500882.35247  -7373386.46945  21879661.7664                   21879661.7344
 -11486717.64547  -8929510.19045  22097121.0784                   22097122.5664
   -599309.89847   -453631.15946  21053266.4534                   21053265.0664
 -13485780.47747 -10474058.28646  20162138.6174                   20162137.6644
    407374.33246    340788.94744  22937527.9144                   22937529.1804
  -6687090.22347  -5197115.51545  22015038.6954   22015037.5784
  -8032167.83647  -6257590.64045  21941060.2734                   21941058.6094
 11  8 18 19 27 30.0000000  0  7G17G24G07G08G26G11G28
  -9645577.53547  -7486135.93745  21852126.9384                   21852126.9264
 -11576111.69947  -8999167.88045  22080110.2504                   22080110.9024
   -629665.47747   -477284.89246  21047489.6414                   21047488.7584
 -13575569.90248 -10544024.08046  20145052.3134                   20145051.5004
    312058.52746    266516.87844  22919390.2974                   22919390.7234
  -6728859.28147  -5229662.83244  22007090.2814   22007089.1724
  -8139484.62148  -6341214.11945  21920638.3674                   21920636.9694
 11  8 18 19 28  0.0000000  0  7G17G24G07G08G26G11G28
  -9789906.51247  -7598600.04245  21824662.1334                   21824662.3444
 -11664949.54347  -9068392.14945  22063205.2814                   22063205.7814
   -659545.69147   -500568.21446  21041803.9064                   21041803.1254
 -13664817.52348 -10613567.69146  20128069.1414                   20128067.9804
    217346.97747    192715.67844  22901366.8524                   22901367.6644
  -6770084.27347  -5261786.20345  21999245.3204   21999244.5744
  -8246773.56248  -6424815.87845  21900221.7034                   21900220.4024
 11  8 18 19 28 30.0000000  0  7G17G24G07G08G26G11G28
  -9933877.98447  -7710785.57845  21797265.3444                   21797265.2234
 -11753239.25447  -9137189.29645  22046404.3444                   22046404.8594
   -688960.02747   -523488.50446  21036206.7894                   21036205.3554
 -13753530.54347 -10682694.72746  20111187.8204                   20111186.8284
    123229.96147    119377.71944  22883457.4064                   22883457.8634
  -6810775.62547  -5293493.74345  21991502.5314   21991501.0634
  -8354043.66047  -6508402.96845  21879809.0554                   21879807.8484
 11  8 18 19 29  0.0000000  0  7G17G24G07G08G26G11G28
 -10077482.55547  -7822685.20945  21769938.4924                   21769938.3794
 -11840971.32447  -9205551.93245  22029709.8364                   22029709.6454
   -717900.69547   -546039.70146  21030699.3444                   21030698.3674
 -13841698.60547 -10751397.11646  20094409.4774                   20094408.9264
     29716.24247     46509.88744  22865661.8364                   22865662.8054
  -6850925.88347  -5324779.64045  21983861.9304   21983860.8484
  -8461286.03147  -6591968.45745  21859401.5864                   21859399.8594
 11  8 18 19 29 30.0000000  0  7G17G24G07G08G26G11G28
 -10220718.06647  -7934297.27046  21742681.2664                   21742681.1884
 -11928143.12947  -9273477.98845  22013121.1414                   22013121.7074
   -746366.82847   -568221.13546  21025282.2894                   21025281.3324
 -13929318.83247 -10819672.62946  20077736.3674                   20077735.4774
    -63192.94547    -25886.90344  22847981.7274                   22847982.3754
  -6890534.76247  -5355643.72645  21976324.3524   21976323.5944
  -8568499.04347  -6675511.03645  21838999.9614                   21838998.2304
 11  8 18 19 30  0.0000000  0  7G17G24G07G08G26G11G28
 -10363595.54347  -8045630.33246  21715492.8914                   21715492.3164
 -12014765.36747  -9340975.79845  21996637.6804                   21996638.3284
   -774370.60947   -590042.27546  21019953.1174                   21019952.6054
 -14016401.21147 -10887529.03546  20061165.0394                   20061164.1884
   -155509.59847    -97821.97844  22830414.7974                   22830415.7664
  -6929614.98047  -5386095.85245  21968888.0944   21968886.5704
  -8675694.17247  -6759039.69645  21818601.0554                   21818599.8014
 11  8 18 19 30 30.0000000  0  7G17G24G07G08G26G11G28
 -10506112.45747  -8156682.43846  21688372.6334                   21688372.4884
 -12100835.41447  -9408043.35244  21980259.0234                   21980259.5394
   -801910.81247   -611502.22446  21014712.9534                   21014712.1684
 -14102942.59047 -10954963.87446  20044696.4454                   20044695.9304
   -247231.85946   -169293.86844  22812960.5864                   22812961.5004
  -6968165.66047  -5416135.34645  21961551.6564   21961550.8204
  -8782869.19147  -6842552.69945  21798206.2664                   21798204.6844
 11  8 18 19 31  0.0000000  0  7G17G24G07G08G26G11G28
 -10648264.52047  -8267450.24946  21661322.3674                   21661321.9264
 -12186349.10947  -9474677.36845  21963986.3054                   21963986.5394
   -828984.80147   -632598.86246  21009560.5944                   21009559.7774
 -14188938.07847 -11021973.36646  20028332.3204                   20028331.3754
   -338356.96146   -240300.43044  22795619.9774                   22795621.2424
  -7006184.98847  -5445760.80845  21954316.9144   21954315.9184
  -8890020.68047  -6926047.35645  21777816.2974                   21777814.4574
 11  8 18 19 31 30.0000000  0  7G17G24G07G08G26G11G28
 -10790059.35247  -8377939.70146  21634339.1804                   21634339.0744
 -12271312.74247  -9540882.75145  21947817.7424                   21947818.5314
   -855600.50047   -653338.40846  21004496.1644                   21004494.9414
 -14274393.28147 -11088561.83246  20012070.9144                   20012069.7854
   -428892.39546   -310847.54544  22778390.9924                   22778392.3054
  -7043681.60547  -5474978.96045  21947181.5634   21947180.3164
  -8997155.76647  -7009529.22745  21757428.9534                   21757427.6884
 11  8 18 19 32  0.0000000  0  7G17G24G07G08G26G11G28
 -10931493.48447  -8488148.08546  21607425.2194                   21607425.0664
 -12355723.79746  -9606657.61745  21931755.1724                   21931755.6024
   -881757.16447   -673720.25846  20999518.4144                   20999517.7664
 -14359305.63347 -11154727.30846  19995912.3594                   19995911.6564
   -518836.60946   -380933.96144  22761276.4304                   22761276.8484
  -7080655.32447  -5503789.67144  21940145.3204   21940144.5084
  -9104272.36747  -7092996.71645  21737045.5314                   21737043.8014
 11  8 18 19 32 30.0000000  0  7G17G24G07G08G26G11G28
 -11072573.41047  -8598080.46646  21580578.4304                   21580578.3164
 -12439587.14147  -9672005.63445  21915796.4454                   21915796.9104
   -907461.38747   -693749.55846  20994627.2734                   20994626.5434
 -14443679.04748 -11220472.83446  19979856.4454                   19979855.7894
   -608196.10946   -450564.74044  22744271.0234                   22744271.9224
  -7117112.95747  -5532198.20744  21933208.2734   21933206.5904
  -9211376.22747  -7176454.25145  21716664.0944                   21716662.5664
 11  8 18 19 33  0.0000000  0  7G17G24G07G08G26G11G28
 -11213297.35947  -8707735.45445  21553799.7814                   21553799.5864
 -12522901.27047  -9736925.71045  21899942.5164                   21899943.1134
   -932713.10547   -713426.25146  20989821.6954                   20989821.3204
 -14527511.45347 -11285796.78646  19963903.9454                   19963903.3404
   -696970.18047   -519739.35244  22727378.6884                   22727379.0314
  -7153055.09447  -5560205.07544  21926368.2424   21926367.8054
  -9318466.17648  -7259900.94645  21696285.5474                   21696284.1604
 11  8 18 19 33 30.0000000  0  7G17G24G07G08G26G11G28
 -11353664.32447  -8817112.26846  21527088.8054                   21527088.5664
 -12605665.19147  -9801417.06045  21884192.5164                   21884193.3014
   -957512.56647   -732750.55246  20985102.5944                   20985102.2424
 -14610801.27347 -11350697.96646  19948054.2584                   19948053.5084
   -785159.05146   -588458.00044  22710596.2814                   22710596.9924
  -7188482.90247  -5587811.17044  21919626.7344   21919625.2194
  -9425541.42248  -7343336.19345  21675909.8364                   21675908.3164
 11  8 18 19 34  0.0000000  0  7G17G24G07G08G26G11G28
 -11493673.91047  -8926210.61446  21500446.0554                   21500445.3954
 -12687878.57847  -9865479.42245  21868548.4454                   21868548.9964
   -981861.05947   -751723.43346  20980469.5784                   20980468.9534
 -14693547.34047 -11415175.41546  19932308.2814                   19932307.6054
   -872763.69547   -656721.33544  22693925.8444                   22693927.1414
  -7223398.26647  -5615017.95644  21912982.4224   21912981.2934
  -9532602.30547  -7426760.25245  21655536.9384                   21655535.2584
 11  8 18 19 34 30.0000000  0  7G17G24G07G08G26G11G28
 -11633323.99247  -9035028.82846  21473871.2194                   21473870.7464
 -12769539.08647  -9929110.94345  21853008.9774                   21853009.6094
  -1005757.82047   -770344.32246  20975922.3364                   20975921.5634
 -14775746.62147 -11479226.82146  19916666.3524                   19916665.7464
   -959782.68046   -724528.39344  22677366.6484                   22677367.9184
  -7257800.99647  -5641825.28744  21906435.8444   21906434.6334
  -9639646.62547  -7510171.39945  21635167.0704                   21635165.7854
 11  8 18 19 35  0.0000000  0  7G17G24G07G08G26G11G28
 -11772620.32847  -9143571.39446  21447364.0084                   21447363.7424
 -12850651.57847  -9992315.49945  21837573.4694                   21837573.5704
  -1029209.23047   -788618.19946  20971459.6484                   20971458.8444
 -14857403.51247 -11542855.57946  19901127.4224                   19901126.7584
  -1046222.21547   -791883.88944  22660917.4304                   22660919.0904
  -7291697.80947  -5668238.38944  21899985.6334   21899984.4494
  -9746679.77347  -7593573.84945  21614799.2584                   21614797.2934
 11  8 18 19 35 30.0000000  0  7G17G24G07G08G26G11G28
 -11911560.72747  -9251836.60746  21420924.6724                   21420924.0594
 -12931214.20747 -10055091.55045  21822243.4774                   21822243.2734
  -1052214.54347   -806544.46446  20967081.5394                   20967081.1454
 -14938515.55147 -11606059.77746  19885692.5554                   19885691.9494
  -1132081.57446   -858787.30344  22644579.3754                   22644580.6844
  -7325088.73447  -5694257.29644  21893632.0634   21893630.1644
  -9853700.28147  -7676966.44645  21594433.7274                   21594432.1684
 11  8 18 19 36  0.0000000  0  7G17G24G07G08G26G11G28
 -12050144.02747  -9359823.57445  21394553.1024                   21394552.5944
 -13011225.45747 -10117437.97944  21807017.6484                   21807017.8284
  -1074774.35947   -824123.58446  20962788.9384                   20962788.4104
 -15019080.68047 -11668837.80046  19870361.4694                   19870360.5554
  -1217360.55147   -925238.46844  22628351.1644                   22628352.3204
  -7357974.70747  -5719882.72844  21887373.1334   21887372.3674
  -9960707.03547  -7760348.31645  21574071.3594                   21574069.4734
 11  8 18 19 36 30.0000000  0  7G17G24G07G08G26G11G28
 -10612948.44547  -8239930.88146  21668042.2424                   21668041.5744
 -11515265.70747  -8951755.03045  22091689.0784                   22091689.4384
    478527.73447    386241.63746  21258372.4384                   21258371.9964
 -13523678.44547 -10503589.31046  20154927.0394                   20154926.2384
    273359.58346    236361.63844  22912026.6174                   22912026.5864
  -5814939.78547  -4517517.87544  22181003.4614   22181002.1254
  -8492279.48047  -6616119.04145  21853503.5784                   21853501.7464
 11  8 18 19 37  0.0000000  0  7G17G24G07G08G26G11G28
 -10750824.78547  -8347366.94946  21641805.5864                   21641804.7734
 -11594181.59047  -9013247.93945  22076671.9224                   22076672.1054
    456847.71547    369348.06546  21254246.8284                   21254246.3324
 -13603154.78147 -10565518.93646  20139803.5394                   20139802.5164
    189230.92247    170806.78644  22896016.8054                   22896018.1954
  -5846829.10947  -4542366.67644  22174935.2734   22174933.7194
  -8599266.30147  -6699485.40345  21833144.7034                   21833143.0944
 11  8 18 19 37 30.0000000  0  7G17G24G07G08G26G11G28
 -10888350.03947  -8454529.46446  21615635.0004                   21615634.5704
 -11672551.82847  -9074315.62745  22061758.3284                   22061758.6954
    435603.29747    352793.91546  21250204.4844                   21250204.0124
 -13682087.91847 -10627025.27446  20124782.2504                   20124781.8134
    105673.53547    105697.11244  22880116.3444                   22880117.2194
  -5878225.43447  -4566831.36944  22168960.6804   22168959.6764
  -8706245.49647  -6782845.80445  21812787.3364                   21812785.6684
 11  8 18 19 38  0.0000000  0  7G17G24G07G08G26G11G28
 -11025526.21147  -8561419.95146  21589531.6334                   21589531.0554
 -11750378.20347  -9134959.58245  22046948.6724                   22046948.8914
    414791.23047    336576.67846  21246244.0164                   21246243.1094
 -13760478.97747 -10688109.22846  20109865.3284                   20109864.8714
     22684.27346     41030.12144  22864324.1094                   22864325.7774
  -5909132.52747  -4590914.81444  22163079.6094   22163077.7154
  -8813219.20747  -6866201.93345  21792430.2894                   21792429.0664
 11  8 18 19 38 30.0000000  0  7G17G24G07G08G26G11G28
 -11162354.91047  -8668039.68046  21563493.8054                   21563493.3134
 -11827662.42647  -9195181.04645  22032241.8284                   22032242.1374
    394408.27047    320693.80146  21242365.1334                   21242364.4734
 -13838328.84447 -10748771.46146  20095051.2114                   20095050.2034
    -59739.84846    -23196.50044  22848639.6334                   22848640.1644
  -5939554.21947  -4614620.04344  22157290.7974   22157288.4774
  -8920189.28947  -6949555.23745  21772075.0084                   21772073.5204
 11  8 18 19 39  0.0000000  0  7G17G24G07G08G26G11G28
 -11298831.03547  -8774384.69746  21537523.2344                   21537522.6414
 -11904399.21547  -9254975.94044  22017639.5314                   22017639.9024
    374458.34448    305148.35646  21238568.6414                   21238568.4964
 -13915631.68447 -10809007.44346  20080340.9614                   20080340.4614
   -141594.44146    -86979.35344  22833063.6414                   22833063.8594
  -5969487.17247  -4637944.43144  22151594.1094   22151592.9184
  -9027150.25047  -7032901.43645  21751721.0234                   21751719.6724
 11  8 18 19 39 30.0000000  0  7G17G24G07G08G26G11G28
 -11434963.54747  -8880461.93446  21511618.0084                   21511617.5664
 -11980597.35247  -9314351.09744  22003139.2114                   22003139.7384
    354931.25448    289932.39646  21234853.0784                   21234852.6564
 -13992395.59048 -10868823.49746  20065733.1414                   20065732.2894
   -222889.75047   -150326.38644  22817593.4774                   22817594.8634
  -5998942.49247  -4660896.62344  22145989.0234   22145987.9924
  -9134111.43747  -7116247.81745  21731366.9144                   21731365.2544
 11  8 18 19 40  0.0000000  0  7G17G24G07G08G26G11G28
 -11570755.41847  -8986273.76446  21485777.5554                   21485777.0904
 -12056259.89847  -9373308.92244  21988741.2584                   21988741.1914
    335822.44147    275042.36346  21231216.9144                   21231215.8324
 -14068623.01247 -10928221.49146  20051227.4454                   20051226.8754
   -303629.75446   -213240.70644  22802228.9694                   22802229.6254
  -6027924.96547  -4683480.36344  22140473.7114   22140472.7894
  -9241075.48047  -7199596.40245  21711012.5314                   21711011.0084
 11  8 18 19 40 30.0000000  0  7G17G24G07G08G26G11G28
 -11706205.68047  -9091819.39746  21460001.7344                   21460002.0274
 -12131385.96147  -9431848.69745  21974444.8754                   21974445.4734
    317131.66447    260478.05746  21227660.1644                   21227659.4064
 -14144312.31247 -10987200.17546  20036824.3284                   20036823.4804
   -383814.79346   -275722.58444  22786970.3444                   22786971.0634
  -6056435.62547  -4705696.49444  22135048.4614   22135046.7034
  -9348041.52047  -7282946.56545  21690657.1884                   21690655.8524
 11  8 18 19 41  0.0000000  0  7G17G24G07G08G26G11G28
 -11841308.69947  -9197094.45146  21434293.1484                   21434292.5394
 -12205969.50447  -9489965.72945  21960252.6094                   21960252.5824
    298863.17647    246242.83246  21224183.8984                   21224183.2384
 -14219456.59447 -11045754.16946  20022524.4924                   20022524.4024
   -463440.12147   -337768.32844  22771818.1174                   22771818.6564
  -6084470.66847  -4727541.97544  22129713.0084   22129712.1724
  -9455003.31247  -7366293.40645  21670303.4774                   21670301.7704
 11  8 18 19 41 30.0000000  0  7G17G24G07G08G26G11G28
 -11976066.73047  -9302100.66446  21408648.7814                   21408648.7664
 -12280012.82447  -9547661.82145  21946162.3204                   21946162.7814
    281013.12547    232333.65046  21220786.9144                   21220786.4884
 -14294057.98847 -11103885.14746  20008328.4694                   20008328.1054
   -542509.34046   -399380.79844  22756771.7894                   22756771.9844
  -6112034.21147  -4749020.06344  22124468.0004   22124466.9694
  -9561963.47747  -7449638.98045  21649949.5084                   21649947.5084
 11  8 18 19 42  0.0000000  0  7G17G24G07G08G26G11G28
 -12110483.05547  -9406840.62146  21383070.9144                   21383070.5664
 -12353519.59847  -9604939.80645  21932174.4924                   21932174.8594
    263576.87947    218746.91646  21217468.9844                   21217468.5124
 -14368119.33647 -11161595.30946  19994235.5394                   19994234.7384
   -621026.91446   -460563.31644  22741830.0474                   22741831.0594
  -6139131.99247  -4770135.25244  22119311.5784   22119310.6524
  -9668925.07847  -7532985.67145  21629595.2814                   21629594.0084
 11  8 18 19 42 30.0000000  0  7G17G24G07G08G26G11G28
 -12244555.02347  -9511312.25346  21357557.5314                   21357557.3554
 -12426486.89147  -9661797.41645  21918288.9924                   21918289.1884
    246555.78947    205483.68446  21214230.0704                   21214229.6214
 -14441637.00447 -11218881.80946  19980245.2894                   19980244.6524
   -698991.55546   -521315.01844  22726994.0004                   22726995.2544
  -6165763.25847  -4790886.88544  22114243.9774   22114242.6334
  -9775885.35947  -7616331.35045  21609241.5864                   21609240.1524
 11  8 18 19 43  0.0000000  0  7G17G24G07G08G26G11G28
 -12378284.67647  -9615517.14346  21332109.4454                   21332108.8014
 -12498916.39847  -9718235.98045  21904506.7424                   21904506.8754
    229946.58247    192541.40046  21211069.6334                   21211068.8714
 -14514612.24248 -11275745.64646  19966358.4384                   19966357.9534
   -776406.10246   -581638.09244  22712262.4774                   22712263.7154
  -6191931.66047  -4811277.85744  22109264.0474   22109262.7544
  -9882846.10547  -7699677.38045  21588887.5704                   21588885.6994
 11  8 18 19 43 30.0000000  0  7G17G24G07G08G26G11G28
 -12511667.94147  -9719452.13446  21306727.9064                   21306727.1914
 -12570804.66847  -9774252.78745  21890826.7034                   21890826.8054
    213751.46147    179921.78346  21207987.4694                   21207987.2154
 -14587040.36747 -11332183.14746  19952575.9924                   19952575.3014
   -853268.21146   -641530.68644  22697636.3914                   22697637.5514
  -6217635.41047  -4831306.77844  22104372.8594   22104371.6134
  -9989803.09847  -7783020.48545  21568533.7274                   21568532.7814
 11  8 18 19 44  0.0000000  0  7G17G24G07G08G26G11G28
 -12644700.38347  -9823113.73146  21281412.1174                   21281411.7974
 -12642147.32847  -9829844.45945  21877250.6414                   21877250.6134
    197973.76647    167627.42046  21204985.4614                   21204984.8484
 -14658916.38747 -11388190.45246  19938898.2504                   19938897.3404
   -929574.44146   -700990.14644  22683115.7894                   22683116.5514
  -6242872.22347  -4850971.83644  22099570.4614   22099569.1414
 -10096751.51247  -7866356.90745  21548182.2664                   21548181.1094
 11  8 18 19 44 30.0000000  0  7G17G24G07G08G26G11G28
 -12777385.63747  -9926504.81246  21256163.1094                   21256162.9924
 -12712947.30547  -9885013.28644  21863777.9534                   21863777.6764
    182608.90647    155654.74845  21202061.6094                   21202061.0984
 -14730242.79748 -11443769.49846  19925325.4454                   19925324.9224
  -1005329.47747   -760020.05744  22668699.5164                   22668700.9414
  -6267646.98847  -4870276.85744  22094856.3444   22094854.5514
 -10203694.48047  -7949689.09745  21527832.0234                   21527830.6174
 11  8 18 19 45  0.0000000  0  7G17G24G07G08G26G11G28
 -12909714.32847 -10029618.05546  21230981.9144                   21230981.4654
 -12783195.98047  -9939752.49444  21850409.8284                   21850410.2854
    167664.41047    144009.63146  21199217.8754                   21199217.2934
 -14801010.37948 -11498913.08546  19911859.0314                   19911858.3324
  -1080525.33247   -818614.28244  22654390.7734                   22654391.5744
  -6291953.07047  -4889216.67844  22090231.2274   22090229.3674
 -10310622.60947  -8033009.70345  21507484.5164                   21507482.4494
 11  8 18 19 45 30.0000000  0  7G17G24G07G08G26G11G28
 -11466253.81647  -8904843.59346  21505663.1724                   21505662.8714
 -11277462.80547  -8766453.88345  22136940.9384                   22136941.4694
   1728567.43448   1360297.66746  21496247.7814                   21496247.0164
 -13295787.66847 -10326012.28246  20198293.0634                   20198292.8284
    420267.41446    350834.58644  22939982.3284                   22939983.4144
  -4740362.95347  -3680185.42844  22385488.8134   22385487.0824
  -8842103.78547  -6888709.34045  21786934.3364                   21786932.5784
 11  8 18 19 46  0.0000000  0  7G17G24G07G08G26G11G28
 -11597851.91847  -9007387.54546  21480620.3754                   21480620.3054
 -11346591.35247  -8820320.30645  22123786.6804                   22123786.7624
   1714476.97748   1349318.02746  21493566.4694                   21493566.1214
 -13365417.81247 -10380269.57546  20185043.2734                   20185042.7664
    346203.87547    293122.69544  22925888.8134                   22925889.5274
  -4763719.19947  -3698385.09944  22381044.4144   22381042.5594
  -8948983.71947  -6971992.39245  21766595.6174                   21766594.4414
 11  8 18 19 46 30.0000000  0  7G17G24G07G08G26G11G28
 -11729081.43747  -9109644.28646  21455648.8524                   21455648.3484
 -11415156.64147  -8873747.77545  22110739.0394                   22110739.2854
   1700814.78947   1338672.13346  21490966.4534                   21490965.9924
 -13434474.97347 -10434080.35946  20171901.7584                   20171901.4304
    272707.63746    235852.85544  22911902.5314                   22911903.0554
  -4786600.46147  -3716214.68444  22376690.0234   22376688.2304
  -9055835.64847  -7055253.62645  21746262.4614                   21746261.0434
 11  8 18 19 47  0.0000000  0  7G17G24G07G08G26G11G28
 -11859945.67247  -9211616.39746  21430746.1644                   21430745.8164
 -11483162.10947  -8926739.05445  22097797.8444                   22097798.1724
   1687576.02347   1328356.16546  21488447.4144                   21488447.0554
 -13502961.91447 -10487446.82746  20158868.9774                   20158868.5204
    199774.02046    179021.44344  22898023.8594                   22898024.4224
  -4809012.18047  -3733678.35544  22372425.3914   22372423.6524
  -9162662.60947  -7138495.41545  21725934.0234                   21725932.2774
 11  8 18 19 47 30.0000000  0  7G17G24G07G08G26G11G28
 -11990437.60247  -9313298.38346  21405914.3204                   21405913.5434
 -11550600.96547  -8979288.79545  22084964.4694                   22084965.4734
   1674765.86347   1318374.17946  21486009.8674                   21486009.0394
 -13570871.07047 -10540363.06746  20145946.5784                   20145945.8594
    127408.46147    122632.66344  22884253.0394                   22884253.9534
  -4830949.34447  -3750772.26344  22368250.4844   22368250.0824
  -9269457.54747  -7221712.24545  21705611.3364                   21705609.9304
 11  8 18 19 48  0.0000000  0  7G17G24G07G08G26G11G28
 -12120562.34047  -9414694.25846  21381152.2894                   21381151.7704
 -11617478.46147  -9031401.14045  22072238.4224                   22072238.3484
   1662378.52747   1308721.65046  21483652.8054                   21483652.2424
 -13638207.01648 -10592832.65246  20133132.8364                   20133132.4224
     55604.98447     66681.86644  22870589.4694                   22870589.8244
  -4852419.12147  -3767501.99644  22364165.1414   22364164.3834
  -9376225.11747  -7304907.75545  21685294.0634                   21685292.7894
 11  8 18 19 48 30.0000000  0  7G17G24G07G08G26G11G28
 -12250325.93747  -9515808.72446  21356459.1724                   21356458.6134
 -11683800.09047  -9083080.31945  22059618.1024                   22059617.8094
   1650406.46547   1299392.72846  21481374.5234                   21481374.0664
 -13704974.84448 -10644859.55446  20120427.6414                   20120426.9024
    -15643.70746     11163.37044  22857031.1254                   22857032.2934
  -4873428.89547  -3783873.26144  22360167.1254   22360165.7384
  -9482970.06647  -7388085.63245  21664981.3204                   21664979.7894
 11  8 18 19 49  0.0000000  0  7G17G24G07G08G26G11G28
 -12379723.36347  -9616637.86146  21331835.7504                   21331835.0124
 -11749561.61747  -9134323.08545  22047103.9924                   22047103.7234
   1638852.96147   1290389.93246  21479176.0704                   21479175.3014
 -13771169.41048 -10696439.74246  20107831.2814                   20107830.5784
    -86334.22346    -43920.15744  22843578.7894                   22843580.2074
  -4893976.14547  -3799884.12444  22356257.1094   22356255.7464
  -9589687.40247  -7471241.99745  21644673.6174                   21644672.0864
 11  8 18 19 49 30.0000000  0  7G17G24G07G08G26G11G28
 -12508754.87147  -9717181.86246  21307281.8674                   21307281.3014
 -11814763.49247  -9185129.72545  22034696.1564                   22034696.8524
   1627716.44147   1281712.07345  21477057.0004                   21477056.4884
 -13836790.46947 -10747573.05646  20095343.7034                   20095343.1884
   -156468.25046    -98570.09044  22830233.5554                   22830233.8484
  -4914063.25047  -3815536.43944  22352434.9224   22352433.2114
  -9696377.01647  -7554376.75145  21624370.8444                   21624370.0354
 11  8 18 19 50  0.0000000  0  7G17G24G07G08G26G11G28
 -12637424.38347  -9817443.78046  21282796.6174                   21282796.2894
 -11879409.60547  -9235503.33745  22022394.5864                   22022394.8714
   1616991.56347   1273354.96345  21475015.7974                   21475015.5554
 -13901841.30548 -10798262.03646  20082965.2344                   20082964.7774
   -226050.69147   -152790.23244  22816992.5084                   22816992.9024
  -4933695.79347  -3830834.54544  22348699.0004   22348697.3634
  -9803042.16048  -7637492.45445  21604073.7114                   21604072.0514
 11  8 18 19 50 30.0000000  0  7G17G24G07G08G26G11G28
 -12765731.23847  -9917423.11446  21258380.4844                   21258379.8134
 -11943499.76247  -9285443.72645  22010198.7664                   22010199.2584
   1606677.42647   1265317.93345  21473053.2504                   21473052.9574
 -13966320.75048 -10848505.76346  20070695.1254                   20070694.7584
   -295082.73846   -206581.46244  22803855.8284                   22803856.9264
  -4952875.43447  -3845779.73844  22345049.0944   22345048.2934
  -9909681.38747  -7720587.94545  21583780.9454                   21583779.3754
 11  8 18 19 51  0.0000000  0  7G17G24G07G08G26G11G28
 -12893670.91847 -10017116.33746  21234034.2894                   21234034.0984
 -12007029.41447  -9334947.31544  21998109.3674                   21998109.5164
   1596777.51647   1257603.66846  21471169.4844                   21471168.7544
 -14030224.00848 -10898300.53046  20058534.7194                   20058534.2624
   -363560.82846   -259941.05144  22790824.7734                   22790826.1994
  -4971599.53947  -3860369.95144  22341486.3834   22341484.7774
 -10016289.85247  -7803659.43745  21563493.7424                   21563492.4454
 11  8 18 19 51 30.0000000  0  7G17G24G07G08G26G11G28
 -13021246.48047 -10116525.85346  21209757.4844                   21209756.7424
 -12070001.97347  -9384016.84345  21986125.6804                   21986126.4844
   1587286.96947   1250208.38345  21469363.3834                   21469363.1174
 -14093553.27748 -10947648.03046  20046483.2584                   20046482.9694
   -431489.74246   -312872.71344  22777898.1804                   22777899.4534
  -4989873.05947  -3874609.07944  22338008.5004   22338007.4614
 -10122870.23047  -7886709.09745  21543212.1804                   21543210.7274
 11  8 18 19 52  0.0000000  0  7G17G24G07G08G26G11G28
 -13148453.84847 -10215648.44846  21185550.6644                   21185550.3364
 -12132413.30547  -9432649.07145  21974249.4384                   21974249.9384
   1578208.61347   1243134.29545  21467635.9384                   21467635.4494
 -14156304.19948 -10996544.88346  20034542.3134                   20034542.0274
   -498866.58646   -365374.18544  22765077.0164                   22765078.1334
  -5007694.02047  -3888495.53444  22334617.6564   22334615.7424
 -10229417.39847  -7969732.85545  21522937.2034                   21522935.4734
 11  8 18 19 52 30.0000000  0  7G17G24G07G08G26G11G28
 -13275291.10947 -10314482.64846  21161414.7424                   21161413.5984
 -12194261.87147  -9480842.75545  21962479.9304                   21962480.7274
   1569542.94147   1236381.75846  21465986.8524                   21465986.5864
 -14218474.38348 -11044989.19646  20022712.2894                   20022711.4574
   -565690.87547   -417445.08044  22752361.1484                   22752362.2734
  -5025062.16047  -3902029.16544  22331313.0004   22331311.3984
 -10335929.21148  -8052729.05845  21502668.6564                   21502667.0234
 11  8 18 19 53  0.0000000  0  7G17G24G07G08G26G11G28
 -13401762.12547 -10413031.47046  21137348.0554                   21137347.3364
 -12255552.00047  -9528601.26845  21950816.9694                   21950817.2704
   1561284.46547   1229946.53145  21464415.7664                   21464415.5124
 -14280067.51648 -11092983.86846  20010991.2814                   20010990.5704
   -631968.19146   -469089.79944  22739748.6094                   22739749.5084
  -5041983.85947  -3915214.89644  22328092.2344   22328090.4694
 -10442408.93047  -8135700.25245  21482406.0394                   21482404.9224
 11  8 18 19 53 30.0000000  0  7G17G24G07G08G26G11G28
 -13527857.09047 -10511287.26946  21113352.7424                   21113352.4304
 -12316273.96147  -9575917.07744  21939262.5234                   21939262.8914
   1553441.37147   1223834.97545  21462923.2814                   21462923.0554
 -14341073.39548 -11140520.94346  19999382.3524                   19999381.8404
   -697690.25847   -520301.82144  22727242.6414                   22727242.9884
  -5058451.22747  -3928046.65444  22324958.3834   22324957.4304
 -10548845.67648  -8218637.95145  21462151.7894                   21462150.2114
 11  8 18 19 54  0.0000000  0  7G17G24G07G08G26G11G28
 -13653585.65647 -10609257.54846  21089427.3284                   21089426.6684
 -12376437.69547  -9622797.92944  21927813.7194                   21927813.7704
   1546003.06347   1218038.83945  21461507.9454                   21461507.2274
 -14401501.02348 -11187607.42346  19987883.3054                   19987882.6454
   -762867.79346   -571089.54744  22714840.1254                   22714840.7234
  -5074475.75047  -3940533.32244  22321909.6414   22321907.7584
 -10655248.64547  -8301549.35545  21441903.6414                   21441902.2974
 11  8 18 19 54 30.0000000  0  7G17G24G07G08G26G11G28
 -13778951.46947 -10706945.15646  21065571.0234                   21065570.7464
 -12436047.31647  -9669246.95744  21916470.2664                   21916470.2194
   1538964.14547   1212553.91745  21460168.0704                   21460168.0234
 -14461353.91048 -11234246.05546  19976492.8754                   19976492.9144
   -827506.32446   -621457.25644  22702539.3834                   22702540.5044
  -5090063.35547  -3952679.52244  22318942.9924   22318941.8364
 -10761620.18047  -8384436.26845  21421662.2034                   21421660.3914
 11  8 18 19 55  0.0000000  0  7G17G24G07G08G26G11G28
 -12328530.90647  -9576747.29846  21341576.7344                   21341576.1604
 -10919681.70347  -8487663.35844  22205024.0554                   22205024.9884
   3107742.58647   2434978.61745  21758696.5314                   21758696.4924
 -12945210.14848 -10052835.35346  20265005.8754                   20265005.6684
    683814.49646    556195.30544  22990133.9064                   22990135.5004
  -3529795.88747  -2736886.68644  22615851.8834   22615850.5164
  -9292537.22747  -7239696.28445  21701219.5394                   21701217.4804
 11  8 18 19 55 30.0000000  0  7G17G24G07G08G26G11G28
 -12453171.48847  -9673869.80646  21317858.3204                   21317858.0204
 -10978184.03947  -8533249.57245  22193892.1414                   22193892.1054
   3101497.69947   2430112.41345  21757508.4924                   21757508.2464
 -13003912.42648 -10098577.40746  20253835.6334                   20253834.8054
    620249.87946    506664.39844  22978038.1564                   22978039.7504
  -3544515.36346  -2748356.49944  22613051.3524   22613050.1254
  -9398844.94547  -7322533.46145  21680989.8284                   21680987.8914
 11  8 18 19 56  0.0000000  0  8G17G24G07G08G26G11G04G28
 -12577454.69547  -9770713.83846  21294208.2424                   21294207.7194
 -11036138.25447  -8578408.69945  22182863.9224                   22182863.9344
   3095642.57047   2425549.91845  21756394.2344                   21756393.9414
 -13062044.01647 -10143874.77646  20242773.4454                   20242773.0164
    557214.45346    457545.83844  22966042.8834                   22966044.0004
  -3558809.15647  -2759494.54244  22610331.1644   22610330.5984
  24978021.74256  19496497.84253  24683007.9454                   24683014.6644
  -9505124.81248  -7405348.93245  21660765.3754                   21660763.9184
 11  8 18 19 56 30.0000000  0  8G17G24G07G08G26G11G04G28
 -12701397.15247  -9867292.34846  21270622.7274                   21270621.8014
 -11093561.47747  -8623154.06645  22171936.2814                   22171936.4844
   3090159.10547   2421277.02645  21755350.8674                   21755350.2274
 -13119621.09047 -10188740.04446  20231816.9304                   20231816.1174
    494690.35546    408825.74144  22954145.1564                   22954146.1414
  -3572695.59847  -2770315.16044  22607688.9304   22607687.4064
  24779475.79346  19341786.92642  24645226.2504                   24645231.9024
  -9611392.59047  -7488154.98045  21640543.1024                   21640541.6024
 11  8 18 19 57  0.0000000  0  8G17G24G07G08G26G11G04G28
 -12825007.03147  -9963611.69946  21247100.7584                   21247099.7894
 -11150462.16447  -8667492.24845  22161108.4774                   22161108.9024
   3085037.77047   2417286.32545  21754376.4064                   21754376.4304
 -13176651.34848 -10233179.23146  20220964.4454                   20220963.4804
    432667.80947    360496.43644  22942342.5474                   22942343.4224
  -3586184.86747  -2780826.32944  22605122.5864   22605121.0434
  24580829.13346  19186997.46142  24607424.1644                   24607430.1374
  -9717655.53548  -7570957.26545  21620322.1884                   21620320.6374
 11  8 18 19 57 30.0000000  0  8G17G24G07G08G26G11G04G28
 -12948289.31247 -10059675.79146  21223640.7424                   21223640.3404
 -11206845.69547  -8711427.44145  22150378.8054                   22150379.6024
   3080272.18447   2413572.82545  21753469.9224                   21753469.5744
 -13233139.98448 -10277196.36846  20210214.8054                   20210214.5824
    371140.38747    312552.94544  22930634.5084                   22930635.9574
  -3599283.95347  -2791033.43344  22602629.0474   22602628.0514
  24382079.38746  19032127.66842  24569603.4614                   24569608.6254
  -9823917.95348  -7653759.13745  21600100.6564                   21600099.2274
 11  8 18 19 58  0.0000000  0  8G17G24G07G08G26G11G04G28
 -13071243.91847 -10155484.55246  21200243.0864                   21200242.4344
 -11262712.49647  -8754960.03545  22139747.8364                   22139748.3324
   3075860.67647   2410135.22645  21752630.1334                   21752630.0664
 -13289086.66447 -10320791.20046  20199568.4844                   20199568.2624
    310106.13746    264993.76644  22919019.8914                   22919021.1604
  -3611995.39547  -2800938.47444  22600210.4534   22600209.1024
  24183229.25446  18877179.58242  24531763.6024                   24531768.1174
  -9930178.79747  -7736559.79845  21579880.0784                   21579878.9064
 11  8 18 19 58 30.0000000  0  8G17G24G07G08G26G11G04G28
 -13193864.48447 -10251033.01546  21176909.1724                   21176908.2584
 -11318056.38347  -8798085.13445  22129216.1174                   22129216.7274
   3071808.34047   2406977.49845  21751859.0314                   21751859.0124
 -13344484.16047 -10363958.10946  20189026.6484                   20189026.1954
    249570.52347    217823.09544  22907500.2974                   22907501.3714
  -3624314.34847  -2810537.66944  22597867.0474   22597865.0634
  23984288.40645  18722161.00042  24493905.2114                   24493911.1644
 -10036430.46547  -7819353.30145  21559661.0394                   21559659.6684
 11  8 18 19 59  0.0000000  0  8G17G24G07G08G26G11G04G28
 -13316144.47747 -10346316.09146  21153640.1484                   21153639.1884
 -11372871.20347  -8840797.97544  22118785.5474                   22118785.8164
   3068120.40247   2404103.72245  21751156.8284                   21751157.0434
 -13399326.11348 -10406692.12746  20178590.8204                   20178590.1604
    189538.31647    171044.74144  22896075.8754                   22896078.4614
  -3636236.01247  -2819827.30444  22595597.9144   22595595.8014
  23785266.34046  18567079.02742  24456033.3754                   24456037.9964
 -10142665.68448  -7902133.97646  21539445.3054                   21539443.9614
 11  8 18 19 59 30.0000000  0  8G17G24G07G08G26G11G04G28
 -13438081.78547 -10441332.17146  21130436.1254                   21130435.3984
 -11427155.39147  -8883097.33344  22108455.3524                   22108455.7234
   3064797.06347   2401514.03745  21750525.0234                   21750524.8594
 -13453610.09048 -10448991.35946  20168260.8914                   20168260.5824
    130009.97746    124658.95544  22884748.6254                   22884750.0474
  -3647760.42647  -2828807.40444  22593404.6024   22593402.9494
  23586167.80146  18411937.53743  24418145.6254                   24418151.1764
 -10248881.35547  -7984899.44046  21519232.9144                   21519231.5084
 11  8 18 20  0  0.0000000  0  8G17G24G07G08G26G11G04G28
 -13559673.77347 -10536079.13846  21107297.8594                   21107297.2734
 -11480906.67647  -8924981.44144  22098226.7894                   22098227.5554
   3061839.47347   2399209.36645  21749961.6414                   21749962.1724
 -13507332.96947 -10490853.36646  20158038.0314                   20158037.5314
     70986.34847     78666.44144  22873517.1094                   22873518.2854
  -3658887.18447  -2837477.62144  22591286.9614   22591285.4734
  23386998.57846  18256740.89543  24380245.2504                   24380251.3984
 -10355074.09848  -8067647.03246  21499025.6884                   21499023.7624
 11  8 18 20  0 30.0000000  0  8G17G24G07G08G26G11G04G28
 -13680916.48447 -10630553.96546  21084226.3834                   21084225.3794
 -11534121.52347  -8966447.58344  22088100.3444                   22088100.8324
   3059250.74647   2397192.11645  21749469.6804                   21749469.5664
 -13560490.52748 -10532274.85646  20147922.6094                   20147922.0664
     12470.00447     33069.26344  22862381.8364                   22862383.3874
  -3669614.18447  -2845836.32843  22589246.4384   22589244.0594
  23187765.59846  18101494.64443  24342332.0864                   24342338.2544
 -10461238.61748  -8150372.61245  21478822.9384                   21478821.2274
 11  8 18 20  1  0.0000000  0  8G17G24G07G08G26G11G04G28
 -13801804.60247 -10724752.48046  21061222.2114                   21061221.0594
 -11586795.21947  -9007492.00144  22078076.9844                   22078077.2624
   3057034.29747   2395464.95345  21749047.3914                   21749047.8674
 -13613077.37548 -10573251.65046  20137915.3444                   20137914.9024
    -45535.46546    -12129.87544  22851343.3754                   22851344.8134
  -3679938.15247  -2853880.98943  22587280.6484   22587279.8324
  22988477.04746  17946205.09343  24304408.9924                   24304414.4184
 -10567369.19148  -8233071.75545  21458626.8914                   21458625.3164
 11  8 18 20  1 30.0000000  0  8G17G24G07G08G26G11G04G28
 -13922339.92647 -10818676.08946  21038284.7344                   21038283.8014
 -11638929.89847  -9048116.42144  22068156.2194                   22068156.5204
   3055186.98847   2394025.42445  21748696.4224                   21748696.5084
 -13665094.98448 -10613784.87346  20128017.0394                   20128016.5314
   -103033.41046    -56933.53144  22840402.3524                   22840403.7934
  -3689862.85247  -2861614.59343  22585392.4694   22585392.1024
  22789134.21946  17790873.20943  24266475.2114                   24266481.6954
 -10673466.06648  -8315744.63445  21438437.3594                   21438435.6454
 11  8 18 20  2  0.0000000  0  8G17G24G07G08G26G11G04G28
 -14042518.16847 -10912321.45646  21015415.9224                   21015414.7274
 -11690521.93047  -9088317.98645  22058338.2424                   22058339.0394
   3053711.30547   2392875.48445  21748415.6804                   21748415.8954
 -13716539.08648 -10653871.20746  20118227.1334                   20118227.1914
   -160021.19546   -101339.65044  22829558.1954                   22829559.0904
  -3699386.00447  -2869035.23243  22583580.6094   22583578.6564
  22589744.39146  17635504.81143  24228531.7344                   24228538.1254
 -10779523.90247  -8398387.10946  21418255.0634                   21418253.5394
 11  8 18 20  2 30.0000000  0  8G17G24G07G08G26G11G04G28
 -14162331.24647 -11005682.28546  20992615.8204                   20992614.9064
 -11741563.79747  -9128090.87844  22048625.6334                   22048625.6884
   3052613.80547   2392020.21145  21748206.3984                   21748206.8244
 -13767402.01247 -10693504.68546  20108548.5164                   20108547.9414
   -216492.63746   -145343.42344  22818811.3914                   22818812.6094
  -3708501.71147  -2876138.38944  22581845.7274   22581844.5434
  22390318.42646  17480108.15243  24190582.4694                   24190588.2734
 -10885534.09848  -8480992.46045  21398082.3754                   21398080.6844
 11  8 18 20  3  0.0000000  0  8G17G24G07G08G26G11G04G28
 -14281787.28147 -11098764.87446  20969884.5554                   20969883.6994
 -11792063.27347  -9167441.12844  22039015.6804                   22039015.8054
   3051885.74247   2391452.82145  21748068.3054                   21748068.3014
 -13817690.73448 -10732690.71946  20098979.0634                   20098978.5904
   -272456.76646   -188951.90144  22808161.8834                   22808163.7664
  -3717219.41047  -2882931.45844  22580187.3134   22580186.6094
  22190852.02046  17324680.01143  24152625.1884                   24152630.8484
 -10991502.82448  -8563565.48445  21377917.1644                   21377914.9924
 11  8 18 20  3 30.0000000  0  8G17G24G07G08G26G11G04G28
 -14400889.25847 -11191571.59046  20947220.0314                   20947218.9064
 -11842024.19147  -9206371.70044  22029508.8754                   22029508.6844
   3051522.05547   2391169.34545  21747999.0944                   21747999.1214
 -13867408.37148 -10771431.75646  20089517.8984                   20089517.8594
   -327918.55546   -232168.96744  22797607.8674                   22797609.4344
  -3725544.18447  -2889418.35744  22578603.7034   22578602.4534
  21991344.84846  17169220.06943  24114659.8594                   24114665.4224
 -11097432.16047  -8646107.82045  21357759.4924                   21357757.3914
 11  8 18 20  4  0.0000000  0  8G17G24G07G08G26G11G04G28
 -12944210.94147 -10056497.56346  21224416.8674                   21224415.5554
 -10316023.60547  -8017280.33944  22319896.6804                   22319897.1174
   4626943.43847   3618770.35345  22047791.3674                   22047792.0084
 -12341131.37948  -9582125.04146  20379958.7584                   20379958.3914
   1192544.13346    952607.10043  23086942.4694                   23086943.6914
  -2158055.92647  -1667998.92944  22876886.3914   22876884.6454   23367228.75446
  18241337.64643                  24376481.9694                   24376487.0984
  -9627895.60248  -7501014.38145  21637402.6484                   21637400.9494
 11  8 18 20  4 30.0000000  0  8G17G24G07G08G26G11G04G28
 -13062602.45747 -10148750.66146  21201887.2114                   21201886.5124
 -10364907.48047  -8055371.65744  22310594.7894                   22310594.9534
   4627306.48047   3619053.18245  22047861.1484                   22047860.5234
 -12389704.67648  -9619974.38446  20370715.7114                   20370715.0744
   1138083.78947    910170.40644  23076579.1644                   23076580.7304
  -2165599.19947  -1673876.84044  22875450.4454   22875449.3954   23167651.28546
  18085823.02742                  24338502.7894                   24338508.6994
  -9733741.00847  -7583491.31645  21617261.0944                   21617259.3954
 11  8 18 20  5  0.0000000  0  8G17G24G07G08G26G11G04G28
 -13180643.78547 -10240730.89546  21179424.7034                   21179423.6564
 -10413258.25847  -8093047.58944  22301393.4774                   22301393.8554
   4628025.83247   3619613.64845  22047997.4924                   22047997.8524
 -12437710.37148  -9657381.43946  20361580.4774                   20361579.8634
   1084117.00847    868118.31644  23066310.0234                   23066310.8794
  -2172759.16047  -1679456.07844  22874088.7114   22874087.5314   22968038.89145
  17930281.12942                  24300517.6174                   24300522.0824
  -9839547.13347  -7665937.63445  21597127.1954                   21597125.3164
 11  8 18 20  5 30.0000000  0  8G17G24G07G08G26G11G04G28
 -13298336.05947 -10332439.13146  21157028.1564                   21157027.8554
 -10461077.51247  -8130309.36144  22292293.9534                   22292294.3954
   4629099.05547   3620449.84045  22048202.7894                   22048202.6804
 -12485149.35248  -9694346.90646  20352553.1644                   20352552.5704
   1030641.12146    826448.70944  23056133.7344                   23056134.4694
  -2179538.94947  -1684739.05744  22872798.0704   22872797.1334   22768393.53546
  17774713.59842                  24262526.2664                   24262530.7584
  -9945314.05947  -7748353.40945  21576999.8834                   21576998.5474
 11  8 18 20  6  0.0000000  0  8G17G24G07G08G26G11G04G28
 -13415676.82847 -10423873.47846  21134699.7424                   21134698.7384
 -10508363.79747  -8167155.80744  22283295.4694                   22283295.8714
   4630526.44147   3621562.02845  22048474.0164                   22048473.9384
 -12532019.70747  -9730869.28846  20343634.2814                   20343633.5944
    977656.29346    785161.79144  23046050.9534                   23046052.1954
  -2185938.64146  -1689725.89043  22871579.3204   22871578.3634   22568720.29746
  17619124.26242                  24224529.5554                   24224534.3364
 -10051038.57847  -7830736.14945  21556881.4454                   21556879.6294
 11  8 18 20  6 30.0000000  0  8G17G24G07G08G26G11G04G28
 -13532670.17247 -10515037.09846  21112436.6954                   21112435.6254
 -10555121.44947  -8203590.36944  22274398.2974                   22274398.2624
   4632302.88347   3622946.18145  22048811.8134                   22048812.2624
 -12578324.94948  -9766951.31346  20334822.4384                   20334821.8404
    925157.02747    744253.21644  23036060.9064                   23036061.8524
  -2191963.71147  -1694420.76743  22870434.3444   22870432.0904   22369018.69946
  17463512.86742                  24186527.0474                   24186532.5314
 -10156723.43047  -7913087.97045  21536770.4774                   21536768.2114
 11  8 18 20  7  0.0000000  0  8G17G24G07G08G26G11G04G28
 -13649319.35947 -10605932.55046  21090238.5634                   21090237.9454
 -10601354.36347  -8239616.01644  22265600.4224                   22265600.6024
   4634423.68847   3624598.68845  22049215.5634                   22049215.7424
 -12624068.16848  -9802595.41446  20326117.9144                   20326117.5554
    873138.53947    703719.27444  23026162.0084                   23026163.1374
  -2197619.48447  -1698827.88444  22869357.5084   22869356.4844   22169288.75046
  17307879.38743                  24148520.2584                   24148525.5394
 -10262370.12948  -7995410.05645  21516666.0944                   21516664.4064
 11  8 18 20  7 30.0000000  0  8G17G24G07G08G26G11G04G28
 -13765624.96147 -10696560.27146  21068106.4384                   21068105.7584
 -10647063.59847  -8275233.59744  22256901.9144                   22256901.8834
   4636886.91047   3626518.00945  22049684.8444                   22049684.5824
 -12669250.05548  -9837802.11546  20317519.9224                   20317519.6764
    821598.34447    663558.04444  23016354.3834                   23016355.7274
  -2202908.38746  -1702949.17343  22868349.8834   22868350.8834   21969533.19146
  17152225.93443                  24110507.0784                   24110513.1214
 -10367978.23847  -8077702.09745  21496569.8204                   21496568.2344
 11  8 18 20  8  0.0000000  0  8G17G24G07G08G26G11G04G28
 -13881588.48047 -10786921.43446  21046039.3674                   21046038.4104
 -10692251.47747  -8310444.92744  22248303.2974                   22248303.1564
   4639689.26647   3628701.57945  22050217.5474                   22050217.8014
 -12713872.35947  -9872572.76646  20309028.7034                   20309028.2664
    770533.27047    623766.98344  23006637.3284                   23006638.4104
  -2207834.15247  -1706787.46543  22867414.3054   22867411.6414   21769753.27346
  16996553.52643                  24072490.7034                   24072495.4454
 -10473548.10547  -8159964.31145  21476480.4064                   21476478.5864
 11  8 18 20  8 30.0000000  0  8G17G24G07G08G26G11G04G28
 -13997214.22747 -10877019.40946  21024036.5864                   21024035.5864
 -10736922.75047  -8345253.72944  22239802.9774                   22239802.2894
   4642825.02347   3631144.95445  22050814.6094                   22050814.8054
 -12757939.33247  -9906910.68946  20300643.2424                   20300642.6094
    719937.03546    584341.27444  22997009.1484                   22997010.5634
  -2212403.12147  -1710347.68344  22866545.1644   22866542.4844   21569948.37146
  16840861.59343                  24034469.7814                   24034474.0594
 -10579082.50847  -8242198.91245  21456398.1024                   21456395.8014
 11  8 18 20  9  0.0000000  0  8G17G24G07G08G26G11G04G28
 -14112504.92647 -10966856.28446  21002097.1724                   21002096.3794
 -10781080.68047  -8379662.50944  22231399.1484                   22231399.3134
   4646290.25847   3633845.06045  22051474.0704                   22051474.0554
 -12801453.77048  -9940818.07846  20292362.7734                   20292362.0744
    669805.43447    545277.61544  22987469.5784                   22987470.9804
  -2216619.71947  -1713633.37344  22865741.5164   22865741.2304   21370119.07046
  16685150.67843                  23996442.4304                   23996447.5004
 -10684582.82047  -8324406.94345  21436321.7274                   21436320.4534
 11  8 18 20  9 30.0000000  0  8G17G24G07G08G26G11G04G28
 -14227464.00047 -11056434.76946  20980221.1024                   20980220.5354
 -10824729.70747  -8413674.73244  22223093.5784                   22223093.7974
   4650079.58247   3636797.68345  22052195.1954                   22052195.3554
 -12844418.89847  -9974297.41046  20284186.5394                   20284186.1254
    620133.18847    506571.89844  22978016.9534                   22978018.4534
  -2220489.22747  -1716648.66543  22865005.8364   22865005.1414   21170265.19546
  16529420.60143                  23958412.1954                   23958416.6684
 -10790050.96547  -8406589.91045  21416251.7664                   21416250.0744
 11  8 18 20 10  0.0000000  0  8G17G24G07G08G26G11G04G28
 -14342088.64547 -11145752.65146  20958408.8984                   20958408.1804
 -10867867.48446  -8447288.62344  22214884.6954                   22214884.9534
   4654194.80947   3640004.28445  22052978.5704                   22052978.6414
 -12886832.04347 -10007346.64646  20276115.7034                   20276115.4884
    570921.43447    468225.01744  22968652.5234                   22968653.9024
  -2224010.60947  -1719392.61144  22864336.3834   22864333.5594   20970392.59846
  16373676.00643                  23920376.6644                   23920381.5124
 -10895482.82448  -8488744.59145  21396189.0314                   21396187.1644
 11  8 18 20 10 30.0000000  0  8G17G24G07G08G26G11G04G28
 -14456383.26247 -11234813.37246  20936659.3914                   20936658.7934
 -10910498.90247  -8480507.91944  22206772.0784                   22206772.0784
   4658630.15647   3643460.31645  22053822.6804                   22053822.7384
 -12928697.72748 -10039969.28546  20268148.7734                   20268148.5314
    522164.03947    430232.13644  22959374.4774                   22959376.2734
  -2227190.43047  -1721870.39744  22863730.7114   22863729.2734   20770500.68046
  16217916.29743                  23882338.0474                   23882343.2774
 -11000881.50848  -8570873.43945  21376132.2584                   21376130.6844
 11  8 18 20 11  0.0000000  0  8G17G24G07G08G26G11G04G28
 -14570350.68748 -11323619.15246  20914972.0004                   20914971.4064
 -10952627.41047  -8513335.34344  22198755.2194                   22198756.1484
   4663380.96147   3647162.16145  22054726.4774                   22054726.8674
 -12970018.45748 -10072167.29646  20260285.8204                   20260285.5664
    473856.34047    392589.73744  22950181.6414                   22950183.1054
  -2230033.29746  -1724085.72744  22863189.8674   22863189.8204   20570589.71546
  16062141.77243                  23844296.5784                   23844300.1684
 -11106248.10547  -8652977.27045  21356081.5084                   21356080.1644
 11  8 18 20 11 30.0000000  0  8G17G24G07G08G26G11G04G28
 -14683987.12547 -11412167.00746  20893348.0234                   20893346.9804
 -10994249.87547  -8545768.45644  22190834.6724                   22190835.6024
   4668449.60247   3651111.68445  22055691.3984                   22055691.7304
 -13010790.87148 -10103938.03746  20252527.2194                   20252526.8554
    426000.52347    355299.42844  22941075.4144                   22941076.9494
  -2232537.35947  -1726036.98644  22862713.6484   22862712.4774   20370666.91046
  15906358.03143                  23806252.4614                   23806256.4454
 -11211577.59848  -8735052.20645  21336038.2274                   21336036.4024
 11  8 18 20 12  0.0000000  0  8G17G24G07G08G26G11G04G28
 -14797297.70347 -11500460.93446  20871785.6954                   20871784.7114
 -11035372.23447  -8577811.85844  22183009.1254                   22183009.7664
   4673829.28147   3655303.54845  22056715.0634                   22056715.3444
 -13051020.19548 -10135285.60146  20244871.7734                   20244871.2854
    378589.24246    318355.51644  22932053.4384                   22932054.7034
  -2234709.62146  -1727729.66843  22862299.4844   22862298.2854   20170730.40646
  15750563.63943                  23768205.5554                   23768209.7624
 -11316873.76247  -8817101.16745  21316001.1254                   21315999.3834
 11  8 18 20 12 30.0000000  0  8G17G24G07G08G26G11G04G28
 -14910282.87547 -11588501.29846  20850285.2424                   20850284.0234
 -11075995.73046  -8609466.53344  22175279.2344                   22175279.6454
   4679518.35947   3659736.53545  22057797.4694                   22057797.6884
 -13090706.77747 -10166210.21946  20237319.7424                   20237319.2074
    331620.49646    281756.41844  22923115.2194                   22923116.8204
  -2236552.66046  -1729165.90243  22861948.4064   22861947.6454   19970783.22746
  15594760.92043                  23730156.3914                   23730161.2774
 -11422135.35947  -8899123.18245  21295970.4064                   21295968.4884
 11  8 18 20 13  0.0000000  0  8G17G24G07G08G26G11G04G28
 -13447512.96147 -10448680.56246  21128640.7894                   21128640.2974
  -9540693.66847  -7413127.29844  22467437.5314                   22467437.8404
   6260941.06347   4892013.86645  22358732.3524                   22358733.0474
 -11554423.54748  -8969106.45246  20529665.0554                   20529664.3914
   1860519.91447   1473106.58744  23214055.4224                   23214056.5634
   -662641.78147   -502741.85944  23161454.9614   23161454.3524   21346261.57446
  16666562.45343                  23991900.9224                   23991904.8714
  -9951931.62547  -7753509.89245  21575740.5864                   21575739.0904
 11  8 18 20 13 30.0000000  0  8G17G24G07G08G26G11G04G28
 -13559836.46547 -10536205.35346  21107266.6334                   21107265.5084
  -9580310.81247  -7443997.80944  22459898.0314                   22459898.9774
   6267255.26647   4896933.93445  22359934.2584                   22359934.3634
 -11593014.54348  -8999177.39446  20522321.4844                   20522320.9304
   1814441.70347   1437201.40744  23205286.5164                   23205288.3524
   -663820.65646   -503660.52543  23161229.1884   23161229.9534   21146314.48846
  16510759.76643                  23953852.4614                   23953856.5904
 -10057108.95747  -7835466.26545  21555726.3834                   21555724.4534
 11  8 18 20 14  0.0000000  0  8G17G24G07G08G26G11G04G28
 -13671817.60547 -10623463.35346  21085957.2504                   21085956.3674
  -9619414.09047  -7474467.91844  22452457.1174                   22452457.9884
   6273891.46947   4902104.91345  22361196.5004                   22361197.3364
 -11631046.54748  -9028812.75746  20515083.8524                   20515083.4184
   1768817.57047   1401650.05944  23196604.6414                   23196607.0664
   -664658.60946   -504313.55343  23161070.5004   23161068.8164   20946383.96946
  16354970.08343                  23915806.3204                   23915810.6334
 -10162230.03147  -7917378.79945  21535722.3204                   21535720.6644
 11  8 18 20 14 30.0000000  0  8G17G24G07G08G26G11G04G28
 -13783469.00447 -10710464.42446  21064710.8524                   21064709.7034
  -9658016.65247  -7504547.86144  22445111.6334                   22445111.7464
   6280835.67647   4907515.90445  22362518.5164                   22362518.4614
 -11668531.93048  -9058022.18146  20507950.7814                   20507950.4384
   1723633.53946   1366441.67744  23188006.8754                   23188008.2464
   -665169.93047   -504711.96243  23160974.0634   23160971.7704   20746461.35946
  16199186.45043                  23877762.2734                   23877766.6764
 -10267305.68747  -7999255.92645  21515727.1484                   21515725.1724
 11  8 18 20 15  0.0000000  0  8G17G24G07G08G26G11G04G28
 -13894788.20347 -10797206.63246  21043527.3594                   21043526.3714
  -9696117.28147  -7534236.69344  22437861.0704                   22437861.8054
   6288088.73047   4913167.54445  22363898.7664                   22363899.2384
 -11705468.84848  -9086804.22346  20500921.8444                   20500921.3204
   1678889.71146   1331576.24644  23179492.1644                   23179494.0084
   -665354.68747   -504855.97943  23160937.7814   23160937.9844   20546552.11346
  16043413.26043                  23839721.3204                   23839724.7504
 -10372332.67648  -8081095.13445  21495741.0634                   21495739.0274
 11  8 18 20 15 30.0000000  0  8G17G24G07G08G26G11G04G28
 -14005772.86347 -10883688.16446  21022407.4774                   21022406.5594
  -9733713.66047  -7563532.58644  22430706.9614                   22430707.2814
   6295651.50847   4919060.51345  22365337.7274                   22365338.3244
 -11741854.74248  -9115156.89746  20493997.6414                   20493997.4224
   1634587.03146   1297054.59944  23171061.8134                   23171063.5864
   -665211.55946   -504744.53843  23160965.4454   23160964.5474   20346662.49646
  15887655.36643                  23801683.2814                   23801686.4534
 -10477305.87947  -8162892.43245  21475765.1644                   21475763.4694
 11  8 18 20 16  0.0000000  0  8G17G24G07G08G26G11G04G28
 -14116418.22347 -10969905.31046  21001352.3444                   21001351.6844
  -9770802.52047  -7592432.99944  22423648.9614                   22423649.7664
   6303526.99647   4925197.15545  22366837.0554                   22366836.9734
 -11777685.62148  -9143077.09946  20487179.6174                   20487178.7974
   1590727.91047   1262878.60244  23162716.6334                   23162717.5004
   -664738.49247   -504375.87943  23161056.5554   23161053.8874   20146800.17246
  15731918.77743                  23763650.2114                   23763653.7384
 -10582219.85947  -8244643.58945  21455800.9304                   21455799.0234
 11  8 18 20 16 30.0000000  0  8G17G24G07G08G26G11G04G28
 -14226725.14147 -11055858.71246  20980361.4924                   20980360.8444
  -9807385.66047  -7620939.35244  22416687.7114                   22416688.2114
   6311712.97747   4931575.76345  22368394.3984                   22368394.6334
 -11812962.71148  -9170565.77446  20480466.6334                   20480466.3594
   1547309.49646   1229046.01744  23154453.4064                   23154455.4344
   -663938.11746   -503752.22944  23161208.0944   23161207.4804   19946967.93846
  15576205.64043                  23725622.7424                   23725626.8244
 -10687074.04748  -8326348.15445  21435847.9694                   21435845.9184
 11  8 18 20 17  0.0000000  0  8G17G24G07G08G26G11G04G28
 -14336696.55547 -11141550.69246  20959435.0394                   20959434.2344
  -9843466.16447  -7649054.06544  22409821.5634                   22409822.2194
   6320205.58247   4938193.26845  22370010.8134                   22370011.3164
 -11847688.28148  -9197624.67946  20473858.4924                   20473858.2114
   1504327.85947   1195553.74544  23146274.6724                   23146276.8634
   -662814.19146   -502876.56743  23161421.5234   23161421.3244   19747167.06346
  15420516.90543                  23687601.6254                   23687605.6884
 -10791868.53547  -8408006.19945  21415905.8834                   21415904.0594
 11  8 18 20 17 30.0000000  0  8G17G24G07G08G26G11G04G28
 -14446325.78947 -11226976.05846  20938573.1414                   20938572.1134
  -9879038.35247  -7676772.66544  22403052.5234                   22403053.1134
   6329009.62547   4945053.45545  22371686.3054                   22371685.9344
 -11881856.15648  -9224249.02946  20467356.6174                   20467356.1954
   1461787.43047   1162405.27944  23138179.4844                   23138181.4614
   -661362.59846   -501745.50644  23161698.7584   23161697.8754   19547407.58246
  15264860.44343                  23649588.4694                   23649592.5084
 -10896595.60947  -8489611.71145  21395977.2114                   21395975.2154
 11  8 18 20 18  0.0000000  0  8G17G24G07G08G26G11G04G28
 -14555617.68747 -11312138.54346  20917775.8364                   20917774.6374
  -9914107.81247  -7704099.50944  22396379.1724                   22396379.6684
   6338118.87547   4952151.48245  22373419.2894                   22373419.6294
 -11915471.89848  -9250443.13746  20460959.8444                   20460959.2424
   1419681.42247   1129595.32444  23130167.0314                   23130168.7934
   -659589.85946   -500364.11043  23162035.5084   23162033.5314   19347687.96546
  15109235.03743                  23611583.2114                   23611586.6724
 -11001258.49248  -8571167.20345  21376060.8984                   21376058.7424
 11  8 18 20 18 30.0000000  0  8G17G24G07G08G26G11G04G28
 -14664568.92248 -11397035.59246  20897042.8754                   20897042.0234
  -9948672.11347  -7731032.77344  22389801.6564                   22389802.2384
   6347534.96947   4959488.60945  22375211.9844                   22375211.9414
 -11948532.19548  -9276204.45946  20454668.6884                   20454668.1374
   1378011.28947   1097124.99944  23122237.5864                   23122239.2154
   -657494.70746   -498731.62843  23162433.4534   23162432.8404   19148015.05946
  14953646.03843                  23573586.0314                   23573590.6804
 -11105851.94148  -8652668.58045  21356157.0944                   21356155.2544
 11  8 18 20 19  0.0000000  0  8G17G24G07G08G26G11G04G28
 -14773180.53947 -11481667.99746  20876374.6254                   20876373.8204
  -9982733.04347  -7757573.76944  22383320.3284                   22383320.5164
   6357255.49647   4967062.94245  22377061.4384                   22377061.6954
 -11981038.97348  -9301534.43646  20448482.9384                   20448482.6994
   1336774.02747   1064992.02344  23114390.1804                   23114392.0554
   -655079.68447   -496849.86244  23162894.5944   23162893.8874   18948391.41046
  14798095.37043                  23535599.0084                   23535602.8364
 -11210375.53947  -8734115.53845  21336266.7664                   21336265.1604
 11  8 18 20 19 30.0000000  0  8G17G24G07G08G26G11G04G28
 -14881449.80147 -11566033.62646  20855771.4844                   20855771.0234
 -10016288.82847  -7783721.15044  22376935.1024                   22376934.8444
   6367281.67247   4974875.46345  22378969.5944                   22378969.8204
 -12012989.28947  -9326430.80846  20442402.8444                   20442402.4694
   1295970.75447   1033197.12344  23106626.2894                   23106628.0274
   -652344.42646   -494718.49743  23163414.8284   23163413.7304   18748823.49646
  14642588.17943                  23497622.0004                   23497626.9224
 -11314824.47348  -8815504.31346  21316390.9144                   21316389.0554
 11  8 18 20 20  0.0000000  0  8G17G24G07G08G26G11G04G28
 -14989374.86347 -11650131.05946  20835234.5554                   20835233.3324
 -10049338.32447  -7809474.00344  22370645.8754                   22370645.6374
   6377614.26247   4982926.72545  22380935.9774                   22380936.5554
 -12044381.50047  -9350892.30946  20436428.9694                   20436429.0744
   1255601.09847   1001740.17744  23098944.0634                   23098945.7974
   -649288.41446   -492337.23843  23163995.5234   23163994.0274   18549316.91846
  14487128.71743                  23459656.6724                   23459661.6254
 -11419195.19148  -8896832.14946  21296529.9144                   21296527.8404
 11  8 18 20 20 30.0000000  0  8G17G24G07G08G26G11G04G28
 -15096960.99248 -11733964.38746  20814761.3284                   20814760.3484
 -10081887.64147  -7834837.11244  22364451.8054                   22364451.8674
   6388246.49247   4991211.47944  22382958.8524                   22382959.4264
 -12075221.53147  -9374923.54946  20430560.6414                   20430560.1054
   1215658.33646    970615.86644  23091342.7734                   23091344.9454
   -645918.44946   -489711.36743  23164638.0234   23164635.9384   18349870.29346
  14331716.01543                  23421704.0944                   23421707.3754
 -11523490.96547  -8978101.58146  21276682.9454                   21276681.2814
 11  8 18 20 21  0.0000000  0  8G17G24G07G08G26G11G04G28
 -15204204.50847 -11817530.74446  20794353.3134                   20794352.4654
 -10113933.66047  -7859808.04944  22358353.8914                   22358353.9574
   6399180.52747   4999731.38745  22385039.3834                   22385040.6764
 -12105505.75448  -9398521.68346  20424797.8054                   20424797.0704
   1176144.35547    939825.63144  23083823.6644                   23083826.4024
   -642233.10946   -486839.76943  23165338.5234   23165338.0434   18150490.70746
  14176355.51343                  23383763.0164                   23383765.9694
 -11627706.47348  -9059308.45945  21256851.3674                   21256849.8014
 11  8 18 20 21 30.0000000  0  8G17G24G07G08G26G11G04G28
 -15311112.17247 -11900835.39546  20774009.7814                   20774008.7664
 -10145484.23846  -7884392.93444  22352349.9064                   22352350.0434
   6410408.11347   5008480.04445  22387176.1254                   22387176.9774
 -12135241.40647  -9421692.35346  20419139.1174                   20419138.5394
   1137050.19547    909362.56544  23076384.8984                   23076386.3134
   -638240.58246   -483728.72643  23166097.5554   23166097.1334   17951175.29746
  14021045.04443                  23345834.2424                   23345837.4964
 -11731846.71148  -9140456.69045  21237034.1334                   21237032.5164
 11  8 18 20 22  0.0000000  0  8G17G24G07G08G26G11G04G28
 -13842258.09047 -10756273.75546  21053523.3914                   21053522.4494
  -8601117.43447  -6680990.25244  22646233.2274                   22646233.4384
   7997349.19547   6245057.41145  22689161.4064                   22689161.4884
 -10589005.64847  -8216833.35946  20713377.8914                   20713377.7464
   2673797.33247   2106827.76044  23368817.3834                   23368819.5704
    941479.13346    747221.68343  23466710.4144   23466706.7154   19327356.23046
  15093394.05443                  23607712.7584                   23607715.8874
 -10260484.16847  -7993940.41645  21517025.0784                   21517023.3054
 11  8 18 20 22 30.0000000  0  8G17G24G07G08G26G11G04G28
 -13948493.00447 -10839054.19546  21033307.3984                   21033306.5664
  -8631679.21947  -6704804.64344  22640417.1724                   22640417.8164
   8009160.02347   6254260.54845  22691409.1804                   22691409.3054
 -10617644.59447  -8239149.47046  20707928.4694                   20707927.6254
   2635537.98047   2077015.19344  23361537.3204                   23361538.9494
    946081.12546    750807.63644  23467584.8914   23467584.4384   19128180.53146
  14938192.38943                  23569810.3284                   23569813.4964
 -10364467.34848  -8074966.28545  21497237.7424                   21497235.8484
 11  8 18 20 23  0.0000000  0  8G17G24G07G08G26G11G04G28
 -14054394.49247 -10921574.82146  21013155.0084                   21013153.9574
  -8661750.71546  -6728237.01744  22634694.2344                   22634695.2464
   8021257.46547   6263687.03045  22693711.1884                   22693711.5274
 -10645738.67647  -8261040.99746  20702582.2814                   20702581.7234
   2597690.58646   2047523.64743  23354335.4774                   23354337.1214
    950982.43846    754626.69143  23468518.3524   23468517.5234   18929077.67646
  14783047.51743                  23531922.6334                   23531925.5514
 -10468371.86347  -8155930.82346  21477465.2734                   21477463.4304
 11  8 18 20 23 30.0000000  0  8G17G24G07G08G26G11G04G28
 -14159964.18047 -11003836.89146  20993065.5554                   20993064.7584
  -8691334.22347  -6751289.14244  22629065.2974                   22629065.9924
   8033638.64847   6273334.62945  22696067.5084                   22696067.7344
 -10673289.54747  -8282509.23946  20697339.7274                   20697339.3984
   2560251.43847   2018350.19144  23347211.0314                   23347213.2774
    956179.60247    758676.38143  23469506.7664   23469505.7274   18730049.68046
  14627961.03243                  23494048.8444                   23494052.0204
 -10572197.20348  -8236833.68646  21457708.4614                   21457706.3594
 11  8 18 20 24  0.0000000  0  8G17G24G07G08G26G11G04G28
 -14265207.43048 -11085844.59746  20973038.4844                   20973037.7934
  -8720436.23046  -6773966.05344  22623527.5084                   22623527.7304
   8046296.69547   6283197.92945  22698475.8754                   22698477.0164
 -10700303.69148  -8303559.26546  20692198.9924                   20692198.4574
   2523213.43047   1989489.29344  23340163.0634                   23340165.1294
    961666.04746    762951.52543  23470551.0314   23470549.3594   18531095.02346
  14472931.64343                  23456187.8134                   23456191.5744
 -10675947.29748  -8317677.91446  21437965.1024                   21437963.0744
 11  8 18 20 24 30.0000000  0  8G17G24G07G08G26G11G04G28
 -14370125.93048 -11167599.25246  20953073.2664                   20953072.5554
  -8749059.19546  -6796269.71644  22618080.7274                   22618080.9454
   8059228.38347   6293274.44344  22700937.1884                   22700937.6884
 -10726783.17647  -8324192.65946  20687160.1954                   20687159.3594
   2486572.80146   1960938.05144  23333190.6414                   23333192.7504
    967437.70746    767448.87544  23471649.1804   23471648.5824   18332215.51646
  14317960.85443                  23418342.5944                   23418345.9534
 -10779621.55947  -8398463.05946  21418236.6564                   21418235.0664
 11  8 18 20 25  0.0000000  0  8G17G24G07G08G26G11G04G28
 -14474715.66048 -11249097.73246  20933170.4384                   20933169.2624
  -8777200.16446  -6818197.72744  22612725.4844                   22612726.0314
   8072436.29347   6303566.22145  22703449.9304                   22703451.5204
 -10752724.39847  -8344406.63846  20682223.8134                   20682223.1604
   2450331.41447   1932697.92744  23326294.5164                   23326296.3244
    973496.79747    772170.16843  23472802.8834   23472801.8714   18133419.07846
  14163054.78143                  23380512.6954                   23380516.3794
 -10883214.26248  -8479184.62545  21398523.5164                   21398522.0474
 11  8 18 20 25 30.0000000  0  8G17G24G07G08G26G11G04G28
 -14578983.25447 -11330345.20646  20913328.7894                   20913327.8754
  -8804866.44946  -6839755.96444  22607460.6564                   22607461.4574
   8085912.54347   6314067.06545  22706014.7734                   22706015.7934
 -10778133.87547  -8364206.27846  20677388.4064                   20677388.2154
   2414481.34046   1904762.67644  23319471.8984                   23319474.0744
    979835.53546    777109.41943  23474008.8444   23474007.3014   17934703.08247
  14008211.38844                  23342698.2194                   23342701.7234
 -10986729.93448  -8559846.18846  21378825.2034                   21378823.5704
 11  8 18 20 26  0.0000000  0  8G17G24G07G08G26G11G04G28
 -14682934.12147 -11411345.87246  20893548.1564                   20893546.8364
  -8832064.69947  -6860949.43544  22602285.4144                   22602285.8674
   8099650.24247   6324771.63545  22708629.4144                   22708630.9534
 -10803017.82448  -8383596.42246  20672653.2344                   20672652.5664
   2379014.65647   1877126.19944  23312722.7734                   23312725.4454
    986446.63346    782260.92143  23475265.6484   23475265.4884   17736065.60247
  13853429.15044                  23304898.5554                   23304902.2464
 -11090171.99648  -8640450.39045  21359140.5864                   21359138.7234
 11  8 18 20 26 30.0000000  0  8G17G24G07G08G26G11G04G28
 -14786568.09448 -11492099.60346  20873826.6804                   20873825.8404
  -8858795.75847  -6881778.87444  22597198.3284                   22597199.6214
   8113647.70747   6335678.64745  22711292.9224                   22711293.8754
 -10827377.10547  -8402577.71246  20668017.7814                   20668017.3324
   2343929.70347   1849787.17943  23306047.0474                   23306048.6764
    993328.36346    787623.19543  23476576.0474   23476575.5554   17537510.72347
  13698711.31843                  23267114.7664                   23267118.3554
 -11193538.18748  -8720995.47845  21339470.8134                   21339469.2034
 11  8 18 20 27  0.0000000  0  8G17G24G07G08G26G11G04G28
 -14889887.19148 -11572607.98546  20854165.8054                   20854164.8874
  -8885062.35546  -6902246.34444  22592200.0944                   22592201.1684
   8127901.81347   6346785.64145  22714005.7814                   22714006.5944
 -10851213.68747  -8421151.70746  20663481.7814                   20663481.4964
   2309222.94547   1822742.84144  23299442.8674                   23299444.8984
   1000477.18446    793193.60543  23477936.6884   23477935.9384   17339040.30547
  13544059.24144                  23229347.0474                   23229350.1884
 -11296828.48048  -8801481.41545  21319815.5474                   21319813.7154
 11  8 18 20 27 30.0000000  0  8G17G24G07G08G26G11G04G28
 -14992900.58248 -11652878.15346  20834563.1564                   20834562.4384
  -8910874.77047  -6922359.94944  22587288.2344                   22587289.5984
   8142401.76647   6358084.18644  22716765.0004                   22716765.7234
 -10874537.48447  -8439326.14146  20659043.6254                   20659043.3914
   2274882.73447   1795984.16143  23292907.6564                   23292909.7584
   1007882.26246    798963.79342  23479345.9694   23479344.3984   17140648.87947
  13389468.75043                  23191594.4304                   23191597.0634
 -11400050.39848  -8881914.06646  21300173.0394                   21300171.0394
 11  8 18 20 28  0.0000000  0  8G17G24G07G08G26G11G04G28
 -15095605.17248 -11732907.69346  20815019.0084                   20815017.9694
  -8936231.00847  -6942118.11244  22582463.7424                   22582464.0394
   8157149.19147   6369575.57044  22719571.3524                   22719572.0354
 -10897346.24248  -8457099.24346  20654703.0234                   20654702.8954
   2240910.42647   1769512.11443  23286443.1024                   23286444.9144
   1015544.48046    804934.34543  23480803.6094   23480802.6604   16942343.57847
  13234945.32844                  23153858.3134                   23153860.5904
 -11503198.65248  -8962289.33546  21280544.7504                   21280542.2734
 11  8 18 20 28 30.0000000  0  8G17G24G07G08G26G11G04G28
 -15198009.43048 -11812703.21846  20795532.3524                   20795531.2894
  -8961139.99247  -6961527.70544  22577723.3444                   22577723.8794
   8172134.56347   6381252.38144  22722422.7344                   22722423.6054
 -10919648.90247  -8474477.96946  20650459.1954                   20650458.7304
   2207295.78147   1743318.78443  23280046.6254                   23280048.8554
   1023454.53146    811097.90943  23482308.0944   23482308.7114   16744119.61347
  13080485.31144                  23116137.1094                   23116139.7424
 -11606279.37947  -9042611.95945  21260928.8524                   21260926.6884
 11  8 18 20 29  0.0000000  0  8G17G24G07G08G26G11G04G28
 -15300111.49248 -11892263.25546  20776103.1724                   20776101.6024
  -8985600.77747  -6980588.10344  22573068.8594                   22573069.1294
   8187358.18047   6393114.83344  22725319.9304                   22725320.9344
 -10941443.71148  -8491460.98846  20646311.4924                   20646311.4844
   2174039.00447   1717404.32144  23273718.0784                   23273720.1564
   1031612.05946    817454.39143  23483861.3984   23483860.4104   16545983.13347
  12926093.39443                  23078432.5784                   23078435.1334
 -11709288.69148  -9122878.94445  21241326.6954                   21241324.8284
 11  8 18 20 29 30.0000000  0  8G17G24G07G08G26G11G04G28
 -15401922.99248 -11971596.88846  20756728.7344                   20756727.4384
  -9009626.34847  -6999309.34344  22568496.6414                   22568496.8554
   8202807.08247   6405152.82644  22728260.0634                   22728260.6294
 -10962743.33247  -8508058.13345  20642258.8914                   20642258.4734
   2141125.85947   1691757.59344  23267454.7814                   23267457.5474
   1040003.88746    823993.49343  23485458.8914   23485457.0354   16347926.02747
  12771763.37943                  23040743.4924                   23040746.0084
 -11812236.09848  -9203097.70446  21221736.4924                   21221734.6524
 11  8 18 20 30  0.0000000  0  8G17G24G07G08G26G11G04G28
 -15503441.27048 -12050702.02046  20737410.3524                   20737409.4804
  -9033215.18447  -7017690.26944  22564007.9144                   22564007.6374
   8218481.96147   6417366.92745  22731243.3834                   22731244.5634
 -10983546.12947  -8524268.14345  20638299.8674                   20638299.6564
   2108557.41847   1666379.47044  23261257.4694                   23261259.9304
   1048630.87946    830715.71843  23487099.2274   23487099.4144   16149954.82046
  12617500.30943                  23003070.6724                   23003073.4454
 -11915117.10948  -9283264.71846  21202158.9534                   21202157.0274
 11  8 18 20 30 30.0000000  0  8G17G24G07G08G26G11G04G28
 -15604669.46548 -12129581.12846  20718147.3444                   20718146.2854
  -9056371.29747  -7035734.02144  22559601.4304                   22559601.2504
   8234378.62147   6429753.80945  22734268.3594                   22734268.9534
 -11003855.44148  -8540093.61946  20634435.3364                   20634435.3954
   2076328.47347   1641265.94743  23255124.7424                   23255126.8204
   1057488.57446    837617.75143  23488785.7894   23488784.9264   15952070.36346
  12463304.80543                  22965414.0084                   22965416.9224
 -12017932.34048  -9363380.48946  21182593.7734                   21182591.9924
 11  8 18 20 31  0.0000000  0  8G17G24G07G08G26G11G04G28
 -14130184.32447 -10980631.65246  20998732.3674                   20998731.1724
  -7503674.96947  -5825840.78744  22855069.6644                   22855069.4304
   9825915.04747   7669911.94544  23037127.0784                   23037128.9614
  -9448251.21548  -7327934.53745  20930457.1334                   20930456.8164
   3619857.91446   2844016.03544  23548848.7274                   23548850.9694
   2641994.79746   2072297.85643  23790307.3134   23790306.1174   17329703.10946
  13536785.01744                  23227568.9224                   23227571.2304
 -10545256.31647  -8215840.73346  21462834.5234                   21462832.9224
 11  8 18 20 31 30.0000000  0  8G17G24G07G08G26G11G04G28
 -14230835.92648 -11059061.45546  20979579.2814                   20979578.2384
  -7525972.12947  -5843215.24743  22850826.5944                   22850827.3554
   9842247.56347   7682638.44144  23040234.9614                   23040236.5234
  -9467578.85548  -7342995.08145  20926779.1564                   20926778.9774
   3588298.57447   2819424.26644  23542843.1334                   23542845.4654
   2651305.28146   2079552.80843  23792079.0784   23792077.3324   17132000.44947
  13382731.14644                  23189947.2194                   23189949.9884
 -10647937.13347  -8295851.74246  21443295.3364                   21443293.5744
 11  8 18 20 32  0.0000000  0  8G17G24G07G08G26G11G04G28
 -14331209.26647 -11137274.42546  20960478.9694                   20960477.6174
  -7547851.58646  -5860264.18844  22846662.4224                   22846663.6684
   9858785.40247   7695524.96844  23043381.8054                   23043383.2234
  -9486427.00047  -7357681.99346  20923192.6884                   20923192.5124
   3557060.93847   2795083.14443  23536899.3914                   23536900.7344
   2660829.37946   2086974.01443  23793891.3754   23793890.5164   16934384.35547
  13228744.74844                  23152342.1414                   23152344.4734
 -10750557.85947  -8375815.94446  21423767.2274                   21423765.2424
 11  8 18 20 32 30.0000000  0  8G17G24G07G08G26G11G04G28
 -14431302.84848 -11215269.41446  20941431.7664                   20941430.6414
  -7569312.64547  -5876987.16343  22842579.6094                   22842580.1414
   9875528.96947   7708571.74544  23046568.2274                   23046569.7034
  -9504794.55148  -7371994.42446  20919696.9064                   20919697.5084
   3526144.73446   2770992.46644  23531016.2424                   23531017.5394
   2670566.94146   2094561.69843  23795745.0864   23795744.2734   16736860.26647
  13074830.03844                  23114754.8284                   23114757.0664
 -10853114.86348  -8455730.48646  21404251.3834                   21404249.3984
 11  8 18 20 33  0.0000000  0  8G17G24G07G08G26G11G04G28
 -14531117.94148 -11293047.40546  20922437.4614                   20922436.4304
  -7590357.67647  -5893385.91044  22838574.2424                   22838574.7934
   9892475.75847   7721776.92544  23049793.1724                   23049794.3794
  -9522683.37948  -7385933.83346  20916293.3284                   20916293.0824
   3495546.75447   2747149.78943  23525193.9844                   23525195.2854
   2680515.48046   2102313.75643  23797637.8524   23797637.0944   16539431.09447
  12920989.27744                  23077185.0474                   23077187.4024
 -10955606.77048  -8535594.31046  21384747.7664                   21384745.7814
 11  8 18 20 33 30.0000000  0  8G17G24G07G08G26G11G04G28
 -14630655.68048 -11370609.26346  20903495.8914                   20903494.9454
  -7610988.94147  -5909462.23844  22834649.1484                   22834648.6804
   9909622.85547   7735138.16244  23053057.1884                   23053058.0864
  -9540095.80948  -7399502.00146  20912979.7584                   20912979.4844
   3465263.65646   2723552.45644  23519430.7424                   23519433.4804
   2690672.13746   2110228.05843  23799570.3914   23799569.0594   16342099.46947
  12767224.57244                  23039633.7114                   23039635.9024
 -11058032.50848  -8615406.57746  21365256.5234                   21365254.5434
 11  8 18 20 34  0.0000000  0  8G17G24G07G08G26G11G04G28
 -14729923.64148 -11447960.89746  20884605.8204                   20884604.6334
  -7631215.02047  -5925222.81544  22830799.9144                   22830800.4774
   9926961.57447   7748648.71545  23056356.9924                   23056358.1024
  -9557039.68047  -7412705.05745  20909755.4924                   20909755.4804
   3435286.36347   2700193.42544  23513726.0474                   23513728.8554
   2701027.97346   2118297.42943  23801541.1254   23801540.8594   16144861.99247
  12613533.20844                  23002100.6414                   23002102.7544
 -11160397.39847  -8695171.40846  21345777.2034                   21345775.2894
 11  8 18 20 34 30.0000000  0  8G17G24G07G08G26G11G04G28
 -14828912.39148 -11525094.97846  20865768.7114                   20865767.7234
  -7651027.62547  -5940661.27644  22827028.9534                   22827030.9304
   9944499.71547   7762314.67944  23059693.9384                   23059695.1334
  -9573506.59848  -7425536.47446  20906622.0704                   20906621.8874
   3405621.89146   2677078.12244  23508081.2424                   23508083.6724
   2711590.43846   2126527.85243  23803551.0164   23803551.5354   15947732.05547
  12459925.65944                  22964588.1884                   22964590.6024
 -11262689.99247  -8774879.92145  21326311.8914                   21326309.6024
 11  8 18 20 35  0.0000000  0  8G17G24G07G08G26G11G04G28
 -14927622.65248 -11602012.04346  20846985.2894                   20846983.7034
  -7670428.28147  -5955778.72544  22823338.0474                   22823339.3094
   9962235.41047   7776134.56444  23063069.3134                   23063070.6804
  -9589497.75048  -7437997.16046  20903579.0164                   20903578.9804
   3376267.90646   2654204.80444  23502495.6644                   23502498.4184
   2722357.71146   2134917.86243  23805599.7424   23805599.8134   15750713.06347
  12306404.53044                  22927096.0474                   22927098.6564
 -11364908.43448  -8854530.64846  21306860.2344                   21306858.4184
 11  8 18 20 35 30.0000000  0  8G17G24G07G08G26G11G04G28
 -15026053.23048 -11678711.18246  20828254.3284                   20828253.3134
  -7689416.94947  -5970575.12844  22819725.2424                   22819725.5124
   9980168.37947   7790108.11144  23066481.2114                   23066482.9654
  -9605012.92647  -7450086.95846  20900626.5864                   20900626.5394
   3347223.38346   2631572.59244  23496968.6094                   23496970.6604
   2733329.21946   2143467.00843  23807687.9224   23807687.5084   15553809.78946
  12152973.57844                  22889626.6174                   22889628.8054
 -11467049.50848  -8934121.09946  21287423.5234                   21287421.4804
 11  8 18 20 36  0.0000000  0  8G17G24G07G08G26G11G04G28
 -15124205.39148 -11755193.36546  20809576.3984                   20809575.5204
  -7707996.17647  -5985052.46344  22816189.3524                   22816189.1214
   9998295.71147   7804233.16844  23069931.1094                   23069932.2344
  -9620054.30548  -7461807.54945  20897764.6024                   20897764.5474
   3318485.21546   2609179.08544  23491499.9694                   23491503.1334
   2744501.80146   2152172.87843  23809813.1254   23809813.8484   15357025.20347
  11999635.09844                  22852179.5554                   22852181.6684
 -11569112.31648  -9013650.54946  21268001.2974                   21267999.6414
 11  8 18 20 36 30.0000000  0  8G17G24G07G08G26G11G04G28
 -15222078.48448 -11831458.10246  20790952.0634                   20790950.6994
  -7726166.25047  -5999210.95344  22812730.8674                   22812731.7854
  10016616.93047   7818509.26944  23073417.4454                   23073418.9774
  -9634621.95347  -7473159.02046  20894992.4064                   20894992.1294
   3290051.94146   2587023.18544  23486089.1484                   23486092.1454
   2755875.01245   2161035.03542  23811977.9844   23811977.4414   15160364.17247
  11846392.91244                  22814756.0164                   22814758.0944
 -11671093.64148  -9093116.52046  21248595.1094                   21248593.3484
 11  8 18 20 37  0.0000000  0  8G17G24G07G08G26G11G04G28
 -15319670.68048 -11907503.95046  20772380.6174                   20772379.5274
  -7743926.68747  -6013050.33344  22809351.9774                   22809352.5004
  10035131.96547   7832936.44644  23076941.0634                   23076942.1134
  -9648714.68747  -7484140.42045  20892310.8284                   20892310.2894
   3261923.30547   2565104.69344  23480737.3364                   23480740.0474
   2767448.96546   2170053.59643  23814180.8054   23814179.3834   14963832.13347
  11693251.18544                  22777356.8914                   22777359.0944
 -11772989.37547  -9172515.79946  21229204.8054                   21229202.8164
 11  8 18 20 37 30.0000000  0  8G17G24G07G08G26G11G04G28
 -15416975.97748 -11983326.24046  20753864.2584                   20753862.9654
  -7761272.44147  -6026566.52344  22806051.5164                   22806052.1644
  10053846.08647   7847518.76544  23080502.3914                   23080503.7584
  -9662327.65647  -7494747.96645  20889720.1024                   20889720.0434
   3234103.63746   2543426.93544  23475443.3284                   23475445.9144
   2779227.99246   2179232.02042  23816422.5704   23816421.2154   14767439.39147
  11540218.04044                  22739984.5314                   22739986.2734
 -11874791.39147  -9251842.02046  21209832.8284                   21209830.6804
 11  8 18 20 38  0.0000000  0  8G17G24G07G08G26G11G04G28
 -15513994.17648 -12058924.82146  20735401.6724                   20735401.0634
  -7778204.10547  -6039760.05644  22802829.1414                   22802830.2114
  10072757.53947   7862254.85544  23084101.5944                   23084103.1524
  -9675461.40247  -7504982.10445  20887220.7274                   20887220.6994
   3206591.09847   2521988.50644  23470208.1644                   23470210.5784
   2791210.82046   2188569.19343  23818702.9534   23818701.6214   14571189.89847
  11387296.52144                  22702639.9924                   22702641.4184
 -11976496.91847  -9331093.08646  21190478.7734                   21190476.8954
 11  8 18 20 38 30.0000000  0  8G17G24G07G08G26G11G04G28
 -15610725.34848 -12134299.74846  20716994.8914                   20716993.4734
  -7794722.99646  -6052631.98043  22799684.5004                   22799685.8834
  10091865.00846   7877143.64544  23087737.3204                   23087738.5634
  -9688116.68047  -7514843.42845  20884812.6254                   20884812.4024
   3179383.62146   2500787.74144  23465030.1334                   23465032.9494
   2803396.01246   2198064.14543  23821021.7504   23821020.6054   14375088.05947
  11234490.03544                  22665322.5634                   22665324.8634
 -12078103.60247  -9410267.12846  21171143.5164                   21171141.6954
 11  8 18 20 39  0.0000000  0  8G17G24G07G08G26G11G04G28
 -15707168.85548 -12209450.50846  20698642.0314                   20698641.3014
  -7810829.77346  -6065182.76043  22796619.9384                   22796619.9104
  10111167.89846   7892184.68544  23091410.6484                   23091412.9104
  -9700293.79347  -7524332.12245  20882495.7504                   20882495.5274
   3152479.69546   2479823.52944  23459911.3204                   23459913.5784
   2815782.50046   2207715.85743  23823379.2504   23823378.4774   14179138.33647
  11081802.09944                  22628034.7424                   22628036.6054
 -12179608.42247  -9489361.79946  21151827.8364                   21151826.2664
 11  8 18 20 39 30.0000000  0  8G17G24G07G08G26G11G04G28
 -15803332.73448 -12284383.40046  20680342.4224                   20680341.6724
  -7826533.59447  -6077419.50644  22793633.0394                   22793632.3594
  10130656.62546   7907370.55244  23095119.2344                   23095121.5984
  -9712001.18747  -7533454.82345  20880267.6254                   20880267.1414
   3125869.74246   2459088.37843  23454847.2664                   23454849.8954
   2828361.25046   2217517.52742  23825772.9534   23825771.2504   13983336.78547
  10929229.62544                  22590773.9454                   22590776.3054
 -12281017.09847  -9568381.55245  21132530.0944                   21132528.5594
 11  8 18 20 40  0.0000000  0  8G17G24G07G08G26G11G04G28
 -14323786.05948 -11131489.85846  20961891.1094                   20961889.7974
  -6266407.42247  -4861736.79544  23090514.6484                   23090515.2074
  11725756.86346   9150305.57044  23398657.3444                   23398658.6884
  -8147812.59047  -6314606.61545  21177922.8524                   21177922.5044
   4674979.87546   3666187.11343  23749632.8594                   23749635.9184
   4416557.45746   3455072.98442  24127996.0004   24127995.0594   15363121.61347
  12004386.79144                  22853338.6334                   22853340.6174
 -10806896.44148  -8419716.09946  21413046.4144                   21413044.6724
 11  8 18 20 40 30.0000000  0  8G17G24G07G08G26G11G04G28
 -14419374.83648 -11205974.60646  20943701.1484                   20943700.5314
  -6281293.02746  -4873336.04344  23087681.2974                   23087683.0904
  11745628.84046   9165790.07944  23402439.3134                   23402440.1054
  -8158568.89847  -6322988.20645  21175876.3524                   21175875.9964
   4648966.75846   3645917.04043  23744682.6724                   23744685.8164
   4429531.13346   3465182.33343  24130465.3204   24130464.5864   15167644.16847
  11852066.85644                  22816140.6024                   22816142.4774
 -10908090.13347  -8498568.32646  21393789.4304                   21393787.9104
 11  8 18 20 41  0.0000000  0  8G17G24G07G08G26G11G04G28
 -14514675.35548 -11280234.74746  20925565.9224                   20925565.0044
  -6295770.06646  -4884616.88043  23084927.0634                   23084926.2304
  11765691.48047   9181423.13144  23406257.0234                   23406258.4384
  -8168849.67247  -6330999.24045  21173919.8984                   21173919.7464
   4623250.26646   3625878.10943  23739789.1254                   23739792.1954
   4442701.04546   3475444.57043  24132971.8284   24132970.5864   14972336.06647
  11699878.86444                  22778974.6804                   22778976.4694
 -11009171.53947  -8577333.05146  21374554.6174                   21374552.6954
 11  8 18 20 41 30.0000000  0  8G17G24G07G08G26G11G04G28
 -14609684.45347 -11354267.79646  20907486.2424                   20907485.1454
  -6309836.65247  -4895577.80744  23082250.8444                   23082249.3524
  11785946.28547   9197205.91144  23410111.2344                   23410113.6684
  -8178652.85247  -6338638.12445  21172054.6094                   21172054.0864
   4597831.37146   3606071.07144  23734952.5864                   23734955.1414
   4456068.71146   3485860.78142  24135514.4844   24135514.4654   14777204.35547
  11547828.32144                  22741841.9064                   22741843.7154
 -11110135.44947  -8656006.21545  21355341.7034                   21355340.2704
